[[{"header":{"parameterUnit":"m.s-1","parameterCategory":1,"la1":30.6,"la2":29.2853,"lo1":-89.7004,"lo2":-87.6739,"dy":0.0162,"dx":0.0183,"nx":112,"ny":82,"refTime":"2023-10-05T12:00:00:Z","depth":0,"parameterNumber":2,"parameterNumberName":"U-component_of_WINDS"},"data":[0.0,0.0,0.0,0.0,0.0,0.0,0.0,0.0,0.0,0.0,0.0,0.0,0.0,0.0,0.0,0.0,0.0,0.0,0.0,0.0,0.0,0.0,0.0,0.0,0.0,0.0,0.0,0.0,0.0,0.0,0.0,0.0,0.0,0.0,0.0,0.0,0.0,0.0,0.0,0.0,0.0,0.0,0.0,0.0,0.0,0.0,0.0,0.0,0.0,0.0,0.0,0.0,0.0,0.0,0.0,0.0,0.0,0.0,0.0,0.0,0.0,0.0,0.0,0.0,0.0,0.0,0.0,0.0,0.0,0.0,0.0,0.0,0.0,0.0,0.0,0.0,0.0,0.0,0.0,0.0,0.0,0.0,0.0,0.0,0.0,0.0,0.0,0.0,0.0,0.0,0.0,2.2794,2.4541,2.5469,2.506,2.5564,2.5184,2.3461,0.0,0.0,0.0,0.0,0.0,0.0,0.0,0.0,0.0,0.0,0.0,0.0,0.0,0.0,0.0,0.0,0.0,0.0,0.0,0.0,0.0,0.0,0.0,0.0,0.0,0.0,0.0,0.0,0.0,0.0,0.0,0.0,0.0,0.0,0.0,0.0,0.0,0.0,0.0,0.0,0.0,0.0,0.0,0.0,0.0,0.0,0.0,0.0,0.0,0.0,0.0,0.0,0.0,0.0,0.0,0.0,0.0,0.0,0.0,0.0,0.0,0.0,0.0,0.0,0.0,0.0,0.0,0.0,0.0,0.0,0.0,0.0,0.0,0.0,0.0,0.0,0.0,0.0,0.0,0.0,0.0,0.0,0.0,0.0,0.0,0.0,0.0,0.0,0.0,0.0,0.0,0.0,0.0,0.0,0.0,0.0,0.0,0.0,0.0,0.0,0.0,0.0,0.0,0.0,2.0223,2.275,2.4029,2.484,2.5179,2.415,2.3601,2.3883,0.0,0.0,0.0,0.0,0.0,0.0,0.0,0.0,0.0,0.0,0.0,0.0,0.0,0.0,0.0,0.0,0.0,0.0,0.0,0.0,0.0,0.0,0.0,0.0,0.0,0.0,0.0,0.0,0.0,0.0,0.0,0.0,0.0,0.0,0.0,0.0,0.0,0.0,0.0,0.0,0.0,0.0,0.0,0.0,0.0,0.0,0.0,0.0,0.0,0.0,0.0,0.0,0.0,0.0,0.0,0.0,0.0,0.0,0.0,0.0,0.0,0.0,0.0,0.0,0.0,0.0,0.0,0.0,0.0,0.0,0.0,0.0,0.0,0.0,0.0,0.0,0.0,0.0,0.0,0.0,0.0,0.0,0.0,0.0,0.0,0.0,0.0,0.0,0.0,0.0,0.0,0.0,0.0,0.0,0.0,0.0,0.0,0.0,0.0,0.0,0.0,0.0,0.0,1.9254,2.0161,2.185,2.2659,2.3154,2.3361,2.2642,2.2328,2.2805,2.2914,0.0,0.0,0.0,0.0,0.0,0.0,0.0,0.0,0.0,0.0,0.0,0.0,0.0,0.0,0.0,0.0,0.0,0.0,0.0,0.0,0.0,0.0,0.0,0.0,0.0,0.0,0.0,0.0,0.0,0.0,0.0,0.0,0.0,0.0,0.0,0.0,0.0,0.0,0.0,0.0,0.0,0.0,0.0,0.0,0.0,0.0,0.0,0.0,0.0,0.0,0.0,0.0,0.0,0.0,0.0,0.0,0.0,0.0,0.0,0.0,0.0,0.0,0.0,0.0,0.0,0.0,0.0,0.0,0.0,0.0,0.0,0.0,0.0,0.0,0.0,0.0,0.0,0.0,0.0,0.0,0.0,0.0,0.0,0.0,0.0,0.0,0.0,0.0,0.0,0.0,0.0,0.0,0.0,0.0,0.0,0.0,0.0,0.0,0.0,0.0,0.0,0.0,1.9502,2.0107,2.0907,2.1296,2.15,2.15,2.1164,2.1114,2.1313,2.1105,0.0,0.0,0.0,0.0,0.0,0.0,0.0,0.0,0.0,0.0,0.0,0.0,0.0,0.0,0.0,0.0,0.0,0.0,0.0,0.0,0.0,0.0,0.0,0.0,0.0,0.0,0.0,0.0,0.0,0.0,0.0,0.0,0.0,0.0,0.0,0.0,0.0,0.0,0.0,0.0,0.0,0.0,0.0,0.0,0.0,0.0,0.0,0.0,0.0,0.0,0.0,0.0,0.0,0.0,0.0,0.0,0.0,0.0,0.0,0.0,0.0,0.0,0.0,0.0,0.0,0.0,0.0,0.0,0.0,0.0,0.0,0.0,0.0,0.0,0.0,0.0,0.0,0.0,0.0,0.0,0.0,0.0,0.0,0.0,0.0,0.0,0.0,0.0,0.0,0.0,0.0,0.0,0.0,0.0,0.0,0.0,0.0,0.0,0.0,0.0,0.0,0.0,1.9062,1.9584,2.0294,2.042,2.0361,2.0134,1.9716,1.956,1.9897,1.9555,0.0,0.0,0.0,0.0,0.0,0.0,0.0,0.0,0.0,0.0,0.0,0.0,0.0,0.0,0.0,0.0,0.0,0.0,0.0,0.0,0.0,0.0,0.0,0.0,0.0,0.0,0.0,0.0,0.0,0.0,0.0,0.0,0.0,0.0,0.0,0.0,0.0,0.0,0.0,0.0,0.0,0.0,0.0,0.0,0.0,0.0,0.0,0.0,0.0,0.0,0.0,0.0,0.0,0.0,0.0,0.0,0.0,0.0,0.0,0.0,0.0,0.0,0.0,0.0,0.0,0.0,0.0,0.0,0.0,0.0,0.0,0.0,0.0,0.0,0.0,0.0,0.0,0.0,0.0,0.0,0.0,0.0,0.0,0.0,0.0,0.0,0.0,0.0,0.0,0.0,0.0,0.0,0.0,0.0,0.0,0.0,0.0,0.0,0.0,0.0,0.0,0.0,1.9341,1.9837,0.0,2.0111,1.9803,1.9572,1.8798,1.8836,1.9846,0.0,0.0,0.0,0.0,0.0,0.0,0.0,0.0,0.0,0.0,0.0,0.0,0.0,0.0,0.0,0.0,0.0,0.0,0.0,0.0,0.0,0.0,0.0,0.0,0.0,0.0,0.0,0.0,0.0,0.0,0.0,0.0,0.0,0.0,0.0,0.0,0.0,0.0,0.0,0.0,0.0,0.0,0.0,0.0,0.0,0.0,0.0,0.0,0.0,0.0,0.0,0.0,0.0,0.0,0.0,0.0,0.0,0.0,0.0,0.0,0.0,0.0,0.0,0.0,0.0,0.0,0.0,0.0,0.0,0.0,0.0,0.0,0.0,0.0,0.0,0.0,0.0,0.0,0.0,0.0,0.0,0.0,0.0,0.0,0.0,0.0,0.0,0.0,0.0,0.0,0.0,0.0,0.0,0.0,0.0,0.0,0.0,0.0,0.0,0.0,0.0,0.0,1.8899,1.9445,1.986,0.0,1.9736,1.9355,1.892,1.8201,1.8151,1.9315,0.0,0.0,0.0,0.0,0.0,0.0,0.0,0.0,0.0,0.0,0.0,0.0,0.0,0.0,0.0,0.0,0.0,0.0,0.0,0.0,0.0,0.0,0.0,0.0,0.0,0.0,0.0,0.0,0.0,0.0,0.0,0.0,0.0,0.0,0.0,0.0,0.0,0.0,0.0,0.0,0.0,0.0,0.0,0.0,0.0,0.0,0.0,0.0,0.0,0.0,0.0,0.0,0.0,0.0,0.0,0.0,0.0,0.0,0.0,0.0,0.0,0.0,0.0,0.0,0.0,0.0,0.0,0.0,0.0,0.0,0.0,0.0,0.0,0.0,0.0,0.0,0.0,0.0,0.0,0.0,0.0,0.0,0.0,0.0,0.0,0.0,0.0,0.0,0.0,0.0,0.0,0.0,0.0,0.0,0.0,0.0,0.0,0.0,0.0,0.0,0.0,0.0,1.8826,1.9145,1.9487,1.9816,1.9322,1.8759,1.8146,1.7734,1.7666,0.0,0.0,0.0,0.0,0.0,0.0,0.0,0.0,0.0,0.0,0.0,0.0,0.0,0.0,0.0,0.0,0.0,0.0,0.0,0.0,0.0,0.0,0.0,0.0,0.0,0.0,0.0,0.0,0.0,0.0,0.0,0.0,0.0,0.0,0.0,0.0,0.0,0.0,0.0,0.0,0.0,0.0,0.0,0.0,0.0,0.0,0.0,0.0,0.0,0.0,0.0,0.0,0.0,0.0,0.0,0.0,0.0,0.0,0.0,0.0,0.0,0.0,0.0,0.0,0.0,0.0,0.0,0.0,0.0,0.0,0.0,0.0,0.0,0.0,0.0,0.0,0.0,0.0,0.0,0.0,0.0,0.0,0.0,0.0,0.0,0.0,0.0,0.0,0.0,0.0,0.0,0.0,0.0,0.0,0.0,0.0,0.0,0.0,0.0,0.0,0.0,0.0,0.0,1.8488,1.8731,1.8958,1.9219,1.8574,1.8035,1.7688,1.7312,1.7366,1.7978,0.0,0.0,0.0,0.0,0.0,0.0,0.0,0.0,0.0,0.0,0.0,0.0,0.0,0.0,0.0,0.0,0.0,0.0,0.0,0.0,0.0,0.0,0.0,0.0,0.0,0.0,0.0,0.0,0.0,0.0,0.0,0.0,0.0,0.0,0.0,0.0,0.0,0.0,0.0,0.0,0.0,0.0,0.0,0.0,0.0,0.0,0.0,0.0,0.0,0.0,0.0,0.0,0.0,0.0,0.0,0.0,0.0,0.0,0.0,0.0,0.0,0.0,0.0,0.0,0.0,0.0,0.0,0.0,0.0,0.0,0.0,0.0,0.0,0.0,0.0,0.0,0.0,0.0,0.0,0.0,0.0,0.0,0.0,0.0,0.0,0.0,0.0,0.0,0.0,0.0,0.0,0.0,0.0,0.0,0.0,0.0,0.0,0.0,0.0,0.0,0.0,0.0,1.8359,1.8406,1.863,1.8956,1.836,1.7833,1.7504,1.7558,1.782,1.8385,0.0,0.0,0.0,0.0,0.0,0.0,0.0,0.0,0.0,0.0,0.0,0.0,0.0,0.0,0.0,0.0,0.0,0.0,0.0,0.0,0.0,0.0,0.0,0.0,0.0,0.0,0.0,0.0,0.0,0.0,0.0,0.0,0.0,0.0,0.0,0.0,0.0,0.0,0.0,0.0,0.0,0.0,0.0,0.0,0.0,0.0,0.0,0.0,0.0,0.0,0.0,0.0,0.0,0.0,0.0,0.0,0.0,0.0,0.0,0.0,0.0,0.0,0.0,0.0,0.0,0.0,0.0,0.0,0.0,0.0,0.0,0.0,0.0,0.0,0.0,0.0,0.0,0.0,0.0,0.0,0.0,0.0,0.0,0.0,0.0,0.0,0.0,0.0,0.0,0.0,0.0,0.0,0.0,0.0,0.0,0.0,0.0,0.0,0.0,0.0,0.0,0.0,1.8276,1.8128,1.8248,1.8824,1.834,1.7853,1.7477,1.8081,1.8607,1.8875,0.0,0.0,0.0,0.0,0.0,0.0,0.0,0.0,0.0,0.0,0.0,0.0,0.0,0.0,0.0,0.0,0.0,0.0,0.0,0.0,0.0,0.0,0.0,0.0,0.0,0.0,0.0,0.0,0.0,0.0,0.0,0.0,0.0,0.0,0.0,0.0,0.0,0.0,0.0,0.0,0.0,0.0,0.0,0.0,0.0,0.0,0.0,0.0,0.0,0.0,0.0,0.0,0.0,0.0,0.0,0.0,0.0,0.0,0.0,0.0,0.4656,0.0,0.0,0.0,0.0,0.0,0.0,0.0,0.0,0.0,0.0,0.0,0.0,0.0,0.0,0.0,0.0,0.0,0.0,0.0,0.0,0.0,0.0,0.0,0.0,0.0,0.0,0.0,0.0,0.0,0.0,0.0,0.0,0.0,0.0,0.0,0.0,0.0,0.0,0.0,0.0,0.0,1.7787,1.7487,1.744,1.8248,1.7596,1.7128,1.7037,1.7176,1.7536,1.8172,0.0,0.0,0.0,0.0,0.0,0.0,0.0,0.0,0.0,0.0,0.0,0.0,0.0,0.0,0.0,0.0,0.0,0.0,0.0,0.0,0.0,0.0,0.0,0.0,0.0,0.0,0.0,0.0,0.0,0.0,0.0,0.0,0.0,0.0,0.0,0.0,0.0,0.0,0.0,0.0,0.0,0.0,0.0,0.0,0.0,0.0,0.0,0.0,0.0,0.0,0.0,0.0,0.0,0.0,0.0,0.0,0.0,0.0,0.0,0.0,0.0,0.4505,0.0,0.0,0.0,0.0,0.0,0.0,0.0,0.0,0.0,0.0,0.0,0.0,0.0,0.0,0.0,0.0,0.0,0.0,0.0,0.0,0.0,0.0,0.0,0.0,0.0,0.0,0.0,0.0,0.0,0.0,0.0,0.0,0.0,0.0,0.0,0.0,0.0,0.0,0.0,0.0,1.7703,1.726,1.722,1.8036,1.7559,1.711,1.6927,1.7432,1.7927,1.8452,1.9166,0.0,0.0,0.0,0.0,0.0,0.0,0.0,0.0,0.0,0.0,0.0,0.0,0.0,0.0,0.0,0.0,0.0,0.0,0.0,0.0,0.0,0.0,0.0,0.0,0.0,0.0,0.0,0.0,0.0,0.0,0.0,0.0,0.0,0.0,0.0,0.0,0.0,0.0,0.0,0.0,0.0,0.0,0.0,0.0,0.0,0.0,0.0,0.0,0.0,0.0,0.0,0.0,0.0,0.3118,0.3334,0.3391,0.2567,0.2839,0.3742,0.4056,0.4383,0.4641,0.0,0.0,0.0,0.0,0.0,0.0,0.0,0.0,0.0,0.0,0.0,0.0,0.0,0.0,0.0,0.0,0.0,0.0,0.0,0.0,0.0,0.0,0.0,0.0,0.0,1.2544,1.3209,0.0,0.0,0.0,0.0,0.0,0.0,0.0,0.0,0.0,0.0,0.0,0.0,1.7703,1.7315,1.7293,1.8045,1.7743,1.7339,1.6936,1.7764,1.8498,1.8998,1.9573,2.0302,0.0,0.0,0.0,0.0,0.0,0.0,0.0,0.0,0.0,0.0,0.0,0.0,0.0,0.0,0.0,0.0,0.0,0.0,0.0,0.0,0.0,0.0,0.0,0.0,0.0,0.0,0.0,0.0,0.0,0.0,0.0,0.0,0.39,0.211,0.0,0.0,0.0,0.0,0.0,0.0,0.0,0.0,0.0,0.0,0.0,0.0,0.0,0.0,0.2011,0.2234,0.2275,0.2414,0.285,0.3075,0.3082,0.2983,0.3081,0.3473,0.3555,0.0,0.4499,0.4572,0.0,0.0,0.0,0.0,0.0,0.0,0.0,0.0,0.0,0.0,0.0,0.0,0.0,0.0,0.0,0.0,0.0,0.0,0.0,0.0,0.0,0.0,1.1786,1.2732,1.2447,1.2288,0.0,1.4114,1.4156,1.4856,0.0,0.0,0.0,0.0,0.0,0.0,0.0,0.0,1.7703,1.7551,1.7596,1.8073,1.7743,1.7339,1.6936,1.7024,1.7636,1.8911,1.911,1.9639,2.0635,2.0366,0.0,0.0,0.0,0.0,0.0,0.0,0.0,0.0,0.0,0.0,0.0,0.0,0.0,0.0,0.0,0.0,0.0,0.0,0.0,0.0,0.0,0.0,0.0,0.0,0.0,0.0,0.0,0.0,0.0,0.2266,0.1329,-0.0625,-0.1486,-0.2034,0.0,0.0,0.0,0.0,0.0,0.0,0.0,0.0,0.0,-0.1822,0.0092,0.1606,0.2625,0.2648,0.2585,0.243,0.2727,0.274,0.2664,0.2333,0.2423,0.2823,0.2823,0.3328,0.4183,0.3945,0.3744,0.3428,0.0,0.0,0.0,0.0,0.5117,0.5952,0.7427,0.8242,0.0,0.0,0.0,0.0,0.0,0.0,0.0,0.0,0.0,0.0,0.0,0.0,0.0,1.2787,1.2738,1.2883,1.3936,1.3888,1.3837,0.0,1.4564,1.4775,1.4657,0.0,0.0,0.0,0.0,0.0,1.8028,1.7733,1.766,1.8082,1.755,1.7092,1.6917,1.7304,1.7969,1.8911,1.9375,2.0031,2.0903,2.0431,2.0096,0.0,0.0,0.0,0.0,0.0,0.0,0.0,0.0,0.0,0.0,0.0,0.0,0.0,0.0,0.0,0.0,0.0,0.0,0.0,0.0,0.0,0.0,0.0,0.0,0.0,0.0,0.0,0.0,0.0156,-0.0313,-0.203,-0.2435,-0.2918,0.0,0.0,0.0,0.0,0.0,0.0,-0.491,-0.4244,-0.3548,-0.2715,-0.0197,0.1509,0.237,0.2371,0.2386,0.2208,0.2282,0.2381,0.2297,0.1855,0.1843,0.2251,0.2251,0.2733,0.3569,0.3434,0.3514,0.3602,0.3469,0.3746,0.4236,0.4989,0.5407,0.5927,0.7606,0.8267,0.8353,0.8867,0.0,0.9597,0.9285,0.0,0.0,0.0,0.0,1.2061,1.2197,1.2083,1.207,1.2548,1.2901,1.3208,1.3804,1.3552,1.3445,0.0,1.4469,1.4553,1.4297,0.0,0.0,0.0,0.0,1.7231,1.823,1.7852,1.7614,1.7926,1.7422,1.7088,1.7185,1.7706,1.8375,1.9243,1.977,2.0366,2.1031,2.0431,2.0042,1.9977,0.0,0.0,0.0,0.0,0.0,0.0,0.0,0.0,0.0,0.0,0.0,0.0,0.0,0.0,0.0,0.0,0.0,0.0,0.0,0.0,0.0,0.0,0.0,0.0,0.0,0.0,0.0,0.0,0.0,-0.062,-0.1905,0.0,0.0,0.0,0.0,-0.5687,-0.5993,-0.5922,-0.5507,-0.4666,-0.3466,-0.1959,-0.0414,0.0526,0.0653,0.0762,0.0981,0.1199,0.1525,0.1728,0.1702,0.17,0.1699,0.1699,0.1699,0.2103,0.2681,0.3474,0.3825,0.3779,0.3699,0.4056,0.4667,0.536,0.6386,0.7435,0.8309,0.8552,0.864,0.9161,0.9203,0.931,1.0189,0.934,0.0,0.0,1.0508,1.0253,1.1128,1.1047,1.1033,1.2398,1.2363,1.2345,1.3642,1.316,1.3127,0.0,1.4814,1.4425,1.5505,0.0,1.6383,1.6837,1.6909,1.7215,1.8026,1.777,1.7504,1.7523,1.7486,1.7586,1.794,1.7969,1.8566,1.9966,2.0096,2.0237,2.0635,2.0302,1.9977,1.9605,1.9274,0.0,0.0,0.0,0.0,0.0,0.0,0.0,0.0,0.0,0.0,0.0,0.0,0.0,0.0,0.0,0.0,0.0,0.0,0.0,0.0,0.0,0.0,0.0,0.0,0.0,0.0,0.0,0.0,-0.3751,-0.4219,0.0,-0.5689,-0.634,-0.6886,-0.7341,-0.7461,-0.758,-0.7818,-0.5994,-0.4377,-0.3204,-0.1734,-0.0656,0.0219,0.0219,0.0326,0.043,0.1277,0.1688,0.1677,0.1657,0.1648,0.1648,0.1955,0.2444,0.2899,0.3647,0.3861,0.3851,0.454,0.49,0.5217,0.6443,0.7142,0.7588,0.8364,0.8568,0.8656,0.8828,0.8776,0.8874,0.9164,0.8919,0.8501,0.9271,0.9854,1.0512,1.1577,1.1624,1.1766,1.2901,1.2696,1.2447,1.3144,1.3187,1.3511,1.479,1.4351,1.4186,1.5204,1.5757,1.6143,1.6529,1.6773,1.7206,1.7999,1.7761,1.7495,1.7495,1.768,1.786,1.7978,1.8834,1.9562,2.0096,2.0571,2.0828,2.0967,2.0431,2.0031,1.9911,1.9396,1.8721,0.0,0.0,0.0,0.0,0.0,0.0,0.0,0.0,0.0,0.0,0.0,0.0,0.0,0.0,0.0,0.0,0.0,0.0,0.0,0.0,0.0,0.0,0.0,0.0,0.0,0.0,-0.278,-0.5996,-0.6054,-0.6312,-0.7556,-0.7692,-0.7894,-0.8299,-0.8415,-0.8418,-0.8618,-0.6603,-0.5086,-0.3917,-0.2538,-0.1435,-0.0651,-0.0217,-0.0,-0.0,0.094,0.145,0.1646,0.1626,0.1617,0.1617,0.212,0.2804,0.3558,0.3999,0.4426,0.483,0.5314,0.5695,0.6227,0.7153,0.7753,0.8197,0.8727,0.8907,0.8903,0.8632,0.8616,0.8854,1.0409,0.9889,0.9003,0.9872,1.0325,1.0816,1.1873,1.2049,1.2157,1.2785,1.2791,1.2698,1.2988,1.349,1.4022,1.4544,1.441,1.4474,1.5275,1.5749,1.6143,1.6465,1.6782,1.7307,1.8091,1.79,1.7779,1.798,1.8203,1.8432,1.87,1.9562,2.0237,2.0431,2.0955,2.1158,2.1031,2.0431,2.0042,1.9911,1.9396,1.8721,1.7891,0.0,0.0,0.0,0.0,0.0,0.0,0.0,0.0,0.0,0.0,0.0,0.0,0.0,0.0,0.0,0.0,0.0,0.0,0.0,0.0,0.0,0.0,0.0,-0.0081,-0.1899,-0.4174,-0.6959,-0.7069,-0.72,-0.8018,-0.8069,-0.8155,-0.8457,-0.8734,-0.8584,-0.7626,-0.6463,-0.521,-0.4035,-0.2511,-0.1735,-0.1813,-0.064,-0.0,-0.0,0.0519,0.1131,0.1617,0.1617,0.1617,0.1617,0.2219,0.3221,0.4409,0.4728,0.5596,0.6705,0.5934,0.6438,0.7608,0.7546,0.8285,0.9345,0.9497,0.9483,0.9387,0.8835,0.8632,0.9511,1.3905,1.2486,0.9834,1.2337,1.198,1.0958,1.1731,1.2037,1.2107,1.2184,1.2716,1.3176,1.3113,1.3911,1.4641,1.4641,1.4919,1.5346,1.5726,1.624,1.6628,1.6718,1.7,0.0,1.8251,1.8173,1.8327,1.8952,1.9085,1.9341,2.0064,2.0118,2.0442,2.1158,2.1221,2.1031,2.0635,2.0302,1.9977,1.9605,1.9274,1.8998,1.8808,0.0,0.0,0.0,0.0,0.0,0.0,0.0,0.0,0.0,0.0,0.0,0.0,0.0,0.0,0.0,0.0,0.0,0.0,0.0,0.0,0.0,0.0,0.2195,0.2604,0.0345,-0.3086,-0.7677,-0.7557,-0.7428,-0.8589,-0.8855,-0.8927,-0.9043,-0.9235,-0.8955,-0.7987,-0.6542,-0.5445,-0.4502,-0.268,-0.1703,-0.178,-0.1465,-0.0829,-0.0,0.0509,0.1117,0.1617,0.1617,0.1818,0.2219,0.3278,0.411,0.4724,0.573,0.6536,0.7251,0.7032,0.7375,0.8086,0.8656,0.9253,0.9777,0.9579,0.967,0.9724,0.8883,0.9475,1.0661,1.1282,1.1594,1.1717,1.1421,1.0803,1.0499,1.2107,1.247,1.2695,1.3667,1.4046,1.4225,1.4172,1.4624,1.5062,1.5062,1.5355,1.5718,1.6,1.6157,1.6501,1.7334,1.7473,0.0,1.9261,1.9328,1.9507,2.0035,2.0573,2.0798,2.0709,2.1107,2.1354,2.1181,2.1221,2.1158,2.1031,2.07,2.0183,1.9605,1.8834,1.8566,0.0,0.0,0.0,0.0,0.0,0.0,0.0,0.0,0.0,0.0,0.0,0.0,0.0,0.0,0.0,0.0,0.0,0.0,0.0,0.0,0.0,0.0,0.1403,0.2435,0.3657,0.089,-0.2801,-0.7199,-0.7779,-0.811,-0.8992,-0.922,-0.9264,-0.925,-0.9477,-0.9371,-0.8831,-0.7009,-0.5785,-0.5372,-0.2527,-0.1045,-0.1027,-0.1027,-0.0306,0.1009,0.1414,0.1919,0.2526,0.2724,0.2924,0.0,0.4728,0.5531,0.5944,0.7168,0.7937,0.0,0.0,0.0,0.0,0.0,0.9946,1.0202,1.0197,1.0419,1.0406,0.9484,1.0542,1.216,1.1605,1.1712,1.2055,1.1994,1.1456,1.1241,1.2811,1.3286,1.36,1.4418,1.4713,1.4784,1.4641,1.507,1.5426,1.5346,1.5912,0.0,1.6333,1.6473,1.6936,1.7808,1.8311,1.901,2.0281,2.0482,2.0797,2.1344,2.1815,2.1922,2.17,2.1843,0.0,0.0,0.0,2.1094,2.0967,2.07,0.0,0.0,0.0,1.8844,1.8942,0.0,0.0,0.0,1.8577,1.873,0.0,0.0,0.0,0.0,0.0,0.0,0.0,0.0,0.0,0.0,0.0,0.0,0.0,0.0,0.0,0.0,0.1524,0.2282,0.3252,0.0365,-0.3014,-0.6205,-0.7671,-0.8635,-0.9104,-0.9119,-0.9122,-0.9122,-0.9459,-0.9459,-0.901,0.0,0.0,0.0,0.0,0.0103,0.0404,0.0404,0.1211,0.2623,0.2825,0.3226,0.3927,0.4318,0.4508,0.4694,0.6349,0.726,0.7726,0.873,0.9319,0.9571,0.8785,0.8903,0.9515,1.0351,1.0595,1.059,1.1101,0.0,0.0,1.0528,1.1897,1.3722,1.3502,1.2512,1.1707,1.3264,1.3075,1.2712,1.3665,1.4266,1.4713,1.4784,1.5062,1.5204,1.4856,1.5363,1.5797,1.5709,1.6455,1.707,1.6872,1.7207,1.7753,1.8273,1.9233,2.0308,2.1376,2.1673,2.2076,2.2765,0.0,0.0,2.2777,2.2352,2.2065,2.2019,2.1537,2.1088,2.07,2.07,2.0377,1.9736,1.9671,1.9473,1.9142,1.8993,1.891,1.8971,1.8765,1.901,0.0,0.0,0.0,0.0,0.0,0.0,0.0,0.0,0.0,0.0,0.0,0.0,0.0,0.0,0.0,0.367,0.2597,0.1595,0.0842,0.0094,-0.2203,-0.7132,-0.7175,-0.7191,-0.8262,-0.8381,-0.8286,-0.8302,-0.8414,-0.7083,-0.3953,-0.3432,0.0,-0.0405,0.0405,0.1417,0.2523,0.3026,0.3428,0.3731,0.0,0.0,0.4438,0.4916,0.5352,0.5934,0.7297,0.8341,0.9071,0.9748,1.0353,1.0696,1.0304,1.0202,1.0443,1.0964,1.1153,1.1126,1.1288,1.1284,1.1443,1.2518,1.3961,1.5059,1.3644,1.3233,0.0,1.3623,1.3572,1.3665,1.484,1.5133,1.5204,1.5709,1.585,1.5921,1.585,1.5991,1.6342,1.6932,1.7198,1.7541,1.8297,1.8432,1.8785,1.9369,2.0196,2.127,2.2806,2.3001,2.3231,2.3856,2.4057,2.3883,2.3328,2.3468,2.3304,2.2559,2.2065,2.1594,2.1117,2.1094,2.0903,2.0442,2.0107,1.9857,1.9473,1.9583,1.9741,2.0081,1.9404,1.9252,0.0,0.0,0.0,0.0,0.0,0.0,0.0,0.0,0.0,0.0,0.0,0.1998,0.0,0.0,0.4696,0.451,0.3421,0.3145,0.4551,0.3425,0.0769,-0.35,-0.5888,-0.676,-0.576,-0.566,-0.5455,-0.484,-0.4739,-0.3696,-0.1528,-0.0,0.1423,0.2922,0.3123,0.3627,0.4535,0.4431,0.4531,0.4832,0.499,0.5431,0.6152,0.6661,0.7348,0.8199,0.9405,1.0051,1.0305,1.0692,1.0985,1.1308,1.1015,1.0958,1.0969,1.1366,1.1211,1.0958,1.0928,1.206,1.3648,1.4401,1.4965,1.5259,1.4309,1.4008,1.4027,1.4474,1.4466,1.453,1.563,1.585,1.585,1.6132,1.6202,1.6202,1.6202,1.6542,1.701,1.7491,1.8142,1.867,1.89,1.9764,2.0553,2.0689,2.1523,2.2522,2.3647,2.3893,2.3985,2.4166,2.449,2.4469,2.3987,2.4003,2.3686,2.2923,2.259,2.2324,2.1927,2.1916,2.1795,2.1397,2.1252,2.0839,2.0296,2.0392,2.0414,2.042,1.9991,2.0042,0.0,0.0,0.0,0.0,0.0,0.0,0.0,0.0,0.3919,0.2624,0.2423,0.2861,0.4148,0.4683,0.5018,0.5132,0.4414,0.5079,0.8836,0.7406,0.497,0.2369,-0.2692,-0.5016,-0.2899,-0.2597,-0.1996,-0.0798,-0.0399,0.02,0.0901,0.3416,0.4832,0.5133,0.5436,0.5741,0.6139,0.5629,0.5518,0.5904,0.61,0.6702,0.7889,0.8707,0.9543,1.0409,1.1421,1.1762,1.1505,1.1516,1.1661,1.1723,1.1642,1.1473,1.139,1.1478,1.1192,1.0847,1.1564,1.3676,1.6021,1.5839,1.5561,1.5234,1.5145,1.4832,1.4593,1.5417,1.5401,1.5376,1.6123,1.6342,1.6342,1.6342,1.6482,1.6542,1.6542,1.7217,1.7881,1.8172,1.9145,1.9901,1.969,2.1184,2.2203,2.1691,2.2669,2.3626,2.4204,2.4418,2.4418,2.4345,2.4634,2.4778,2.4706,2.4378,2.392,2.3267,2.3175,2.3049,2.2753,2.2753,2.2548,2.2285,2.2217,2.186,2.1199,2.1225,2.1126,2.077,2.0792,2.0968,0.837,0.719,0.6418,0.7716,0.6371,0.4821,0.0,0.0,0.3541,0.3035,0.3322,0.3636,0.3651,0.4726,0.5936,0.6694,0.6081,0.6192,0.8326,0.9379,0.9732,0.9366,0.471,0.0902,-0.0702,-0.03,0.07,0.2504,0.2993,0.399,0.6029,0.7036,0.7132,0.6224,0.6224,0.6528,0.7039,0.7232,0.727,0.7255,0.8186,0.8687,0.8671,1.0362,1.131,1.1456,1.2496,1.279,1.2409,1.2499,1.2385,1.2147,1.2437,1.2104,1.155,1.1414,1.1272,1.1714,1.5028,1.6418,1.6639,1.5978,1.6065,1.6245,1.5814,1.585,1.6053,1.6202,1.6202,1.6193,1.6464,1.6403,1.6342,1.6542,1.7088,1.7569,1.7569,1.8365,1.9299,1.9966,2.0344,2.0876,2.1885,2.2659,2.2728,2.1746,2.2797,2.3886,2.4432,2.4502,2.4574,2.4718,2.4921,2.5111,2.517,2.4933,2.4543,2.4151,2.3827,2.3409,2.298,2.2821,2.2673,2.2605,2.2354,2.2148,2.2079,2.2138,2.2121,2.206,2.2115,2.1711,0.7673,0.6981,0.0,0.0,0.6463,0.5825,0.5706,0.5343,0.4914,0.4454,0.4301,0.4568,0.5459,0.5944,0.6695,0.0,0.7678,0.7936,1.0351,1.0376,1.045,1.1049,0.8682,0.6667,0.5795,0.5472,0.5704,0.6588,0.7137,0.7585,0.8219,0.8528,0.8571,0.8275,0.8275,0.8474,0.8867,0.8964,0.8929,0.896,0.9495,1.0035,1.0582,1.151,1.2347,1.3093,1.3451,1.3411,1.3123,1.2898,1.2621,1.2267,1.1941,1.159,1.1443,1.2647,1.2234,1.1424,1.3006,1.4999,1.6821,1.6528,1.6387,1.6316,1.6132,1.6263,1.6473,1.6473,1.6612,1.6821,1.6959,1.7295,1.7628,1.7687,1.822,1.8747,1.8747,1.942,2.0139,2.0473,2.1172,2.1858,2.2427,2.3266,2.3661,2.3087,2.3746,2.4389,2.4611,2.4778,2.4909,2.504,2.5123,2.5182,2.5312,2.5182,2.5028,2.4801,2.4649,2.4343,2.3863,2.3781,2.371,2.3569,2.3427,2.3285,2.2988,2.3045,2.2915,2.2706,2.2754,2.252,0.7556,0.0,0.0,0.6583,0.6497,0.6457,0.6215,0.6173,0.6105,0.5868,0.5604,0.577,0.6991,0.723,0.7699,0.9054,0.9157,0.9769,1.1817,1.1216,1.0923,1.164,1.0924,1.0587,1.0945,0.9966,0.9366,0.963,1.0336,1.0513,0.9925,0.9988,1.0112,1.0121,1.0026,1.0121,1.031,1.0216,1.0283,1.0407,1.0749,1.1451,1.2511,1.2924,1.3484,1.4178,1.4124,1.3865,1.3527,1.3233,1.2913,1.2486,1.2084,1.2069,1.248,1.4587,1.4325,1.2997,1.2904,1.4738,1.7088,1.707,1.6885,1.6621,1.6621,1.676,1.6821,1.6821,1.7028,1.7314,1.7314,1.791,1.8509,1.8509,1.9156,1.9803,1.9803,2.0398,2.0985,2.0985,2.1894,2.2704,2.2847,2.3673,2.4372,2.4376,2.4661,2.4921,2.4861,2.5052,2.5182,2.5312,2.5182,2.5182,2.5312,2.5312,2.5241,2.5182,2.5111,2.4981,2.4706,2.4562,2.4418,2.4273,2.42,2.4055,2.3751,2.3751,2.3604,2.3298,2.3224,2.315,0.8571,0.0,0.7236,0.7301,0.6456,0.5766,0.6652,0.6734,0.6636,0.6837,0.7078,0.7343,0.7356,0.8253,0.9069,0.9079,1.0523,1.1638,1.173,1.2068,1.2326,1.2338,1.1513,1.1537,0.0,1.1342,1.0357,1.0634,1.1849,1.2329,1.187,1.2048,1.1951,1.1487,1.1216,1.1124,1.1124,1.0939,1.1014,1.1599,1.2203,1.3021,1.3937,1.488,1.4903,1.4293,1.4462,1.4036,1.3328,1.3606,1.3383,1.2926,1.3726,1.4413,1.5278,1.7223,1.7824,1.7729,1.7389,1.7439,1.7596,1.7489,1.747,1.747,1.747,1.747,1.747,1.747,1.747,1.747,1.747,1.7988,1.8509,1.8509,1.9552,2.059,2.059,2.1262,2.1862,2.1862,2.248,2.3147,2.3652,2.4181,2.4699,2.5204,2.53,2.5241,2.5111,2.5182,2.5312,2.5312,2.5312,2.5312,2.5312,2.5312,2.5312,2.5312,2.5182,2.5111,2.5111,2.4706,2.449,2.4502,2.4273,2.4189,2.4189,2.4189,2.42,2.4116,2.3751,2.3593,0.8906,0.0,0.8463,0.8038,0.7429,0.7095,0.7874,0.7854,0.7841,0.8468,0.8378,0.8471,0.9044,0.9414,1.0061,1.1259,1.178,1.2351,1.3443,1.3554,1.3561,1.3866,1.3499,0.0,0.0,0.0,0.0,1.2928,1.3381,1.3489,1.3138,1.298,1.2713,1.2529,1.2529,1.235,1.217,1.2075,1.2377,1.2973,1.4084,1.4851,1.5205,1.5721,1.5625,1.5061,1.4834,1.4471,1.4074,1.3712,1.3482,1.3584,1.6351,1.7599,1.7862,1.8222,1.8398,1.8398,1.7978,1.7743,1.7577,1.7558,1.7548,1.7598,1.8056,1.8182,1.825,1.87,1.889,1.9023,1.9023,1.9617,2.0215,2.0215,2.0933,2.1663,2.1663,2.1925,2.2123,2.2123,2.2895,2.3622,2.3857,2.4538,2.5107,2.5288,2.5312,2.5312,2.5241,2.5241,2.5312,2.5312,2.5312,2.5312,2.5312,2.5312,2.5312,2.5312,2.5241,2.5182,2.5123,2.4981,2.4766,2.4502,2.4418,2.4345,2.42,2.42,2.42,2.42,2.4043,2.397,0.9771,0.9907,0.9974,0.9008,0.8669,0.8651,0.8808,0.8927,0.908,0.9519,0.9559,0.964,1.0025,1.0514,1.1189,1.2303,1.2697,1.3238,1.445,1.4418,1.4385,1.488,1.4785,1.4955,0.0,0.0,0.0,1.4487,1.4429,1.4272,1.4108,1.3679,1.3504,1.3504,1.3324,1.3231,1.3386,1.3219,1.3553,1.4467,1.5598,1.6155,1.6023,1.6315,1.6057,1.5391,1.5213,1.4715,1.4225,1.5155,1.5487,1.5738,1.8135,1.9026,1.893,1.8657,1.858,1.859,1.8368,1.8076,1.7891,1.7891,1.7881,1.8008,1.871,1.89,1.9023,1.9672,1.9998,2.0063,2.0063,2.0655,2.125,2.125,2.1839,2.2383,2.2383,2.2383,2.2383,2.2383,2.3086,2.3745,2.3811,2.4609,2.5305,2.5499,2.5535,2.5453,2.5312,2.5382,2.5382,2.5312,2.5312,2.5312,2.5312,2.5312,2.5312,2.5312,2.5312,2.5241,2.5182,2.5111,2.4981,2.4706,2.4634,2.4562,2.4418,2.4418,2.4418,2.4418,2.4418,2.4418,1.1182,1.1487,1.1625,1.018,1.0238,1.0373,0.9649,0.9959,1.0384,1.023,1.062,1.0804,0.0,0.0,1.2443,1.2244,1.3317,1.422,1.4593,1.4641,1.4832,0.0,0.0,0.0,0.0,0.0,0.0,1.5508,0.0,1.4734,1.4734,1.4328,1.4173,1.4166,1.3737,1.3971,1.4782,1.4371,1.4706,1.5779,1.6781,1.6926,1.6482,1.6706,1.6321,1.5307,1.5479,1.4961,1.4198,1.7665,1.9132,1.9185,1.9117,1.8985,1.8735,1.8735,1.8637,1.8617,1.8714,1.8714,1.8549,1.8482,1.8549,1.8741,1.9441,1.9694,1.9824,2.0526,2.0719,2.0719,2.0719,2.1175,2.1678,2.1678,2.2211,2.269,2.269,2.2739,2.2739,2.2678,2.3207,2.3601,2.3663,2.4591,2.5444,2.5963,2.6037,2.5898,2.5453,2.5523,2.5606,2.537,2.5382,2.5382,2.5312,2.5312,2.5312,2.5312,2.5312,2.5312,2.5312,2.5182,2.5111,2.5123,2.4921,2.479,2.479,2.479,2.479,2.479,2.479,2.479,1.2125,1.2366,1.2429,1.1903,1.1685,1.1663,1.176,1.167,1.1631,1.1597,1.1828,1.1904,0.0,0.0,0.0,1.3695,1.4006,0.0,1.535,1.5513,0.0,1.5711,0.0,1.622,1.6784,1.6528,0.0,0.0,1.5837,1.5484,1.5484,1.4901,1.4741,1.5242,1.5151,1.5387,1.5944,1.6355,1.669,1.6944,1.7857,1.7935,1.7386,1.745,1.6811,1.5762,1.7134,1.8262,1.9297,1.9645,1.9828,1.9822,1.9666,1.9589,1.947,1.9106,1.9274,1.9715,1.9726,1.9584,1.9243,1.8674,1.9187,2.0085,2.0268,2.0719,2.1239,2.1963,2.2161,2.2161,2.2161,2.2285,2.242,2.242,2.2555,2.269,2.269,2.3078,2.3245,2.28,2.3978,2.5269,2.5902,2.6789,2.742,2.7445,2.7524,2.7324,2.6458,2.6402,2.6402,2.6333,2.6333,2.6126,2.5606,2.5535,2.5453,2.5312,2.5312,2.5312,2.5312,2.5241,2.5182,2.5123,2.5052,2.4921,2.479,2.479,2.479,2.479,2.479,2.479,1.3816,1.3811,1.3769,1.3155,1.3174,1.3233,1.2859,1.2959,1.3033,1.2821,1.2844,0.0,1.2473,0.0,0.0,0.0,0.0,0.0,1.5541,1.5834,1.6069,0.0,1.6654,0.0,1.7353,1.7312,1.7189,0.0,1.6381,1.5924,1.5924,1.5816,1.5884,1.6221,1.6378,1.6698,1.7245,1.7917,1.8143,1.8092,1.8324,1.8309,1.8143,1.7585,1.6942,1.6442,0.0,2.0253,2.113,2.0545,2.0303,2.0281,2.002,2.0085,2.0259,1.9977,2.0279,2.073,2.073,2.0846,2.0771,1.9901,2.0161,2.0921,2.129,2.1678,2.2125,2.2896,2.309,2.309,2.3042,2.2982,2.2982,2.2909,2.2848,2.2969,2.3258,2.3795,2.4266,2.4477,2.5402,2.6436,2.7117,2.7664,2.8002,2.8206,2.8298,2.8233,2.7855,2.7591,2.7324,2.7271,2.7258,2.7136,2.6663,2.6663,2.6595,2.6514,2.6364,2.6239,2.5906,2.5779,2.5594,2.5182,2.5182,2.5111,2.5052,2.5052,2.5052,2.5052,2.5052,2.5052,1.5702,1.5592,1.5247,1.4297,1.4556,1.4775,1.3588,1.3972,1.4477,1.3987,0.0,1.3605,1.3296,1.3408,1.357,1.3504,0.0,1.4884,1.5443,1.5843,1.6272,1.6947,1.732,1.7654,1.7905,1.8136,1.8047,1.7501,1.6764,1.6387,1.6357,1.6726,1.6944,1.7057,1.7363,1.778,1.847,1.8979,1.9158,1.8995,1.8563,1.8581,1.8864,1.7823,1.7417,1.7627,0.0,0.0,2.1139,2.0783,2.0607,2.0649,2.0388,2.0602,2.1037,2.0974,2.129,2.1741,2.1741,2.2175,2.2543,2.1502,2.1313,2.1565,2.2237,2.2494,2.2677,2.3378,2.3628,2.3569,2.3463,2.3463,2.339,2.3198,2.3258,2.3424,2.4002,2.4682,2.5588,2.6922,2.7179,2.7371,2.7886,2.8044,2.8208,2.8743,2.8748,2.8953,2.9421,2.8839,2.8312,2.8182,2.8182,2.8117,2.8051,2.8051,2.8051,2.7986,2.7841,2.7419,2.6828,2.6663,2.6264,2.5639,2.5569,2.5569,2.5639,2.5569,2.5569,2.5639,2.5511,2.5453,1.7038,1.6734,1.6307,1.6158,1.5713,1.5294,1.505,1.5231,0.0,0.0,1.4853,1.4628,1.4393,1.4249,1.4264,1.4515,0.0,0.0,0.0,0.0,1.5919,0.0,0.0,0.0,0.0,0.0,0.0,0.0,0.0,1.743,1.7293,1.6651,1.6686,1.7538,1.8161,1.8703,1.9114,1.9041,1.9168,1.9577,1.9733,1.9848,1.9944,1.975,1.9963,2.0501,2.0994,0.0,2.1217,2.1122,2.1296,2.1651,2.1325,2.1502,2.1854,2.1604,2.1854,2.2408,2.2408,2.2859,2.3245,2.1928,2.2249,2.3065,2.2665,2.2919,2.3437,2.3569,2.3628,2.3569,2.3569,2.3569,2.3569,2.3497,2.3897,2.4292,2.4408,2.5368,2.6685,2.8403,2.8644,2.8796,2.9341,2.9836,3.0122,3.0222,3.0251,3.0251,3.0387,2.9623,2.9107,2.9107,2.9044,2.8839,2.8247,2.8182,2.8117,2.7986,2.7986,2.792,2.7776,2.7577,2.7419,2.7298,2.7191,2.7191,2.7285,2.7191,2.7191,2.7298,2.6526,2.6277,1.7955,1.7564,1.709,1.7382,1.6827,1.6208,1.6208,0.0,0.0,0.0,1.5833,1.5598,1.569,1.5369,0.0,0.0,0.0,0.0,0.0,0.0,0.0,0.0,0.0,0.0,0.0,0.0,0.0,0.0,0.0,0.0,1.7336,1.7503,1.7899,1.8627,1.9277,1.9667,1.9792,1.9837,2.0103,2.0607,2.0493,2.0704,2.1237,2.105,2.1091,2.1236,2.1342,0.0,2.1642,2.1624,2.1815,2.2237,2.2113,2.231,2.2763,2.258,2.2871,2.3352,2.3352,2.3616,2.3747,2.3113,2.3245,2.3569,2.3365,2.3497,2.376,2.3819,2.3865,2.3923,2.4131,2.4176,2.4234,2.4452,2.5007,2.5633,2.6256,2.7145,2.8254,2.9842,3.0103,3.0145,3.0269,3.0507,3.0702,3.0628,3.0568,3.0568,3.0568,3.0251,3.0007,3.0007,3.0007,2.9794,2.947,2.947,2.9407,2.9345,2.9282,2.903,2.8712,2.8478,2.822,2.7841,2.7789,2.7789,2.7841,2.7789,2.7789,2.7841,2.7458,2.7271,1.9022,1.8608,1.8057,1.8351,1.78,1.7168,1.7112,1.7022,0.0,0.0,1.6729,1.6549,1.6821,0.0,1.5958,0.0,1.63,0.0,0.0,0.0,0.0,0.0,0.0,0.0,0.0,0.0,0.0,0.0,0.0,0.0,1.737,1.8379,1.9102,1.9534,1.9909,2.0151,2.0386,2.0535,2.0823,2.1374,2.1139,2.1438,2.2178,2.1871,2.1651,2.1518,2.1702,0.0,0.0,2.231,2.2531,2.2967,2.2895,2.316,2.3628,2.3569,2.3819,2.4157,2.4157,2.4229,2.4287,2.439,2.4099,2.3747,2.4054,2.4112,2.4171,2.439,2.4434,2.4549,2.4851,2.4951,2.5063,2.5563,2.6167,2.696,2.8208,2.8963,2.977,3.0954,3.1132,3.1073,3.094,3.0881,3.0821,3.0702,3.0702,3.0702,3.0702,3.0702,3.0642,3.0642,3.0642,3.0568,3.0568,3.0568,3.0568,3.0568,3.0447,3.0129,2.9623,2.9407,2.9016,2.8505,2.8441,2.8441,2.8505,2.8441,2.8441,2.8505,2.8312,2.8247,2.0883,2.0325,1.9758,1.9333,1.8515,1.7754,1.7435,0.0,1.8298,1.7755,1.7667,1.7633,1.7257,1.6641,1.6244,1.6301,1.6285,1.6471,0.0,0.0,0.0,0.0,0.0,0.0,0.0,0.0,0.0,0.0,0.0,0.0,0.0,1.8672,1.9211,1.9312,1.9368,1.9825,2.0658,2.0303,2.0573,2.1438,2.1846,2.2133,2.2169,2.1949,2.2063,2.247,2.247,0.0,0.0,2.3361,2.3669,2.4105,2.38,2.3975,2.435,2.4157,2.4203,2.4465,2.4465,2.465,2.5005,2.5356,2.4808,2.4171,2.4734,2.4892,2.4991,2.5522,2.5632,2.5632,2.5673,2.5673,2.5837,2.6457,2.7118,2.7904,2.9183,2.9958,3.0586,3.1332,3.1351,3.1292,3.1292,3.1132,3.1087,3.1073,3.1073,3.1073,3.1073,3.0895,3.0762,3.0762,3.0702,3.0568,3.0568,3.0568,3.0568,3.0568,3.0568,3.0507,3.0507,3.0312,3.0129,3.0054,2.996,2.996,3.0054,2.9974,2.996,3.0054,2.9268,2.9016,2.1261,2.0875,2.0292,2.042,1.9509,1.8536,1.8471,0.0,1.8459,1.8506,1.8548,1.8483,1.8224,1.7952,1.7722,1.7457,1.739,1.7387,1.7451,0.0,0.0,0.0,0.0,0.0,0.0,0.0,0.0,0.0,0.0,0.0,0.0,1.9458,1.9575,1.9573,2.0333,2.0797,2.0967,2.1241,2.192,2.2946,2.319,2.3416,2.3675,2.333,2.3195,2.3314,2.3314,0.0,0.0,2.3975,2.4279,2.4708,2.4838,2.5007,2.5175,2.5329,2.5439,2.5536,2.5536,2.5605,2.5728,2.5932,2.5714,2.5384,2.5673,2.5728,2.5769,2.5863,2.5918,2.5986,2.6283,2.6602,2.7033,2.7705,2.8068,2.8595,2.9854,3.0328,3.0717,3.1405,3.1467,3.1509,3.1766,3.1766,3.1751,3.2018,3.2059,3.2059,3.2059,3.2003,3.1931,3.1931,3.1116,3.0568,3.0568,3.0568,3.0568,3.0568,3.0568,3.0568,3.0568,3.0507,3.0507,3.0507,3.0462,3.0462,3.0507,3.0462,3.0462,3.0447,3.0115,2.9993,2.1334,2.1278,2.1,2.1259,2.054,1.9786,0.0,0.0,1.9178,1.9319,1.9466,1.9495,1.9281,1.936,1.9245,1.8655,1.8522,1.8359,1.7944,0.0,0.0,0.0,0.0,0.0,0.0,0.0,0.0,0.0,0.0,0.0,0.0,2.0473,2.0473,2.0409,2.1239,2.162,2.149,2.197,2.2836,2.4177,2.4432,2.4633,2.4731,2.4229,2.4137,2.4355,0.0,0.0,0.0,2.5106,2.5342,2.5632,2.5837,2.5946,2.5946,2.6133,2.624,2.6347,2.6347,2.64,2.6505,2.6625,2.6678,2.6678,2.6834,2.6663,2.6453,2.6573,2.6573,2.6678,2.6982,2.7556,2.8096,2.8576,2.9087,2.966,3.0332,3.0879,3.1353,3.1658,3.187,3.2104,3.2407,3.2461,3.2485,3.2795,3.2848,3.2848,3.2848,3.2795,3.2795,3.2795,3.1819,3.1116,3.097,3.0911,3.0851,3.0628,3.0568,3.0568,3.0568,3.0568,3.0568,3.0568,3.0568,3.0568,3.0568,3.0568,3.0642,3.0642,3.0642,3.0702,2.1332,2.1693,2.2077,2.167,2.1561,2.15,0.0,2.1197,2.0966,2.0244,2.0526,2.0747,2.037,2.0705,2.0765,1.9773,1.9579,1.9246,1.8219,0.0,0.0,0.0,0.0,0.0,0.0,0.0,0.0,0.0,0.0,0.0,0.0,2.1741,2.199,2.1877,2.1877,2.2104,2.2471,2.2325,2.2979,2.454,2.5409,2.5561,2.4847,2.4287,2.457,0.0,0.0,0.0,0.0,2.7071,2.7071,2.7071,2.6782,2.6678,2.6625,2.6347,2.64,2.6678,2.6678,2.6849,2.7174,2.7625,2.779,2.784,2.825,2.776,2.7225,2.779,2.7955,2.7955,2.797,2.8505,2.894,2.8837,3.0241,3.1325,3.052,3.1821,3.2993,3.2226,3.2672,3.3182,3.3198,3.3198,3.3182,3.3182,3.3182,3.3182,3.3182,3.3093,3.2986,3.2986,3.281,3.2415,3.1736,3.1679,3.1349,3.0628,3.0568,3.0568,3.0568,3.0568,3.0568,3.0568,3.0568,3.0568,3.0568,3.0568,3.0702,3.0821,3.0821,3.0895,2.4315,2.451,2.4427,2.4566,2.4112,2.3615,2.3601,2.3336,2.3031,2.2853,2.2661,2.251,2.2497,2.2285,2.1789,2.0813,2.0618,2.0229,0.0,0.0,0.0,0.0,0.0,0.0,0.0,0.0,0.0,0.0,0.0,0.0,0.0,2.3677,2.3644,2.2701,2.272,2.3048,2.3817,2.3787,2.4439,2.5673,2.5814,2.5952,2.599,2.5811,0.0,0.0,0.0,0.0,0.0,2.7122,2.7122,2.7122,2.7342,2.7458,2.7458,2.7645,2.776,2.786,2.786,2.8125,2.8496,2.8654,2.8889,2.9212,2.9319,2.8716,2.8073,2.8494,2.8764,2.8966,2.8966,2.947,3.0148,3.0572,3.1476,3.2193,3.1887,3.2222,3.251,3.2269,3.2361,3.2764,3.3684,3.3815,3.3968,3.4317,3.4366,3.4366,3.4366,3.4301,3.4317,3.4317,3.4251,3.37,3.247,3.236,3.2305,3.2028,3.2028,3.1972,3.1875,3.1564,3.1306,3.1204,3.0925,3.0762,3.0762,3.0895,3.0955,3.1014,3.1014,3.1014,2.6518,2.6467,2.6413,2.6725,2.6333,0.0,2.5834,2.5422,2.5047,2.5011,2.4583,2.425,2.4402,2.4097,2.3554,2.2498,2.2115,2.1577,0.0,0.0,0.0,0.0,0.0,0.0,0.0,0.0,0.0,0.0,0.0,0.0,0.0,0.0,2.47,2.3989,2.3707,2.4019,2.4844,2.4722,2.5397,2.6788,2.6587,2.6683,2.6967,2.6916,0.0,0.0,0.0,0.0,0.0,2.7595,2.768,2.7864,2.8189,2.8398,2.8574,2.8826,2.8936,2.8936,2.8936,2.909,2.9348,2.9348,2.9572,2.9793,2.9793,2.9409,2.8967,2.9182,2.9393,2.9605,2.9878,3.0502,3.1194,3.1855,3.2724,3.3291,3.2869,3.3113,3.3324,3.308,3.3145,3.3484,3.4317,3.4448,3.4497,3.4851,3.4899,3.4899,3.4899,3.4899,3.4899,3.4899,3.4899,3.4513,3.3598,3.3255,3.2992,3.2725,3.2671,3.2671,3.2579,3.2266,3.2059,3.1946,3.1679,3.1507,3.1507,3.1495,3.1394,3.119,3.1249,3.1249,0.0,2.7988,2.8206,2.8348,0.0,0.0,2.7994,2.751,0.0,2.68,2.6427,2.613,2.6086,2.6141,2.5795,2.4629,2.3983,0.0,0.0,0.0,0.0,0.0,0.0,0.0,0.0,0.0,0.0,0.0,0.0,0.0,0.0,0.0,2.5369,2.575,2.5066,2.5067,2.5765,2.5434,2.6093,2.7816,2.7575,2.755,2.7705,2.759,0.0,0.0,0.0,0.0,0.0,2.8493,2.8748,2.9166,2.9166,2.9393,2.9793,2.9793,2.9793,2.9793,2.9793,2.9793,2.9837,2.9897,2.9881,2.9881,2.9881,2.9881,2.9837,2.9837,2.9881,3.0087,3.0786,3.1502,3.2154,3.2773,3.3859,3.4525,3.3592,3.4349,3.5006,3.4348,3.4647,3.5038,3.5088,3.5044,3.4949,3.4899,3.4949,3.4965,3.4899,3.4899,3.4899,3.4899,3.4899,3.4899,3.4899,3.4284,3.3582,3.2886,3.2833,3.2833,3.2833,3.2779,3.2779,3.2779,3.2741,3.2725,3.2725,3.2391,3.1921,3.1452,3.1567,3.164,3.2924,0.0,3.0953,3.1303,3.0973,3.0554,0.0,2.9922,2.9395,2.9328,2.8925,2.845,2.8025,2.8105,2.7504,2.5273,2.5118,0.0,0.0,0.0,0.0,0.0,0.0,0.0,0.0,0.0,0.0,0.0,0.0,0.0,0.0,0.0,2.745,2.7274,2.759,2.7635,2.728,2.7415,2.767,2.8012,2.7496,2.7457,2.7797,2.7736,0.0,0.0,0.0,0.0,2.9524,2.9483,2.9544,2.9633,2.9633,2.9705,2.9793,2.9793,2.9793,2.9793,2.9793,3.0054,3.0393,3.0757,3.0878,3.0878,3.0878,3.0617,3.0351,3.0351,3.0576,3.1046,3.1767,3.2521,3.3215,3.3935,3.4779,3.5177,3.4376,3.4421,3.4566,3.4303,3.4348,3.4576,3.5144,3.5618,3.5706,3.5124,3.5428,3.5545,3.4965,3.4899,3.4899,3.4899,3.4899,3.4899,3.4899,3.4723,3.4561,3.4399,3.4399,3.435,3.4251,3.3802,3.3463,3.3375,3.3077,3.2971,3.3077,3.2971,3.2879,3.2772,3.2772,3.2826,3.4805,3.3858,3.2957,3.3176,3.2918,3.2576,3.2402,3.206,3.1672,3.1351,0.0,3.0353,2.9829,2.9461,2.8737,2.7173,2.6675,0.0,0.0,0.0,0.0,0.0,0.0,0.0,0.0,0.0,0.0,0.0,0.0,0.0,0.0,0.0,2.8528,2.8028,2.8758,2.8856,2.8273,2.8667,2.881,2.8763,2.8252,2.8168,2.8458,2.8152,2.8174,0.0,0.0,0.0,2.8942,2.9316,2.9505,2.9681,3.0035,3.0267,3.0452,3.0452,3.0452,3.0452,3.0452,3.0723,3.1145,3.162,3.1731,3.1731,3.1731,3.1565,3.1304,3.0942,3.1015,3.1444,3.2527,3.3102,3.3677,3.4759,3.5318,3.5504,3.5098,3.4986,3.4941,3.4908,3.4852,3.5014,3.5753,3.5844,3.5783,3.5699,3.5638,3.5442,3.5044,3.4947,3.4977,3.5195,3.5241,3.5241,3.5241,3.5241,3.5102,3.4883,3.4899,3.4851,3.4787,3.4464,3.4284,3.4185,3.3986,3.3799,3.3594,3.3594,3.3475,3.3182,3.3182,3.3182,3.5214,3.471,3.4237,3.4317,3.4311,3.4203,3.3863,3.3765,3.3571,0.0,0.0,3.1994,3.1271,3.0623,0.0,0.0,0.0,0.0,0.0,0.0,0.0,0.0,0.0,0.0,0.0,0.0,0.0,0.0,0.0,0.0,0.0,2.9428,2.9253,2.8725,2.9391,2.9615,2.9264,2.9605,2.9672,2.9626,2.9132,2.8966,2.9081,2.8428,2.8053,0.0,0.0,0.0,2.8244,2.8942,2.9473,2.9956,3.0576,3.1027,3.1389,3.1389,3.1389,3.1389,3.1389,3.1582,3.1896,3.2283,3.2419,3.2419,3.2419,3.2419,3.2283,3.16,3.1475,3.1822,3.3093,3.3558,3.4066,3.5416,3.5739,3.5827,3.5827,3.5827,3.5827,3.5827,3.5756,3.5966,3.6695,3.6299,3.6038,3.6544,3.6097,3.5635,3.5518,3.5308,3.54,3.601,3.5885,3.5739,3.5875,3.5773,3.5526,3.5102,3.4977,3.4899,3.4899,3.4899,3.4899,3.4899,3.4899,3.4707,3.4201,3.4201,3.3968,3.3459,3.3459,3.3459,3.5533,3.4964,3.4459,3.4849,3.4832,3.4695,3.464,3.4489,3.4297,0.0,0.0,0.0,0.0,3.2173,0.0,0.0,0.0,0.0,0.0,0.0,0.0,0.0,0.0,0.0,0.0,0.0,0.0,0.0,0.0,0.0,0.0,0.0,3.0434,3.0649,3.0773,3.1019,3.136,3.1022,3.0475,2.9669,2.9227,2.8685,2.8093,2.7992,2.8082,0.0,0.0,2.9242,3.0094,3.0136,3.0751,3.1614,3.1718,3.2021,3.2282,3.2282,3.2282,3.2282,3.2282,3.2316,3.2384,3.2451,3.2484,3.2484,3.2484,3.2484,3.2451,3.2316,3.2704,3.3186,3.3376,3.441,3.5558,3.6077,3.6433,3.6701,3.6701,3.6701,3.6701,3.6701,3.6701,3.6946,3.7731,3.8164,3.8277,3.7739,3.8018,3.8018,3.7361,3.6703,3.6765,3.8139,3.7076,3.6533,3.7103,3.6509,3.6062,3.602,3.5316,3.4899,3.4899,3.4899,3.4899,3.4899,3.4899,3.4851,3.4804,3.4804,3.4739,3.4626,3.4626,3.4675,3.5444,3.5165,3.4958,3.529,3.4979,3.4702,3.5188,3.5207,3.5089,0.0,0.0,0.0,0.0,0.0,0.0,0.0,0.0,0.0,0.0,0.0,0.0,0.0,0.0,0.0,0.0,0.0,0.0,0.0,0.0,0.0,0.0,0.0,3.1793,3.1845,3.1967,3.2196,3.2564,3.2196,3.1478,3.0435,3.0021,2.9403,2.8669,2.8652,2.8745,2.8908,0.0,3.0062,3.0527,3.0951,3.1352,3.1769,3.2209,3.2435,3.2484,3.2484,3.2484,3.2517,3.2763,3.2827,3.2858,3.3075,3.3136,3.3136,3.3136,3.3136,3.3105,3.2908,3.3184,3.3688,3.4039,3.4976,3.601,3.6549,3.6781,3.69,3.69,3.69,3.69,3.69,3.69,3.7286,3.848,3.8228,3.8029,3.8544,3.807,3.769,3.7801,3.7428,3.7696,3.9059,3.8164,3.7597,3.7907,3.7184,3.6586,3.6215,3.5803,3.5509,3.5287,3.5287,3.5148,3.4899,3.4899,3.4947,3.4994,3.5393,3.5623,3.5735,3.6135,3.6319,3.5289,3.5145,3.5069,3.5451,3.5096,3.486,3.5568,3.5717,3.5635,0.0,0.0,0.0,0.0,0.0,0.0,0.0,0.0,0.0,0.0,0.0,0.0,0.0,0.0,0.0,0.0,0.0,0.0,0.0,0.0,0.0,0.0,0.0,3.2795,3.2585,3.2777,3.3001,3.3221,3.3011,3.2264,3.0953,3.064,3.0083,2.9315,2.9298,2.9397,2.9612,3.023,3.0606,3.082,3.1464,3.1773,3.1969,3.2612,3.2844,3.2809,3.2809,3.2809,3.284,3.3154,3.3262,3.3321,3.3625,3.378,3.3834,3.3834,3.3834,3.3762,3.3447,3.3664,3.4097,3.4641,3.5616,3.6594,3.6993,3.7152,3.7208,3.7208,3.7208,3.7208,3.7208,3.7208,3.7651,3.9031,3.8288,3.7898,3.9084,3.8298,3.7817,3.8417,3.843,3.8788,3.9939,3.9195,3.8498,3.832,3.7714,3.7152,3.6643,3.6381,3.613,3.5803,3.582,3.5644,3.5299,3.5253,3.527,3.5304,3.584,3.6226,3.6427,3.6965,3.7366,3.5206,3.4661,3.4295,3.5117,3.5426,3.5569,3.5752,3.5797,0.0,3.5762,0.0,0.0,0.0,0.0,0.0,0.0,0.0,0.0,0.0,0.0,0.0,0.0,0.0,0.0,0.0,0.0,0.0,0.0,0.0,0.0,0.0,0.0,0.0,3.2795,3.3023,3.3216,3.328,3.3262,3.2337,3.0553,3.0499,3.0083,2.928,2.9308,2.9701,3.0409,3.0463,3.0927,3.1612,3.1666,3.2265,3.3171,3.3225,3.3437,3.3707,3.3707,3.3707,3.3707,3.3734,3.3734,3.3734,3.3762,3.3947,3.4173,3.4173,3.4173,3.4173,3.4148,3.4492,3.4877,3.4746,3.6397,3.8032,3.7578,3.781,3.8106,3.8106,3.8106,3.8106,3.8106,3.8106,3.8377,3.9245,3.9299,3.9263,3.9372,3.9896,4.0239,4.0294,4.0294,4.0582,4.1375,4.0077,3.8815,3.8007,3.7882,3.7828,3.7775,3.6943,3.647,3.6429,3.6429,3.6429,3.6388,3.637,3.6197,3.5864,3.5915,3.6101,3.641,3.646,3.6911,3.3834,3.3938,3.4036,3.3469,3.4232,0.0,0.0,3.5495,3.5527,3.5655,3.563,0.0,0.0,0.0,0.0,0.0,0.0,0.0,0.0,0.0,0.0,0.0,0.0,0.0,0.0,0.0,0.0,0.0,0.0,0.0,0.0,0.0,0.0,3.3869,3.3961,3.4012,3.4056,3.4056,3.3432,3.2249,3.1952,3.1383,3.0628,3.1302,3.1763,3.21,3.2736,3.3155,3.3451,3.3451,3.3685,3.4056,3.4056,3.4123,3.4237,3.4237,3.4237,3.4237,3.4237,3.4237,3.4237,3.4237,3.4307,3.4394,3.4394,3.4394,3.4394,3.4394,3.4803,3.5302,3.5617,3.6671,3.7749,3.8008,3.8171,3.8241,3.8225,3.8192,3.8192,3.8192,3.8192,3.8445,3.926,3.8989,3.8808,3.9315,3.9641,3.9985,4.0456,4.0944,4.1343,4.1613,4.0275,3.8974,3.8144,3.809,3.809,3.809,3.7631,3.7246,3.6964,3.6925,3.7018,3.7248,3.6737,3.6713,3.7134,3.7116,3.743,3.8138,3.8605,3.9289,3.334,3.3697,3.3948,3.2954,0.0,0.0,3.4946,3.511,3.5353,3.5782,3.5889,0.0,0.0,0.0,0.0,0.0,0.0,0.0,0.0,0.0,0.0,0.0,0.0,0.0,0.0,0.0,0.0,0.0,0.0,0.0,0.0,0.0,0.0,0.0,3.4266,3.4135,3.4132,3.4132,3.3851,3.3306,3.3236,3.2773,3.2019,3.2757,3.3216,3.3519,3.4199,3.4508,3.4508,3.4508,3.4508,3.4508,3.4508,3.4508,3.4508,3.4508,3.4508,3.4508,3.4508,3.4508,3.4508,3.4508,3.4551,3.4632,3.4632,3.4632,3.4632,3.4632,3.4854,3.5274,3.5951,3.6574,3.7209,3.7849,3.805,3.8109,3.8252,3.8241,3.8225,3.8225,3.8225,3.8355,3.8916,3.8554,3.8407,3.9034,3.9358,3.9738,4.0331,4.1115,4.1517,4.1261,3.999,3.8922,3.8376,3.8241,3.8192,3.8192,3.8072,3.7846,3.7523,3.7523,3.7751,3.8245,3.7694,3.776,3.8513,3.8513,3.886,3.9568,4.0112,4.0762,3.3998,3.3979,3.3998,3.3979,0.0,0.0,3.4293,3.4696,3.537,3.6293,0.0,3.686,3.7075,0.0,0.0,0.0,0.0,0.0,0.0,0.0,0.0,0.0,0.0,0.0,0.0,0.0,0.0,0.0,0.0,0.0,0.0,0.0,0.0,0.0,3.3765,3.331,3.3306,3.3325,3.3325,3.3325,3.4113,3.4076,3.3327,3.3308,3.3759,3.4508,3.4508,3.4508,3.4508,3.4508,3.4508,3.4508,3.4508,3.4508,3.4508,3.4508,3.4508,3.4508,3.4508,3.4508,3.4508,3.4508,3.4674,3.4889,3.4889,3.4889,3.4889,3.4889,3.4694,3.4695,3.548,3.6087,3.6602,3.7071,3.7422,3.7761,3.8295,3.8336,3.8307,3.8307,3.8241,3.8225,3.8225,3.8225,3.8289,3.8554,3.9294,3.9884,4.0166,4.0919,4.1104,4.0269,3.9257,3.8615,3.8615,3.8354,3.8225,3.8225,3.8225,3.8225,3.8192,3.8192,3.8572,3.9387,3.9387,3.9572,3.9935,3.9917,4.0055,4.0401,4.0383,4.0805,3.2403,3.2832,0.0,3.2316,0.0,0.0,0.0,3.4023,0.0,0.0,3.6432,3.6826,0.0,0.0,0.0,0.0,0.0,0.0,0.0,0.0,0.0,0.0,0.0,0.0,0.0,0.0,0.0,0.0,0.0,0.0,0.0,0.0,0.0,0.0,3.4913,3.4477,3.3872,3.4385,3.4432,3.4011,3.4772,3.4791,3.4151,3.4336,3.4546,3.4793,3.4926,3.4981,3.4981,3.4981,3.4981,3.4981,3.4981,3.4981,3.4981,3.4981,3.4981,3.4981,3.4981,3.4981,3.4981,3.4981,3.5053,3.5107,3.5107,3.5107,3.5107,3.5107,3.4945,3.483,3.5075,3.526,3.5638,3.6689,3.7445,3.7955,3.8034,3.8498,3.8924,3.8868,3.8839,3.8828,3.877,3.8741,3.877,3.8857,3.9589,4.0311,4.0974,4.1301,4.1134,4.0298,3.9396,3.8886,3.8886,3.8799,3.8741,3.8741,3.8741,3.8597,3.8225,3.8192,3.8808,4.0148,3.9659,3.9968,4.1158,4.0059,4.0166,4.1292,4.0717,4.1205,3.2335,3.2763,0.0,3.232,3.3012,3.381,3.3482,0.0,0.0,0.0,0.0,0.0,0.0,0.0,0.0,0.0,0.0,0.0,0.0,0.0,0.0,0.0,0.0,0.0,0.0,0.0,0.0,0.0,0.0,0.0,0.0,0.0,0.0,0.0,3.4484,3.4222,3.3677,3.4449,3.4661,3.4311,3.5114,3.5278,3.4956,3.5095,3.5181,3.5181,3.5307,3.5369,3.5369,3.5369,3.5369,3.5369,3.5369,3.5369,3.5369,3.5369,3.5369,3.5369,3.5369,3.5369,3.5369,3.5369,3.5369,3.5369,3.5369,3.5369,3.5355,3.5296,3.5184,3.5086,3.5018,3.5019,3.5249,3.616,3.7075,3.7836,3.7972,3.8658,3.9231,3.9178,3.9152,3.9125,3.909,3.9063,3.909,3.9216,3.9724,4.0255,4.0742,4.0836,4.0656,4.0124,3.9541,3.9189,3.9189,3.9082,3.9008,3.9008,3.9008,3.8857,3.8523,3.8523,3.9273,4.0851,4.0315,4.0812,4.2359,4.098,4.0963,4.2158,4.1361,4.1669,3.3178,3.3334,3.3364,3.3393,3.352,0.0,3.4124,3.4797,3.5664,3.6754,0.0,0.0,0.0,0.0,0.0,0.0,0.0,0.0,0.0,0.0,0.0,0.0,0.0,0.0,0.0,0.0,0.0,0.0,0.0,0.0,0.0,0.0,0.0,0.0,3.3236,3.3169,3.3025,3.3877,3.4303,0.0,3.5213,3.562,3.562,3.5618,3.5607,3.5607,3.5607,3.5607,3.5607,3.5607,3.5607,3.5607,3.5607,3.5607,3.5607,3.5607,3.5607,3.5607,3.5607,3.5607,3.5607,3.5607,3.5607,3.5607,3.5607,3.5607,3.5566,3.5457,3.5476,3.5488,3.5289,3.5337,3.5486,3.5732,3.6566,3.7501,3.8037,3.8807,3.9402,3.9377,3.9333,3.9282,3.9282,3.9231,3.9301,3.9599,3.9857,4.0006,3.9908,3.9965,3.9984,3.9908,3.967,3.9551,3.9551,3.9242,3.909,3.909,3.909,3.909,3.909,3.911,3.9881,4.1479,4.1267,4.1879,4.333,4.2285,4.2141,4.283,4.2086,4.2177,3.2419,3.2716,0.0,3.3316,3.3422,3.3481,3.3577,3.3854,3.4497,0.0,0.0,0.0,0.0,0.0,0.0,0.0,0.0,0.0,0.0,0.0,0.0,0.0,0.0,0.0,0.0,0.0,0.0,0.0,0.0,0.0,0.0,0.0,0.0,3.4197,3.4197,3.386,3.316,3.3923,3.4412,0.0,3.5385,3.5787,3.5827,3.5679,3.5607,3.5607,3.5607,3.5607,3.5607,3.5607,3.5607,3.5607,3.5607,3.5607,3.5607,3.5607,3.5607,3.5607,3.5607,3.5607,3.5607,3.5607,3.5607,3.5607,3.5607,3.5607,3.5588,3.5574,3.6057,3.6404,3.5693,3.6414,3.7179,3.6623,3.7061,3.766,3.7776,3.8994,4.0058,4.0017,3.9998,3.9977,3.9914,3.9892,3.9892,3.9892,4.0523,4.0732,3.9987,4.0517,4.0669,3.9965,3.9845,3.9804,3.9804,3.9739,3.9717,3.9717,3.9717,3.9717,3.9717,3.9904,4.0476,4.1479,4.205,4.2489,4.2828,4.2593,4.2451,4.237,4.215,4.2376,3.2179,3.2818,0.0,3.3864,0.0,3.3422,3.352,3.3615,3.3962,0.0,0.0,0.0,0.0,0.0,0.0,0.0,0.0,0.0,0.0,0.0,0.0,0.0,0.0,0.0,0.0,0.0,0.0,0.0,0.0,0.0,0.0,3.4023,3.4001,3.3932,3.3927,3.3905,3.3868,3.4254,3.4722,3.5271,3.5658,3.5875,3.5899,3.5779,3.5732,3.5732,3.5732,3.5732,3.5732,3.5732,3.5732,3.5732,3.5732,3.5732,3.5732,3.5732,3.5732,3.5732,3.5732,3.5732,3.5732,3.5732,3.5732,3.5732,3.5732,3.6051,3.6276,3.5776,3.627,3.6745,3.5841,3.6509,3.7308,3.6903,3.7275,3.7808,3.8228,3.9049,3.9776,4.0177,4.0253,4.0234,4.0215,4.0157,4.0137,4.0057,4.0437,4.0549,4.0072,4.0374,4.0488,4.0032,3.9994,3.9994,3.9994,3.9994,3.9994,3.9994,3.9994,4.0165,4.0604,4.1137,4.1588,4.1916,4.2193,4.2706,4.3509,4.2992,4.286,4.3061,4.2699,4.2876,3.2144,3.3051,3.3939,3.4141,3.396,0.0,3.3749,3.3816,0.0,0.0,0.0,0.0,0.0,0.0,0.0,0.0,0.0,0.0,0.0,0.0,0.0,0.0,0.0,0.0,0.0,0.0,0.0,0.0,0.0,0.0,3.3743,3.388,3.39,3.3743,3.3888,3.432,3.5042,3.5048,3.5486,3.6347,3.6208,3.606,3.5908,3.5903,3.589,3.5908,3.5908,3.5908,3.5908,3.5908,3.5908,3.5908,3.5908,3.5908,3.5908,3.5908,3.5908,3.5908,3.5908,3.5908,3.5908,3.5908,3.5908,3.5928,3.6084,3.6629,3.7027,3.6188,3.6581,3.702,3.5922,3.6396,3.714,3.714,3.7467,3.8024,3.8887,3.9159,3.9466,4.0193,4.0346,4.0346,4.0346,4.0309,4.0252,4.0196,4.0196,4.0196,4.0158,4.0158,4.0158,4.0158,4.0158,4.0158,4.0138,4.0118,4.0195,4.0326,4.0326,4.0706,4.1584,4.2248,4.2623,4.2644,4.2504,4.3062,4.4304,4.3558,4.3446,4.3882,4.3409,4.3502,3.194,0.0,3.3354,0.0,3.3734,3.4717,0.0,0.0,0.0,0.0,0.0,0.0,0.0,0.0,0.0,0.0,0.0,0.0,0.0,0.0,0.0,0.0,0.0,0.0,0.0,0.0,0.0,0.0,0.0,0.0,3.5542,3.6264,3.6323,3.5578,3.63,3.6746,3.6843,3.6846,3.7298,3.8144,3.7389,3.6633,3.5895,3.5898,3.5909,3.5908,3.5908,3.5908,3.5908,3.5908,3.5908,3.5908,3.5908,3.5908,3.5908,3.5908,3.5908,3.5908,3.5908,3.5908,3.5908,3.5908,3.5908,3.6045,3.6805,3.7116,3.7175,3.7046,3.7631,3.7923,3.6274,3.6977,3.8103,3.8103,3.807,3.8286,3.9168,3.9851,4.0323,4.0438,4.0476,4.0476,4.0476,4.0559,4.0596,4.0535,4.0535,4.0501,4.0453,4.0453,4.0453,4.0453,4.0453,4.0392,4.0283,4.0266,4.0539,4.1184,4.122,4.1582,4.24,4.2533,4.2952,4.3691,4.4353,4.4444,4.3969,4.4516,4.434,4.3484,4.4094,4.4261,3.1924,3.2211,3.2525,0.0,3.3565,3.3935,3.3209,0.0,0.0,0.0,0.0,0.0,0.0,0.0,0.0,0.0,0.0,0.0,0.0,0.0,0.0,0.0,0.0,0.0,0.0,0.0,0.0,0.0,0.0,3.6566,3.6573,3.7397,3.7702,3.7313,3.7196,3.7384,3.7871,3.7384,3.7584,3.8439,3.8081,3.7455,3.6571,3.6604,3.6364,3.589,3.589,3.589,3.5909,3.5903,3.5901,3.5901,3.5932,3.5968,3.5946,3.5908,3.5903,3.5899,3.5899,3.5908,3.5908,3.5908,3.622,3.661,3.6493,3.7155,3.772,3.6746,3.7097,3.7487,3.622,3.6781,3.7805,3.8298,3.8735,3.9293,4.0157,4.0106,4.0036,4.0524,4.0602,4.0602,4.0602,4.0655,4.0694,4.0649,4.0649,4.0649,4.0617,4.0617,4.0617,4.0617,4.0617,4.059,4.0521,4.0945,4.132,4.1646,4.2143,4.2797,4.3626,4.3665,4.4049,4.4895,4.459,4.4475,4.457,4.4976,4.4893,4.4421,4.4805,4.491,0.0,0.0,3.2311,3.3028,3.3522,3.3682,0.0,0.0,0.0,0.0,0.0,0.0,0.0,0.0,0.0,0.0,0.0,0.0,0.0,0.0,0.0,0.0,0.0,0.0,0.0,0.0,0.0,0.0,0.0,3.743,3.743,3.8266,3.8732,3.8732,3.8305,3.8382,3.9023,3.8382,3.8288,3.8734,3.8786,3.8327,3.7425,3.7483,3.7156,3.6515,3.6083,3.5893,3.5894,3.5897,3.5898,3.5898,3.5957,3.5975,3.5995,3.6144,3.6213,3.6267,3.6485,3.6551,3.6567,3.6553,3.685,3.7128,3.6689,3.7313,3.7908,3.6601,3.6694,3.6996,3.6138,3.6562,3.7428,3.8285,3.9162,4.0033,4.087,4.0383,3.9948,4.059,4.0718,4.0742,4.0742,4.0765,4.0807,4.0807,4.0807,4.0807,4.0807,4.0807,4.0807,4.0807,4.0807,4.0796,4.0742,4.149,4.2039,4.2215,4.3047,4.3898,4.4755,4.4794,4.5084,4.5684,4.4821,4.4629,4.5197,4.5239,4.5258,4.5233,4.5275,4.5297,0.0,3.2805,0.0,3.2523,3.3733,0.0,0.0,0.0,0.0,0.0,0.0,0.0,0.0,0.0,0.0,0.0,0.0,0.0,0.0,0.0,0.0,0.0,0.0,0.0,0.0,0.0,0.0,0.0,0.0,3.8324,3.8324,3.9159,3.9625,3.9625,4.0325,4.0713,4.0771,4.0713,4.0344,3.9634,3.9634,3.9168,3.8322,3.8341,3.8302,3.8183,3.659,3.5893,3.5893,3.5894,3.5894,3.5894,3.5894,3.5914,3.5992,3.6752,3.7088,3.7246,3.8086,3.8358,3.8352,3.8352,3.7831,3.7354,3.8135,3.7848,3.7257,3.7159,3.7168,3.6992,3.6134,3.6557,3.7428,3.8285,3.9162,4.0,4.076,4.0869,4.0791,4.0718,4.0787,4.0898,4.0898,4.0988,4.1078,4.1078,4.1078,4.1078,4.1078,4.1078,4.1078,4.1078,4.1078,4.103,4.0907,4.1636,4.2391,4.3092,4.3943,4.4775,4.5587,4.5645,4.5664,4.5703,4.565,4.5561,4.5472,4.5472,4.5419,4.5297,4.5297,4.5297,0.0,0.0,0.0,3.2381,3.2825,3.3311,0.0,0.0,0.0,0.0,0.0,0.0,0.0,0.0,0.0,0.0,0.0,0.0,0.0,0.0,0.0,0.0,0.0,0.0,0.0,0.0,0.0,0.0,0.0,0.0,3.8972,3.9804,4.0324,4.04,4.069,4.0858,4.0907,4.0907,4.0752,4.048,4.048,4.0033,3.9237,3.9237,3.8926,3.8372,3.776,3.7183,3.6676,3.6679,3.6372,3.5968,3.6528,3.6731,3.6829,3.7643,3.7946,3.8012,3.8332,3.8434,3.8436,3.8495,3.8299,3.7987,3.7745,3.7452,3.7083,3.6576,3.6437,3.6472,3.6687,3.6975,3.7549,3.8994,4.0004,4.071,4.0967,4.103,4.1003,4.0971,4.0996,4.103,4.103,4.1071,4.111,4.111,4.111,4.111,4.111,4.111,4.111,4.111,4.111,4.1292,4.1751,4.2588,4.3416,4.4238,4.5113,4.5716,4.6008,4.6027,4.6027,4.6027,4.6027,4.5894,4.5615,4.5615,4.56,4.5555,4.5555,4.5555,3.297,0.0,0.0,0.0,0.0,3.2686,0.0,0.0,0.0,0.0,0.0,0.0,0.0,0.0,0.0,0.0,0.0,0.0,0.0,0.0,0.0,0.0,0.0,0.0,0.0,0.0,0.0,0.0,0.0,0.0,3.9739,4.0298,4.0648,4.0732,4.0732,4.075,4.0807,4.0807,4.0807,4.0807,4.0839,4.0597,4.0073,4.0102,3.9781,3.9237,3.9237,3.8596,3.7528,3.7541,3.7218,3.6798,3.7384,3.7611,3.7689,3.8539,3.8842,3.8878,3.9169,3.9279,3.9289,3.9348,3.898,3.8394,3.7812,3.7246,3.6699,3.6152,3.6211,3.6562,3.7089,3.7654,3.843,3.9884,4.0678,4.1104,4.11,4.1095,4.111,4.111,4.111,4.111,4.111,4.111,4.111,4.111,4.111,4.111,4.111,4.111,4.111,4.111,4.1344,4.1714,4.226,4.3371,4.4286,4.4851,4.5709,4.6196,4.6196,4.6196,4.6196,4.6196,4.6196,4.6083,4.5863,4.5815,4.5777,4.5703,4.5703,4.5703,0.0,0.0,0.0,0.0,0.0,0.0,0.0,0.0,0.0,0.0,0.0,0.0,0.0,0.0,0.0,0.0,0.0,0.0,0.0,0.0,0.0,0.0,0.0,0.0,0.0,0.0,0.0,0.0,0.0,4.0588,4.0588,4.0588,4.0588,4.0588,4.0588,4.0588,4.0588,4.0588,4.0588,4.0621,4.0732,4.08,4.08,4.0868,4.0907,4.0907,4.0907,3.9975,3.846,3.8441,3.8421,3.8402,3.8421,3.8441,3.8538,3.9412,3.9749,3.9859,4.0704,4.0979,4.098,4.1065,3.9891,3.8467,3.8529,3.7374,3.603,3.6069,3.6689,3.7341,3.7361,3.8594,4.0055,4.0894,4.1108,4.1107,4.1107,4.1094,4.1091,4.1091,4.1091,4.1091,4.111,4.111,4.111,4.111,4.111,4.111,4.111,4.113,4.1149,4.1149,4.187,4.2357,4.2377,4.3936,4.491,4.4929,4.5728,4.6196,4.6196,4.6196,4.6196,4.6196,4.6196,4.6196,4.6196,4.6075,4.5902,4.5717,4.5717,4.5717,3.4881,0.0,0.0,0.0,0.0,0.0,0.0,0.0,0.0,0.0,0.0,0.0,0.0,0.0,0.0,0.0,0.0,0.0,0.0,0.0,0.0,0.0,0.0,0.0,0.0,0.0,0.0,0.0,4.0363,4.0381,4.0381,4.0425,4.0454,4.0454,4.0545,4.0588,4.0588,4.0588,4.0648,4.0764,4.0788,4.0834,4.0878,4.0898,4.0907,4.0907,4.0907,4.0635,4.015,3.9587,3.8965,3.846,3.9082,3.9334,3.9451,4.0266,4.0567,4.0595,4.0848,4.0546,4.0163,4.083,3.9457,3.7781,3.9058,3.8263,3.7067,3.7692,3.8049,3.8363,3.8969,3.993,4.0794,4.1035,4.1094,4.1094,4.1108,4.1101,4.1108,4.1105,4.11,4.1111,4.1097,4.111,4.111,4.111,4.111,4.111,4.111,4.1617,4.1968,4.1968,4.2728,4.3507,4.413,4.4618,4.5163,4.5806,4.6059,4.6196,4.6196,4.6196,4.6196,4.6196,4.6196,4.6196,4.6196,4.6154,4.6111,4.6065,4.6065,4.6008,0.0,0.0,0.0,0.0,0.0,0.0,3.4387,3.4661,0.0,0.0,0.0,0.0,0.0,0.0,0.0,0.0,0.0,0.0,0.0,0.0,0.0,0.0,0.0,0.0,0.0,0.0,0.0,4.031,4.031,4.031,4.031,4.0345,4.036,4.036,4.0427,4.0476,4.0476,4.0476,4.0508,4.0603,4.0626,4.0642,4.0687,4.0754,4.0765,4.0765,4.0765,4.0765,4.0746,4.0281,3.9839,3.9489,3.9994,4.0208,4.0266,4.0733,4.0907,4.0907,4.0907,4.0364,3.9829,4.0714,3.9513,3.7946,3.897,3.8355,3.7419,3.7906,3.8551,3.9292,4.0132,4.0717,4.1091,4.1103,4.1105,4.1107,4.1093,4.1093,4.1094,4.1097,4.1091,4.1108,4.1109,4.1105,4.11,4.11,4.11,4.1231,4.1559,4.2007,4.2435,4.2806,4.3624,4.4345,4.4851,4.5222,4.565,4.6176,4.6196,4.6196,4.6196,4.6196,4.6196,4.6196,4.6196,4.6196,4.6196,4.6196,4.6196,4.6196,4.6196,4.6154,0.0,0.0,0.0,0.0,0.0,0.0,3.4624,3.4951,3.533,0.0,0.0,0.0,0.0,0.0,0.0,0.0,0.0,0.0,0.0,0.0,0.0,0.0,0.0,0.0,0.0,4.0272,4.031,4.031,4.031,4.031,4.031,4.031,4.031,4.031,4.031,4.031,4.031,4.031,4.0291,4.031,4.0358,4.0406,4.0438,4.0545,4.0588,4.0588,4.0588,4.0588,4.0588,4.0588,4.0706,4.0859,4.0859,4.0888,4.0898,4.0898,4.0878,4.0888,4.0791,4.0247,3.9673,4.0461,3.9585,3.8252,3.8518,3.7982,3.7337,3.7516,3.8726,4.0112,4.0893,4.1108,4.1108,4.1108,4.1108,4.1108,4.1108,4.1108,4.1101,4.1093,4.109,4.1108,4.1107,4.1107,4.1103,4.1101,4.1175,4.1499,4.222,4.2467,4.2896,4.3656,4.452,4.5046,4.5046,4.5742,4.6209,4.6209,4.6203,4.6196,4.6196,4.6196,4.6196,4.6196,4.6196,4.6196,4.6196,4.6196,4.6196,4.6196,4.6196,4.6196,0.0,0.0,0.0,0.0,0.0,0.0,3.5402,3.5447,3.5392,0.0,0.0,0.0,0.0,0.0,0.0,0.0,0.0,0.0,0.0,0.0,0.0,0.0,0.0,0.0,0.0,4.0176,4.031,4.031,4.031,4.031,4.031,4.031,4.031,4.031,4.031,4.031,4.031,4.031,4.0327,4.0375,4.0389,4.0454,4.0559,4.0588,4.0588,4.0588,4.0588,4.0588,4.0588,4.0588,4.0615,4.0655,4.0655,4.0725,4.0823,4.0823,4.0848,4.081,4.0169,3.9373,3.8682,3.8855,3.776,3.6664,3.8088,3.7905,3.7519,3.8918,4.0054,4.0893,4.1049,4.1108,4.1108,4.1108,4.1108,4.1108,4.1108,4.1108,4.1091,4.1099,4.111,4.1094,4.1108,4.1107,4.1107,4.1103,4.1709,4.2195,4.2368,4.3559,4.4457,4.4633,4.5434,4.5961,4.5961,4.6097,4.6197,4.6197,4.6203,4.6196,4.6196,4.6196,4.6196,4.6196,4.6196,4.6196,4.6196,4.6196,4.6196,4.6196,4.6196,4.6196,0.0,0.0,0.0,3.5622,0.0,0.0,0.0,3.5622,3.5593,0.0,0.0,0.0,0.0,0.0,0.0,0.0,0.0,0.0,0.0,0.0,0.0,0.0,0.0,0.0,0.0,4.0138,4.031,4.031,4.031,4.031,4.031,4.031,4.031,4.031,4.031,4.031,4.031,4.031,4.0328,4.0362,4.0362,4.0396,4.0444,4.0444,4.0444,4.0444,4.0444,4.0444,4.0444,4.0444,4.0444,4.046,4.0564,4.0648,4.0707,4.0707,4.0455,4.0056,3.9732,3.9024,3.8384,3.8891,3.8486,3.7955,3.8823,3.8824,3.8682,3.9548,4.0437,4.1108,4.1108,4.1108,4.1108,4.1108,4.1108,4.1108,4.1108,4.1108,4.1225,4.1654,4.1741,4.175,4.1755,4.1756,4.1894,4.2324,4.2773,4.3183,4.3608,4.4389,4.5073,4.5501,4.593,4.6204,4.6204,4.6195,4.6209,4.6209,4.6195,4.6206,4.6206,4.6206,4.6206,4.6206,4.6206,4.6206,4.6206,4.6206,4.6206,4.6196,4.6196,4.6196,0.0,0.0,0.0,0.0,0.0,3.5808,0.0,0.0,0.0,3.5993,0.0,0.0,0.0,0.0,0.0,0.0,0.0,0.0,0.0,0.0,0.0,0.0,0.0,0.0,0.0,4.0098,4.031,4.031,4.031,4.031,4.031,4.031,4.031,4.031,4.031,4.031,4.031,4.031,4.031,4.031,4.031,4.031,4.031,4.031,4.031,4.031,4.031,4.031,4.031,4.031,4.031,4.0329,4.0476,4.0564,4.0559,4.0559,4.013,3.954,3.9482,3.8996,3.8535,3.916,3.9407,3.9439,3.9455,3.9608,3.9794,3.9794,4.0434,4.1108,4.1108,4.1108,4.1108,4.1108,4.1108,4.1108,4.1108,4.1108,4.1361,4.224,4.2396,4.2454,4.2611,4.265,4.289,4.3589,4.3842,4.4197,4.4843,4.5077,4.5448,4.6132,4.6229,4.6229,4.6229,4.6228,4.6226,4.6226,4.6205,4.6204,4.6204,4.6204,4.6204,4.6204,4.6204,4.6204,4.6204,4.6204,4.6206,4.6209,4.6209,4.6209,0.0,0.0,0.0,0.0,3.6146,0.0,0.0,0.0,3.5436,3.4847,0.0,0.0,0.0,0.0,0.0,0.0,0.0,0.0,0.0,0.0,0.0,0.0,0.0,0.0,0.0,0.0,4.031,4.031,4.031,4.031,4.031,4.031,4.031,4.031,4.031,4.031,4.031,4.031,4.031,4.031,4.031,4.031,4.031,4.031,4.031,4.031,4.031,4.031,4.031,4.031,4.031,4.031,4.0328,4.0379,4.0422,4.0422,4.0442,4.0337,3.9598,3.927,3.9077,3.8415,3.8313,3.8474,3.8517,3.9121,3.9797,3.9797,4.0424,4.1108,4.1108,4.1108,4.1108,4.1108,4.1108,4.1108,4.1108,4.1108,4.1361,4.224,4.2396,4.265,4.3411,4.3548,4.359,4.3687,4.4351,4.4898,4.4979,4.5665,4.6173,4.629,4.629,4.629,4.629,4.6284,4.6288,4.6288,4.6229,4.6204,4.6204,4.6204,4.6204,4.6204,4.6204,4.6204,4.6204,4.6204,4.6202,4.6198,4.6198,4.6198,0.0,0.0,0.0,0.0,0.0,0.0,0.0,0.0,3.5582,0.0,0.0,0.0,0.0,0.0,0.0,0.0,0.0,0.0,0.0,0.0,0.0,0.0,0.0,0.0,0.0,0.0,0.0,0.0,0.0,4.031,4.031,4.031,4.031,4.031,4.031,4.031,4.031,4.031,4.031,4.031,4.031,4.031,4.031,4.031,4.031,4.031,4.031,4.031,4.031,4.031,4.031,4.031,4.031,4.0328,4.0344,4.0344,4.0053,3.9621,3.9285,3.92,3.9268,3.9441,3.9586,3.9688,3.973,4.0068,4.044,4.044,4.0769,4.1108,4.1108,4.1108,4.1108,4.1108,4.1108,4.1108,4.1108,4.1498,4.2103,4.2982,4.3567,4.4192,4.5051,4.4797,4.4621,4.5129,4.5519,4.5753,4.5753,4.6066,4.63,4.63,4.63,4.63,4.63,4.629,4.6295,4.6295,4.6262,4.6265,4.6265,4.6265,4.6265,4.6265,4.6265,4.6265,4.6265,4.6265,4.6265,4.6265,4.6229,4.6204,3.5622,0.0,0.0,0.0,0.0,0.0,0.0,0.0,0.0,0.0,0.0,0.0,0.0,0.0,0.0,0.0,0.0,0.0,0.0,0.0,0.0,0.0,0.0,0.0,0.0,0.0,0.0,4.0176,4.0176,4.0234,4.0291,4.031,4.031,4.031,4.031,4.031,4.031,4.031,4.031,4.031,4.031,4.031,4.031,4.031,4.031,4.031,4.031,4.031,4.031,4.031,4.031,4.031,4.031,4.031,4.031,4.031,3.9909,3.9373,3.9423,3.9457,3.9605,4.0312,4.0579,4.0654,4.0648,4.0746,4.0846,4.0866,4.0948,4.1051,4.1074,4.1081,4.1108,4.1108,4.1283,4.1459,4.1459,4.2142,4.3001,4.3899,4.4563,4.5285,4.6144,4.5773,4.5578,4.6202,4.63,4.63,4.63,4.63,4.63,4.63,4.63,4.63,4.63,4.63,4.63,4.63,4.63,4.63,4.63,4.63,4.63,4.63,4.63,4.63,4.63,4.63,4.63,4.63,4.6248,4.623,0.0,0.0,0.0,3.5808,0.0,0.0,0.0,0.0,3.6581,0.0,0.0,0.0,0.0,0.0,0.0,0.0,0.0,0.0,0.0,0.0,0.0,0.0,0.0,0.0,0.0,0.0,0.0,3.9892,3.9914,4.0017,4.0291,4.031,4.031,4.031,4.031,4.031,4.031,4.031,4.031,4.031,4.031,4.031,4.031,4.031,4.031,4.031,4.031,4.031,4.031,4.031,4.031,4.031,4.031,4.031,4.031,4.031,4.0291,4.0272,4.0253,4.0253,4.0272,4.0307,4.0406,4.0526,4.0496,4.0597,4.0721,4.0771,4.0855,4.0915,4.0994,4.1057,4.1108,4.1108,4.1732,4.2357,4.2357,4.304,4.3918,4.4797,4.4972,4.5285,4.6144,4.628,4.6261,4.63,4.63,4.63,4.63,4.63,4.63,4.63,4.63,4.63,4.63,4.63,4.63,4.63,4.63,4.63,4.63,4.63,4.63,4.63,4.63,4.63,4.63,4.63,4.63,4.63,4.6303,4.6303,0.0,0.0,3.5943,3.569,0.0,0.0,0.0,0.0,0.0,0.0,0.0,0.0,0.0,0.0,0.0,0.0,0.0,0.0,0.0,0.0,0.0,0.0,0.0,0.0,0.0,0.0,0.0,3.9892,4.0058,4.0196,0.0,4.031,4.031,4.031,4.031,4.031,4.031,4.031,4.031,4.031,4.031,4.031,4.031,4.031,4.031,4.031,4.031,4.031,4.031,4.031,4.031,4.031,4.031,4.031,4.031,4.031,4.031,4.031,4.031,4.031,4.031,4.031,4.0325,4.0372,4.0353,4.0472,4.0572,4.0604,4.1094,4.1626,4.1655,4.2063,4.2516,4.2669,4.2916,4.3148,4.3248,4.3957,4.4641,4.4933,4.548,4.5948,4.6241,4.63,4.63,4.63,4.63,4.63,4.63,4.63,4.63,4.63,4.63,4.63,4.63,4.63,4.63,4.63,4.63,4.63,4.63,4.63,4.63,4.63,4.63,4.63,4.63,4.63,4.63,4.63,4.63,4.63,3.5622,3.5622,0.0,3.5622,3.5622,0.0,3.5773,0.0,0.0,0.0,0.0,0.0,0.0,0.0,0.0,0.0,0.0,0.0,0.0,3.8707,0.0,0.0,0.0,0.0,0.0,0.0,3.9058,3.9721,3.9933,4.0098,0.0,0.0,4.031,4.031,4.031,4.031,4.031,4.031,4.031,4.031,4.031,4.031,4.031,4.031,4.031,4.031,4.031,4.031,4.031,4.031,4.031,4.031,4.031,4.031,4.031,4.031,4.031,4.031,4.031,4.031,4.031,4.031,4.031,4.029,4.029,4.0375,4.0489,4.0796,4.1379,4.197,4.2299,4.2782,4.323,4.3365,4.3626,4.3878,4.3968,4.4663,4.53,4.5348,4.5802,4.6216,4.6269,4.6249,4.6273,4.63,4.63,4.63,4.63,4.63,4.63,4.63,4.63,4.63,4.63,4.63,4.63,4.63,4.63,4.63,4.63,4.63,4.6456,4.6768,4.6456,4.6456,4.6768,4.6456,4.63,4.63,4.63,4.63]},{"header":{"parameterUnit":"m.s-1","parameterCategory":1,"la1":30.6,"la2":29.2853,"lo1":-89.7004,"lo2":-87.6739,"dy":0.0162,"dx":0.0183,"nx":112,"ny":82,"refTime":"2023-10-05T12:00:00:Z","depth":0,"parameterNumber":3,"parameterNumberName":"V-component_of_WINDS"},"data":[0.0,0.0,0.0,0.0,0.0,0.0,0.0,0.0,0.0,0.0,0.0,0.0,0.0,0.0,0.0,0.0,0.0,0.0,0.0,0.0,0.0,0.0,0.0,0.0,0.0,0.0,0.0,0.0,0.0,0.0,0.0,0.0,0.0,0.0,0.0,0.0,0.0,0.0,0.0,0.0,0.0,0.0,0.0,0.0,0.0,0.0,0.0,0.0,0.0,0.0,0.0,0.0,0.0,0.0,0.0,0.0,0.0,0.0,0.0,0.0,0.0,0.0,0.0,0.0,0.0,0.0,0.0,0.0,0.0,0.0,0.0,0.0,0.0,0.0,0.0,0.0,0.0,0.0,0.0,0.0,0.0,0.0,0.0,0.0,0.0,0.0,0.0,0.0,0.0,0.0,0.0,-3.3793,-3.6384,-3.776,-3.7329,-3.651,-3.4983,-3.259,0.0,0.0,0.0,0.0,0.0,0.0,0.0,0.0,0.0,0.0,0.0,0.0,0.0,0.0,0.0,0.0,0.0,0.0,0.0,0.0,0.0,0.0,0.0,0.0,0.0,0.0,0.0,0.0,0.0,0.0,0.0,0.0,0.0,0.0,0.0,0.0,0.0,0.0,0.0,0.0,0.0,0.0,0.0,0.0,0.0,0.0,0.0,0.0,0.0,0.0,0.0,0.0,0.0,0.0,0.0,0.0,0.0,0.0,0.0,0.0,0.0,0.0,0.0,0.0,0.0,0.0,0.0,0.0,0.0,0.0,0.0,0.0,0.0,0.0,0.0,0.0,0.0,0.0,0.0,0.0,0.0,0.0,0.0,0.0,0.0,0.0,0.0,0.0,0.0,0.0,0.0,0.0,0.0,0.0,0.0,0.0,0.0,0.0,0.0,0.0,0.0,0.0,0.0,0.0,-3.144,-3.3728,-3.5457,-3.6653,-3.7155,-3.5469,-3.4021,-3.3176,0.0,0.0,0.0,0.0,0.0,0.0,0.0,0.0,0.0,0.0,0.0,0.0,0.0,0.0,0.0,0.0,0.0,0.0,0.0,0.0,0.0,0.0,0.0,0.0,0.0,0.0,0.0,0.0,0.0,0.0,0.0,0.0,0.0,0.0,0.0,0.0,0.0,0.0,0.0,0.0,0.0,0.0,0.0,0.0,0.0,0.0,0.0,0.0,0.0,0.0,0.0,0.0,0.0,0.0,0.0,0.0,0.0,0.0,0.0,0.0,0.0,0.0,0.0,0.0,0.0,0.0,0.0,0.0,0.0,0.0,0.0,0.0,0.0,0.0,0.0,0.0,0.0,0.0,0.0,0.0,0.0,0.0,0.0,0.0,0.0,0.0,0.0,0.0,0.0,0.0,0.0,0.0,0.0,0.0,0.0,0.0,0.0,0.0,0.0,0.0,0.0,0.0,0.0,-3.2203,-3.3389,-3.5309,-3.6439,-3.7235,-3.7567,-3.5712,-3.4219,-3.3337,-3.1684,0.0,0.0,0.0,0.0,0.0,0.0,0.0,0.0,0.0,0.0,0.0,0.0,0.0,0.0,0.0,0.0,0.0,0.0,0.0,0.0,0.0,0.0,0.0,0.0,0.0,0.0,0.0,0.0,0.0,0.0,0.0,0.0,0.0,0.0,0.0,0.0,0.0,0.0,0.0,0.0,0.0,0.0,0.0,0.0,0.0,0.0,0.0,0.0,0.0,0.0,0.0,0.0,0.0,0.0,0.0,0.0,0.0,0.0,0.0,0.0,0.0,0.0,0.0,0.0,0.0,0.0,0.0,0.0,0.0,0.0,0.0,0.0,0.0,0.0,0.0,0.0,0.0,0.0,0.0,0.0,0.0,0.0,0.0,0.0,0.0,0.0,0.0,0.0,0.0,0.0,0.0,0.0,0.0,0.0,0.0,0.0,0.0,0.0,0.0,0.0,0.0,0.0,-3.3778,-3.4827,-3.6395,-3.7072,-3.7428,-3.7428,-3.5929,-3.4455,-3.3294,-3.1586,0.0,0.0,0.0,0.0,0.0,0.0,0.0,0.0,0.0,0.0,0.0,0.0,0.0,0.0,0.0,0.0,0.0,0.0,0.0,0.0,0.0,0.0,0.0,0.0,0.0,0.0,0.0,0.0,0.0,0.0,0.0,0.0,0.0,0.0,0.0,0.0,0.0,0.0,0.0,0.0,0.0,0.0,0.0,0.0,0.0,0.0,0.0,0.0,0.0,0.0,0.0,0.0,0.0,0.0,0.0,0.0,0.0,0.0,0.0,0.0,0.0,0.0,0.0,0.0,0.0,0.0,0.0,0.0,0.0,0.0,0.0,0.0,0.0,0.0,0.0,0.0,0.0,0.0,0.0,0.0,0.0,0.0,0.0,0.0,0.0,0.0,0.0,0.0,0.0,0.0,0.0,0.0,0.0,0.0,0.0,0.0,0.0,0.0,0.0,0.0,0.0,0.0,-3.3017,-3.4092,-3.5688,-3.5909,-3.5987,-3.6137,-3.5386,-3.4398,-3.3115,-3.2226,0.0,0.0,0.0,0.0,0.0,0.0,0.0,0.0,0.0,0.0,0.0,0.0,0.0,0.0,0.0,0.0,0.0,0.0,0.0,0.0,0.0,0.0,0.0,0.0,0.0,0.0,0.0,0.0,0.0,0.0,0.0,0.0,0.0,0.0,0.0,0.0,0.0,0.0,0.0,0.0,0.0,0.0,0.0,0.0,0.0,0.0,0.0,0.0,0.0,0.0,0.0,0.0,0.0,0.0,0.0,0.0,0.0,0.0,0.0,0.0,0.0,0.0,0.0,0.0,0.0,0.0,0.0,0.0,0.0,0.0,0.0,0.0,0.0,0.0,0.0,0.0,0.0,0.0,0.0,0.0,0.0,0.0,0.0,0.0,0.0,0.0,0.0,0.0,0.0,0.0,0.0,0.0,0.0,0.0,0.0,0.0,0.0,0.0,0.0,0.0,0.0,0.0,-3.3668,-3.4532,0.0,-3.5365,-3.518,-3.5309,-3.4264,-3.3124,-3.2071,0.0,0.0,0.0,0.0,0.0,0.0,0.0,0.0,0.0,0.0,0.0,0.0,0.0,0.0,0.0,0.0,0.0,0.0,0.0,0.0,0.0,0.0,0.0,0.0,0.0,0.0,0.0,0.0,0.0,0.0,0.0,0.0,0.0,0.0,0.0,0.0,0.0,0.0,0.0,0.0,0.0,0.0,0.0,0.0,0.0,0.0,0.0,0.0,0.0,0.0,0.0,0.0,0.0,0.0,0.0,0.0,0.0,0.0,0.0,0.0,0.0,0.0,0.0,0.0,0.0,0.0,0.0,0.0,0.0,0.0,0.0,0.0,0.0,0.0,0.0,0.0,0.0,0.0,0.0,0.0,0.0,0.0,0.0,0.0,0.0,0.0,0.0,0.0,0.0,0.0,0.0,0.0,0.0,0.0,0.0,0.0,0.0,0.0,0.0,0.0,0.0,0.0,-3.3403,-3.4194,-3.4924,0.0,-3.5241,-3.4738,-3.4665,-3.3522,-3.2412,-3.1366,0.0,0.0,0.0,0.0,0.0,0.0,0.0,0.0,0.0,0.0,0.0,0.0,0.0,0.0,0.0,0.0,0.0,0.0,0.0,0.0,0.0,0.0,0.0,0.0,0.0,0.0,0.0,0.0,0.0,0.0,0.0,0.0,0.0,0.0,0.0,0.0,0.0,0.0,0.0,0.0,0.0,0.0,0.0,0.0,0.0,0.0,0.0,0.0,0.0,0.0,0.0,0.0,0.0,0.0,0.0,0.0,0.0,0.0,0.0,0.0,0.0,0.0,0.0,0.0,0.0,0.0,0.0,0.0,0.0,0.0,0.0,0.0,0.0,0.0,0.0,0.0,0.0,0.0,0.0,0.0,0.0,0.0,0.0,0.0,0.0,0.0,0.0,0.0,0.0,0.0,0.0,0.0,0.0,0.0,0.0,0.0,0.0,0.0,0.0,0.0,0.0,0.0,-3.3444,-3.4362,-3.5156,-3.5933,-3.5402,-3.473,-3.4128,-3.3352,-3.2368,0.0,0.0,0.0,0.0,0.0,0.0,0.0,0.0,0.0,0.0,0.0,0.0,0.0,0.0,0.0,0.0,0.0,0.0,0.0,0.0,0.0,0.0,0.0,0.0,0.0,0.0,0.0,0.0,0.0,0.0,0.0,0.0,0.0,0.0,0.0,0.0,0.0,0.0,0.0,0.0,0.0,0.0,0.0,0.0,0.0,0.0,0.0,0.0,0.0,0.0,0.0,0.0,0.0,0.0,0.0,0.0,0.0,0.0,0.0,0.0,0.0,0.0,0.0,0.0,0.0,0.0,0.0,0.0,0.0,0.0,0.0,0.0,0.0,0.0,0.0,0.0,0.0,0.0,0.0,0.0,0.0,0.0,0.0,0.0,0.0,0.0,0.0,0.0,0.0,0.0,0.0,0.0,0.0,0.0,0.0,0.0,0.0,0.0,0.0,0.0,0.0,0.0,0.0,-3.3699,-3.3967,-3.4377,-3.5214,-3.4209,-3.339,-3.3266,-3.2559,-3.1819,-3.114,0.0,0.0,0.0,0.0,0.0,0.0,0.0,0.0,0.0,0.0,0.0,0.0,0.0,0.0,0.0,0.0,0.0,0.0,0.0,0.0,0.0,0.0,0.0,0.0,0.0,0.0,0.0,0.0,0.0,0.0,0.0,0.0,0.0,0.0,0.0,0.0,0.0,0.0,0.0,0.0,0.0,0.0,0.0,0.0,0.0,0.0,0.0,0.0,0.0,0.0,0.0,0.0,0.0,0.0,0.0,0.0,0.0,0.0,0.0,0.0,0.0,0.0,0.0,0.0,0.0,0.0,0.0,0.0,0.0,0.0,0.0,0.0,0.0,0.0,0.0,0.0,0.0,0.0,0.0,0.0,0.0,0.0,0.0,0.0,0.0,0.0,0.0,0.0,0.0,0.0,0.0,0.0,0.0,0.0,0.0,0.0,0.0,0.0,0.0,0.0,0.0,0.0,-3.3814,-3.39,-3.4134,-3.4912,-3.3991,-3.3188,-3.2921,-3.2338,-3.1657,-3.0902,0.0,0.0,0.0,0.0,0.0,0.0,0.0,0.0,0.0,0.0,0.0,0.0,0.0,0.0,0.0,0.0,0.0,0.0,0.0,0.0,0.0,0.0,0.0,0.0,0.0,0.0,0.0,0.0,0.0,0.0,0.0,0.0,0.0,0.0,0.0,0.0,0.0,0.0,0.0,0.0,0.0,0.0,0.0,0.0,0.0,0.0,0.0,0.0,0.0,0.0,0.0,0.0,0.0,0.0,0.0,0.0,0.0,0.0,0.0,0.0,0.0,0.0,0.0,0.0,0.0,0.0,0.0,0.0,0.0,0.0,0.0,0.0,0.0,0.0,0.0,0.0,0.0,0.0,0.0,0.0,0.0,0.0,0.0,0.0,0.0,0.0,0.0,0.0,0.0,0.0,0.0,0.0,0.0,0.0,0.0,0.0,0.0,0.0,0.0,0.0,0.0,0.0,-3.3837,-3.3916,-3.414,-3.485,-3.4312,-3.3576,-3.2869,-3.2451,-3.1746,-3.0651,0.0,0.0,0.0,0.0,0.0,0.0,0.0,0.0,0.0,0.0,0.0,0.0,0.0,0.0,0.0,0.0,0.0,0.0,0.0,0.0,0.0,0.0,0.0,0.0,0.0,0.0,0.0,0.0,0.0,0.0,0.0,0.0,0.0,0.0,0.0,0.0,0.0,0.0,0.0,0.0,0.0,0.0,0.0,0.0,0.0,0.0,0.0,0.0,0.0,0.0,0.0,0.0,0.0,0.0,0.0,0.0,0.0,0.0,0.0,0.0,-3.6599,0.0,0.0,0.0,0.0,0.0,0.0,0.0,0.0,0.0,0.0,0.0,0.0,0.0,0.0,0.0,0.0,0.0,0.0,0.0,0.0,0.0,0.0,0.0,0.0,0.0,0.0,0.0,0.0,0.0,0.0,0.0,0.0,0.0,0.0,0.0,0.0,0.0,0.0,0.0,0.0,0.0,-3.3986,-3.3062,-3.28,-3.414,-3.3093,-3.2214,-3.2041,-3.1967,-3.1637,-3.1004,0.0,0.0,0.0,0.0,0.0,0.0,0.0,0.0,0.0,0.0,0.0,0.0,0.0,0.0,0.0,0.0,0.0,0.0,0.0,0.0,0.0,0.0,0.0,0.0,0.0,0.0,0.0,0.0,0.0,0.0,0.0,0.0,0.0,0.0,0.0,0.0,0.0,0.0,0.0,0.0,0.0,0.0,0.0,0.0,0.0,0.0,0.0,0.0,0.0,0.0,0.0,0.0,0.0,0.0,0.0,0.0,0.0,0.0,0.0,0.0,0.0,-3.7366,0.0,0.0,0.0,0.0,0.0,0.0,0.0,0.0,0.0,0.0,0.0,0.0,0.0,0.0,0.0,0.0,0.0,0.0,0.0,0.0,0.0,0.0,0.0,0.0,0.0,0.0,0.0,0.0,0.0,0.0,0.0,0.0,0.0,0.0,0.0,0.0,0.0,0.0,0.0,0.0,-3.4008,-3.2807,-3.2386,-3.3921,-3.3024,-3.2179,-3.1834,-3.1939,-3.1686,-3.0861,-3.0377,0.0,0.0,0.0,0.0,0.0,0.0,0.0,0.0,0.0,0.0,0.0,0.0,0.0,0.0,0.0,0.0,0.0,0.0,0.0,0.0,0.0,0.0,0.0,0.0,0.0,0.0,0.0,0.0,0.0,0.0,0.0,0.0,0.0,0.0,0.0,0.0,0.0,0.0,0.0,0.0,0.0,0.0,0.0,0.0,0.0,0.0,0.0,0.0,0.0,0.0,0.0,0.0,0.0,-4.076,-4.1213,-4.1914,-4.1972,-4.1916,-4.1727,-4.0284,-3.9228,-3.8491,0.0,0.0,0.0,0.0,0.0,0.0,0.0,0.0,0.0,0.0,0.0,0.0,0.0,0.0,0.0,0.0,0.0,0.0,0.0,0.0,0.0,0.0,0.0,0.0,0.0,-3.592,-3.5805,0.0,0.0,0.0,0.0,0.0,0.0,0.0,0.0,0.0,0.0,0.0,0.0,-3.4008,-3.291,-3.2524,-3.3938,-3.3369,-3.261,-3.1852,-3.2047,-3.1719,-3.0551,-3.014,-2.9677,0.0,0.0,0.0,0.0,0.0,0.0,0.0,0.0,0.0,0.0,0.0,0.0,0.0,0.0,0.0,0.0,0.0,0.0,0.0,0.0,0.0,0.0,0.0,0.0,0.0,0.0,0.0,0.0,0.0,0.0,0.0,0.0,-3.5607,-3.5778,0.0,0.0,0.0,0.0,0.0,0.0,0.0,0.0,0.0,0.0,0.0,0.0,0.0,0.0,-4.1866,-4.2637,-4.3417,-4.4211,-4.4988,-4.5404,-4.5501,-4.5508,-4.5482,-4.5395,-4.5173,0.0,-3.9491,-4.0131,0.0,0.0,0.0,0.0,0.0,0.0,0.0,0.0,0.0,0.0,0.0,0.0,0.0,0.0,0.0,0.0,0.0,0.0,0.0,0.0,0.0,0.0,-3.6545,-3.6205,-3.6407,-3.6461,0.0,-3.4932,-3.4388,-3.3963,0.0,0.0,0.0,0.0,0.0,0.0,0.0,0.0,-3.4008,-3.336,-3.3093,-3.399,-3.3369,-3.261,-3.1852,-3.1849,-3.1492,-3.0559,-3.0435,-3.0097,-2.947,-2.9633,0.0,0.0,0.0,0.0,0.0,0.0,0.0,0.0,0.0,0.0,0.0,0.0,0.0,0.0,0.0,0.0,0.0,0.0,0.0,0.0,0.0,0.0,0.0,0.0,0.0,0.0,0.0,0.0,0.0,-3.5768,-3.5815,-3.5795,-3.5828,-3.5821,0.0,0.0,0.0,0.0,0.0,0.0,0.0,0.0,0.0,-4.1737,-4.2363,-4.3271,-4.4512,-4.4902,-4.5532,-4.6362,-4.6248,-4.6462,-4.6916,-4.6465,-4.6226,-4.6164,-4.6164,-4.4779,-4.247,-4.1924,-4.0746,-3.9186,0.0,0.0,0.0,0.0,-3.7602,-3.7578,-3.8211,-3.8363,0.0,0.0,0.0,0.0,0.0,0.0,0.0,0.0,0.0,0.0,0.0,0.0,0.0,-3.7137,-3.7526,-3.7683,-3.6784,-3.5945,-3.5127,0.0,-3.3898,-3.338,-3.292,0.0,0.0,0.0,0.0,0.0,-3.4631,-3.3706,-3.3214,-3.4007,-3.3007,-3.2145,-3.1817,-3.1542,-3.1123,-3.0559,-3.0267,-2.9837,-2.9305,-2.9589,-2.9793,0.0,0.0,0.0,0.0,0.0,0.0,0.0,0.0,0.0,0.0,0.0,0.0,0.0,0.0,0.0,0.0,0.0,0.0,0.0,0.0,0.0,0.0,0.0,0.0,0.0,0.0,0.0,0.0,-3.5859,-3.5858,-3.5743,-3.5953,-3.6073,0.0,0.0,0.0,0.0,0.0,0.0,-3.9993,-4.1247,-4.2704,-4.439,-4.5195,-4.6108,-4.7187,-4.7206,-4.7518,-4.8152,-4.7504,-4.7421,-4.7816,-4.721,-4.6917,-4.686,-4.686,-4.6345,-4.5348,-4.3635,-4.2296,-4.1171,-3.9653,-3.8902,-3.8675,-3.8546,-3.847,-3.8511,-3.9131,-3.9316,-3.9298,-3.9185,0.0,-3.849,-3.7239,0.0,0.0,0.0,0.0,-3.6846,-3.6719,-3.7188,-3.7705,-3.7775,-3.8007,-3.8087,-3.7418,-3.649,-3.5488,0.0,-3.4087,-3.3669,-3.3078,0.0,0.0,0.0,0.0,-3.3636,-3.4834,-3.3753,-3.3128,-3.3714,-3.2766,-3.197,-3.1651,-3.1295,-3.0885,-3.0351,-3.0011,-2.9633,-2.9213,-2.9589,-2.9853,-2.9897,0.0,0.0,0.0,0.0,0.0,0.0,0.0,0.0,0.0,0.0,0.0,0.0,0.0,0.0,0.0,0.0,0.0,0.0,0.0,0.0,0.0,0.0,0.0,0.0,0.0,0.0,0.0,0.0,0.0,-3.5522,-3.6356,0.0,0.0,0.0,0.0,-3.8054,-3.9509,-4.0842,-4.1826,-4.3481,-4.5297,-4.7225,-4.74,-4.8259,-4.9898,-4.9896,-4.9932,-4.9966,-4.9918,-4.9481,-4.874,-4.8681,-4.8662,-4.8662,-4.8662,-4.8177,-4.7209,-4.5414,-4.372,-4.2135,-4.1241,-4.0284,-3.9432,-3.9383,-3.921,-3.9164,-3.9946,-4.0234,-4.0215,-4.008,-3.9469,-3.8781,-3.8701,-3.8171,0.0,0.0,-3.7257,-3.7288,-3.6975,-3.6999,-3.7248,-3.7598,-3.7219,-3.6896,-3.7228,-3.6156,-3.4877,0.0,-3.347,-3.2979,-3.2507,0.0,-3.3406,-3.3223,-3.3186,-3.3425,-3.4081,-3.3421,-3.2921,-3.2955,-3.2886,-3.2389,-3.123,-3.1123,-3.0747,-2.9881,-2.9793,-2.9722,-2.947,-2.9677,-2.9897,-3.0189,-3.0401,0.0,0.0,0.0,0.0,0.0,0.0,0.0,0.0,0.0,0.0,0.0,0.0,0.0,0.0,0.0,0.0,0.0,0.0,0.0,0.0,0.0,0.0,0.0,0.0,0.0,0.0,0.0,0.0,-3.7253,-3.852,0.0,-3.9238,-3.9474,-4.0077,-4.1107,-4.178,-4.2989,-4.491,-4.6313,-4.7631,-4.8879,-4.9657,-5.0074,-5.0156,-5.0156,-4.9882,-4.9314,-4.8753,-4.833,-4.8017,-4.7451,-4.7198,-4.7198,-4.7147,-4.6635,-4.5768,-4.5087,-4.4128,-4.2933,-4.1451,-4.0643,-4.0308,-4.0111,-3.9992,-3.997,-4.0213,-4.031,-4.0291,-4.0234,-3.9586,-3.8823,-3.8916,-3.8632,-3.8346,-3.8248,-3.8102,-3.7905,-3.7573,-3.715,-3.6756,-3.6684,-3.6611,-3.6407,-3.5871,-3.5271,-3.452,-3.3416,-3.3203,-3.3019,-3.2606,-3.2668,-3.2915,-3.3334,-3.3277,-3.3408,-3.4029,-3.3404,-3.2904,-3.2904,-3.2226,-3.1567,-3.114,-3.0584,-3.0123,-2.9793,-2.9515,-2.9335,-2.9259,-2.9589,-2.9837,-2.9941,-3.03,-3.0699,0.0,0.0,0.0,0.0,0.0,0.0,0.0,0.0,0.0,0.0,0.0,0.0,0.0,0.0,0.0,0.0,0.0,0.0,0.0,0.0,0.0,0.0,0.0,0.0,0.0,0.0,-3.8552,-3.8955,-4.0507,-4.1614,-4.1783,-4.2016,-4.2595,-4.3711,-4.4325,-4.5418,-4.7069,-4.8517,-4.9426,-4.9768,-5.0542,-5.0585,-4.9761,-4.9765,-4.9316,-4.8457,-4.7881,-4.7458,-4.7139,-4.6554,-4.63,-4.63,-4.624,-4.5852,-4.5212,-4.4587,-4.3957,-4.3227,-4.1773,-4.117,-4.1054,-4.0566,-4.0356,-4.0288,-4.0196,-4.0177,-4.0158,-4.0177,-3.9681,-3.9128,-3.9188,-3.894,-3.8613,-3.8521,-3.8199,-3.7718,-3.7091,-3.6541,-3.6073,-3.5855,-3.5625,-3.5368,-3.4971,-3.4466,-3.3851,-3.3055,-3.2943,-3.2894,-3.2573,-3.265,-3.2915,-3.3387,-3.3295,-3.3246,-3.3493,-3.2796,-3.2239,-3.2105,-3.1371,-3.0828,-3.0666,-3.0123,-2.9722,-2.9589,-2.9243,-2.9121,-2.9213,-2.9589,-2.9853,-2.9941,-3.03,-3.0699,-3.1145,0.0,0.0,0.0,0.0,0.0,0.0,0.0,0.0,0.0,0.0,0.0,0.0,0.0,0.0,0.0,0.0,0.0,0.0,0.0,0.0,0.0,0.0,0.0,-3.7129,-3.7804,-3.8898,-4.05,-4.2245,-4.3609,-4.4339,-4.5184,-4.5664,-4.5629,-4.7127,-4.8068,-4.815,-4.9935,-5.0631,-4.9876,-4.9995,-4.9677,-4.8873,-4.8863,-4.8418,-4.7558,-4.7556,-4.7115,-4.63,-4.63,-4.63,-4.63,-4.6197,-4.6059,-4.5784,-4.4063,-4.3233,-4.2937,-4.2222,-4.1832,-4.1555,-4.0713,-4.027,-4.0077,-3.9941,-3.9884,-3.9867,-3.9853,-3.9757,-3.9616,-3.954,-3.9007,-3.8369,-3.7968,-3.7426,-3.67,-3.5577,-3.5206,-3.5161,-3.5135,-3.4238,-3.3666,-3.4611,-3.3792,-3.2884,-3.2884,-3.2737,-3.2539,-3.2422,-3.2932,-3.335,-3.3349,-3.3184,0.0,-3.2423,-3.1636,-3.0958,-3.0626,-3.0543,-3.0359,-2.9886,-2.9826,-2.9605,-2.9121,-2.9075,-2.9213,-2.947,-2.9677,-2.9897,-3.0189,-3.0401,-3.0551,-3.0692,0.0,0.0,0.0,0.0,0.0,0.0,0.0,0.0,0.0,0.0,0.0,0.0,0.0,0.0,0.0,0.0,0.0,0.0,0.0,0.0,0.0,0.0,-3.722,-3.7233,-3.951,-4.1526,-4.2456,-4.4559,-4.6243,-4.6915,-4.7204,-4.7588,-4.8202,-4.8643,-4.8913,-4.9041,-4.9688,-4.9722,-4.8993,-4.9087,-4.8779,-4.7975,-4.7966,-4.7512,-4.666,-4.6657,-4.6529,-4.63,-4.63,-4.6273,-4.6197,-4.5448,-4.4733,-4.4024,-4.2802,-4.1856,-4.1123,-4.0924,-4.0784,-4.0649,-4.0291,-4.0078,-3.9954,-3.9901,-3.9518,-3.9001,-3.8861,-3.8359,-3.7803,-3.7785,-3.7629,-3.7448,-3.7356,-3.6766,-3.6021,-3.5161,-3.4495,-3.3954,-3.3617,-3.3291,-3.3109,-3.3386,-3.3041,-3.2672,-3.2672,-3.2557,-3.2405,-3.2267,-3.2406,-3.2386,-3.1926,-3.185,0.0,-3.1742,-3.1541,-3.1523,-3.1907,-3.1679,-3.1274,-3.0558,-3.0284,-2.9799,-2.9153,-2.9075,-2.9121,-2.9213,-2.9425,-2.9782,-3.0189,-3.0584,-3.0747,0.0,0.0,0.0,0.0,0.0,0.0,0.0,0.0,0.0,0.0,0.0,0.0,0.0,0.0,0.0,0.0,0.0,0.0,0.0,0.0,0.0,0.0,-3.7806,-3.8438,-3.8871,-4.0791,-4.274,-4.4203,-4.5868,-4.7199,-4.7933,-4.7989,-4.822,-4.8719,-4.8755,-4.8776,-4.8837,-4.9092,-4.8877,-4.808,-4.8215,-4.7899,-4.7059,-4.7059,-4.6796,-4.6258,-4.6267,-4.6269,-4.6259,-4.6189,-4.6157,0.0,-4.4986,-4.4245,-4.3679,-4.2268,-4.1315,0.0,0.0,0.0,0.0,0.0,-3.9892,-3.9807,-3.9788,-3.9226,-3.8501,-3.8397,-3.7694,-3.6875,-3.6807,-3.6589,-3.6292,-3.6107,-3.5522,-3.4853,-3.4265,-3.3728,-3.3243,-3.2961,-3.2852,-3.282,-3.2884,-3.269,-3.2523,-3.2539,-3.2266,0.0,-3.2055,-3.1984,-3.1852,-3.1798,-3.1556,-3.1483,-3.1682,-3.1691,-3.172,-3.1943,-3.1742,-3.1454,-3.099,-3.0482,0.0,0.0,0.0,-2.9167,-2.9259,-2.9425,0.0,0.0,0.0,-3.0601,-3.0609,0.0,0.0,0.0,-3.1854,-3.2442,0.0,0.0,0.0,0.0,0.0,0.0,0.0,0.0,0.0,0.0,0.0,0.0,0.0,0.0,0.0,0.0,-3.8798,-4.0189,-4.1317,-4.1873,-4.3098,-4.5595,-4.6461,-4.7165,-4.7952,-4.8029,-4.8048,-4.8048,-4.8102,-4.8102,-4.8029,0.0,0.0,0.0,0.0,-4.707,-4.6307,-4.6287,-4.6254,-4.6195,-4.6183,-4.6137,-4.6044,-4.5891,-4.5775,-4.5618,-4.4471,-4.3975,-4.3816,-4.1973,-4.1185,-4.1047,-4.0463,-4.0158,-4.0017,-3.9668,-3.9542,-3.9524,-3.9363,0.0,0.0,-3.7962,-3.7166,-3.6218,-3.6113,-3.5579,-3.4988,-3.4553,-3.4061,-3.3552,-3.3196,-3.3006,-3.2852,-3.282,-3.2672,-3.2606,-3.2787,-3.2574,-3.2388,-3.2387,-3.1949,-3.1603,-3.1731,-3.1528,-3.1538,-3.2298,-3.1851,-3.1572,-3.1992,-3.1981,-3.1823,-3.1478,0.0,0.0,-3.1349,-3.0765,-3.037,-3.0306,-2.9643,-2.9293,-2.9425,-2.9425,-2.9649,-3.0103,-3.0146,-3.0274,-3.0485,-3.0692,-3.0858,-3.0958,-3.1857,-3.2596,0.0,0.0,0.0,0.0,0.0,0.0,0.0,0.0,0.0,0.0,0.0,0.0,0.0,0.0,0.0,-3.9007,-3.9622,-4.0594,-4.2882,-4.3203,-4.387,-4.5677,-4.6619,-4.7407,-4.8084,-4.8143,-4.8219,-4.8315,-4.8335,-4.8114,-4.757,-4.7591,0.0,-4.6443,-4.6443,-4.6384,-4.622,-4.617,-4.6123,-4.6119,0.0,0.0,-4.5055,-4.4888,-4.4385,-4.3602,-4.2464,-4.1932,-4.178,-4.0604,-4.0031,-3.992,-3.9841,-3.9807,-3.9664,-3.8874,-3.8576,-3.8483,-3.7804,-3.6907,-3.6019,-3.5846,-3.4994,-3.4023,-3.3984,-3.3811,0.0,-3.3508,-3.3382,-3.3196,-3.2752,-3.2639,-3.2606,-3.2387,-3.2318,-3.2284,-3.2318,-3.2249,-3.2073,-3.1677,-3.1511,-3.1321,-3.0908,-3.0828,-3.0957,-3.1608,-3.1249,-3.1239,-3.2121,-3.2247,-3.2419,-3.2835,-3.2809,-3.2573,-3.2108,-3.1715,-3.135,-3.1049,-3.037,-2.9722,-2.9199,-2.9167,-2.9305,-2.9605,-2.981,-3.0,-3.0274,-3.1037,-3.1745,-3.2293,-3.2135,-3.2522,0.0,0.0,0.0,0.0,0.0,0.0,0.0,0.0,0.0,0.0,0.0,-3.5178,0.0,0.0,-3.8248,-3.9588,-4.0108,-4.111,-4.3297,-4.3518,-4.4075,-4.5745,-4.6287,-4.6622,-4.6913,-4.6945,-4.6969,-4.7037,-4.7067,-4.6964,-4.6674,-4.6719,-4.656,-4.6118,-4.6105,-4.6088,-4.6047,-4.6018,-4.6008,-4.5977,-4.5567,-4.5045,-4.4479,-4.3912,-4.3327,-4.2676,-4.1566,-4.1073,-4.095,-3.9557,-3.8949,-3.8796,-3.8413,-3.8531,-3.8893,-3.8371,-3.7847,-3.7291,-3.6892,-3.6044,-3.5096,-3.4984,-3.4214,-3.329,-3.3306,-3.3201,-3.3045,-3.2894,-3.2876,-3.2827,-3.2404,-3.2318,-3.2318,-3.2179,-3.2144,-3.2144,-3.2144,-3.1948,-3.1657,-3.1393,-3.0954,-3.0616,-3.0543,-3.0434,-3.0616,-3.1557,-3.1611,-3.1868,-3.2697,-3.2735,-3.2861,-3.3261,-3.3096,-3.2917,-3.2714,-3.2144,-3.1576,-3.1121,-3.0809,-3.0446,-3.018,-3.0164,-3.0275,-3.0558,-3.0635,-3.0895,-3.1254,-3.1703,-3.2199,-3.268,-3.2463,-3.3028,0.0,0.0,0.0,0.0,0.0,0.0,0.0,0.0,-3.3738,-3.5313,-3.5777,-3.6352,-3.7879,-3.884,-3.9448,-3.965,-4.0306,-4.1369,-4.2948,-4.3099,-4.3624,-4.5211,-4.5643,-4.58,-4.5768,-4.5727,-4.5718,-4.5735,-4.574,-4.5781,-4.5889,-4.5967,-4.5977,-4.5944,-4.5929,-4.5932,-4.586,-4.5847,-4.5762,-4.5615,-4.4821,-4.4182,-4.3628,-4.2795,-4.2176,-4.1749,-4.0835,-4.0352,-4.0121,-3.8877,-3.814,-3.7753,-3.7205,-3.7237,-3.7549,-3.7542,-3.6894,-3.604,-3.5857,-3.5169,-3.4358,-3.4357,-3.3754,-3.3044,-3.3042,-3.2927,-3.2777,-3.2506,-3.247,-3.2417,-3.2161,-3.2073,-3.2073,-3.2073,-3.2001,-3.1948,-3.1948,-3.1545,-3.1128,-3.1004,-3.0344,-2.9924,-3.032,-3.0254,-3.0559,-3.1709,-3.2075,-3.2519,-3.3161,-3.315,-3.315,-3.3203,-3.2989,-3.2881,-3.2935,-3.2351,-3.1743,-3.1158,-3.1177,-3.1149,-3.1173,-3.1173,-3.1322,-3.1533,-3.1582,-3.1806,-3.218,-3.2373,-3.2531,-3.276,-3.2954,-3.3719,-2.9926,-2.995,-3.0524,-3.1832,-3.2029,-3.2259,0.0,0.0,-3.4408,-3.4692,-3.5313,-3.6106,-3.7067,-3.7811,-3.8569,-3.9475,-4.0088,-4.0822,-4.1856,-4.1873,-4.2153,-4.3135,-4.4812,-4.5909,-4.5952,-4.5858,-4.5815,-4.5869,-4.5664,-4.5607,-4.5796,-4.5712,-4.5677,-4.5731,-4.5731,-4.5728,-4.5731,-4.5661,-4.526,-4.455,-4.417,-4.3178,-4.1686,-4.1177,-4.044,-3.9627,-3.9332,-3.8785,-3.8191,-3.8757,-3.8116,-3.6838,-3.7441,-3.6708,-3.5286,-3.5392,-3.5213,-3.4759,-3.3952,-3.3476,-3.3192,-3.3125,-3.2757,-3.2406,-3.2423,-3.2318,-3.2197,-3.2144,-3.2144,-3.2126,-3.1966,-3.202,-3.2073,-3.1948,-3.1637,-3.1372,-3.1372,-3.0868,-3.0293,-2.9881,-2.9601,-2.9539,-2.9848,-3.0344,-3.0998,-3.1789,-3.196,-3.228,-3.3018,-3.3112,-3.3058,-3.2951,-3.2773,-3.2578,-3.2508,-3.2641,-3.2422,-3.1616,-3.1763,-3.1636,-3.1055,-3.1124,-3.1207,-3.1257,-3.1484,-3.163,-3.1678,-3.2515,-3.2951,-3.3015,-3.3892,-3.4244,-2.9144,-2.9939,0.0,0.0,-3.2867,-3.3898,-3.4096,-3.4214,-3.4417,-3.5011,-3.503,-3.5291,-3.6528,-3.7006,-3.7493,0.0,-3.8599,-3.9006,-3.9668,-3.9762,-4.0046,-4.0877,-4.2202,-4.3318,-4.4015,-4.4568,-4.4834,-4.4752,-4.5063,-4.5327,-4.5454,-4.492,-4.4614,-4.465,-4.465,-4.4632,-4.4576,-4.4556,-4.4384,-4.4039,-4.2827,-4.18,-4.0919,-4.014,-3.9461,-3.8849,-3.8251,-3.7871,-3.7579,-3.6934,-3.6141,-3.5375,-3.5177,-3.4388,-3.3469,-3.4513,-3.431,-3.3414,-3.3019,-3.2722,-3.2485,-3.2438,-3.2335,-3.2195,-3.2179,-3.2091,-3.1984,-3.1984,-3.1912,-3.1802,-3.1728,-3.1524,-3.1317,-3.1261,-3.0931,-3.0592,-3.0592,-3.0192,-2.9717,-2.9512,-2.9545,-2.9674,-2.9762,-3.0596,-3.1399,-3.1776,-3.2237,-3.266,-3.2958,-3.2881,-3.2757,-3.2633,-3.2594,-3.2523,-3.2398,-3.2523,-3.247,-3.2176,-3.2268,-3.2304,-3.2248,-3.2285,-3.2336,-3.244,-3.2542,-3.2644,-3.283,-3.3219,-3.3498,-3.3663,-3.4054,-3.4186,-2.8447,0.0,0.0,-3.1307,-3.3039,-3.4419,-3.353,-3.3717,-3.4186,-3.4604,-3.441,-3.4481,-3.555,-3.594,-3.6222,-3.6652,-3.7069,-3.7438,-3.7765,-3.7866,-3.8094,-3.8677,-3.9392,-4.0212,-4.1208,-4.274,-4.3595,-4.3437,-4.3897,-4.4216,-4.4312,-4.3697,-4.3368,-4.3406,-4.3428,-4.3406,-4.3361,-4.3384,-4.3247,-4.2936,-4.1562,-4.0603,-3.9983,-3.9194,-3.8612,-3.8175,-3.7528,-3.7083,-3.6666,-3.563,-3.4769,-3.4073,-3.3658,-3.2936,-3.2302,-3.3548,-3.3342,-3.2371,-3.2345,-3.2154,-3.197,-3.1935,-3.1923,-3.1929,-3.1929,-3.1856,-3.1802,-3.1802,-3.1691,-3.1559,-3.1559,-3.1179,-3.0804,-3.0804,-3.036,-2.9919,-2.9919,-2.954,-2.915,-2.915,-2.9453,-2.9723,-2.9909,-3.0851,-3.1619,-3.1911,-3.2431,-3.2773,-3.2843,-3.2648,-3.2523,-3.2398,-3.2523,-3.2523,-3.2398,-3.2398,-3.2453,-3.2523,-3.2578,-3.2703,-3.2935,-3.3043,-3.315,-3.3256,-3.3309,-3.3414,-3.3607,-3.3607,-3.371,-3.3899,-3.3949,-3.4,-2.8035,0.0,-3.014,-3.1007,-3.2091,-3.2699,-3.1632,-3.2732,-3.3748,-3.2871,-3.3299,-3.3821,-3.3879,-3.4375,-3.4754,-3.4792,-3.581,-3.6633,-3.6645,-3.6597,-3.6572,-3.6609,-3.6795,-3.7156,0.0,-4.0553,-4.2325,-4.2257,-4.2013,-4.1957,-4.2089,-4.2018,-4.2025,-4.2134,-4.2227,-4.2252,-4.2252,-4.23,-4.1836,-4.0785,-4.0547,-3.9779,-3.8554,-3.8263,-3.7834,-3.7234,-3.7189,-3.6328,-3.4947,-3.5677,-3.4863,-3.3239,-3.3973,-3.3347,-3.2031,-3.2053,-3.1991,-3.182,-3.1696,-3.1623,-3.1581,-3.1551,-3.1517,-3.1517,-3.1517,-3.1517,-3.1517,-3.1517,-3.1517,-3.1517,-3.1517,-3.1157,-3.0804,-3.0804,-3.0107,-2.9406,-2.9406,-2.8997,-2.8621,-2.8621,-2.9033,-2.9627,-3.0274,-3.0951,-3.1613,-3.2259,-3.2382,-3.2453,-3.2578,-3.2523,-3.2398,-3.2398,-3.2398,-3.2398,-3.2398,-3.2398,-3.2398,-3.2398,-3.2523,-3.2578,-3.2578,-3.2935,-3.3096,-3.3112,-3.3256,-3.3293,-3.3293,-3.3293,-3.3309,-3.3346,-3.3607,-3.3694,-2.7007,0.0,-2.9757,-3.0804,-3.186,-3.2676,-3.2798,-3.2402,-3.2043,-3.2166,-3.1543,-3.1073,-3.1541,-3.178,-3.2154,-3.2933,-3.3497,-3.3935,-3.4127,-3.4189,-3.4207,-3.4105,-3.4714,0.0,0.0,0.0,0.0,-4.0691,-4.1181,-4.1516,-4.1669,-4.1166,-4.0943,-4.0979,-4.0979,-4.1033,-4.1087,-4.1095,-4.0801,-4.0225,-3.9228,-3.819,-3.7166,-3.7036,-3.6588,-3.5915,-3.5375,-3.4722,-3.3978,-3.3725,-3.2954,-3.2002,-3.2265,-3.1914,-3.1252,-3.1246,-3.1234,-3.1234,-3.1455,-3.1521,-3.1547,-3.1513,-3.1496,-3.1423,-3.1117,-3.1021,-3.0982,-3.0666,-3.0526,-3.0444,-3.0444,-3.0064,-2.9689,-2.9689,-2.9212,-2.8748,-2.8748,-2.8573,-2.8444,-2.8444,-2.9304,-3.0099,-3.0262,-3.1267,-3.2136,-3.2367,-3.2398,-3.2398,-3.2453,-3.2453,-3.2398,-3.2398,-3.2398,-3.2398,-3.2398,-3.2398,-3.2398,-3.2398,-3.2453,-3.2523,-3.2594,-3.2703,-3.2866,-3.3112,-3.315,-3.3203,-3.3309,-3.3309,-3.3309,-3.3309,-3.3398,-3.345,-2.6664,-2.8172,-2.9595,-3.0168,-3.0998,-3.1732,-3.2034,-3.1392,-3.0901,-3.1381,-3.0551,-2.989,-3.0401,-3.0319,-3.0534,-3.1637,-3.2028,-3.2358,-3.284,-3.2961,-3.3082,-3.3226,-3.3802,-3.4601,0.0,0.0,0.0,-3.9268,-3.9913,-4.0302,-4.04,-4.0011,-3.9782,-3.9782,-3.9822,-3.9833,-3.9719,-3.9795,-3.9642,-3.9213,-3.7891,-3.6934,-3.6416,-3.6008,-3.5438,-3.4773,-3.4169,-3.3641,-3.3109,-3.25,-3.193,-3.1393,-3.141,-3.12,-3.0891,-3.0898,-3.0922,-3.0938,-3.1183,-3.1309,-3.1303,-3.1303,-3.1286,-3.119,-3.0683,-3.0543,-3.0444,-3.0005,-2.9789,-2.9745,-2.9745,-2.9361,-2.8982,-2.8982,-2.859,-2.8266,-2.8266,-2.8266,-2.8266,-2.8266,-2.9154,-2.9852,-2.98,-3.0937,-3.1956,-3.2201,-3.2247,-3.2287,-3.2398,-3.2342,-3.2342,-3.2398,-3.2398,-3.2398,-3.2398,-3.2398,-3.2398,-3.2398,-3.2398,-3.2453,-3.2523,-3.2578,-3.2703,-3.2935,-3.2989,-3.3043,-3.315,-3.315,-3.315,-3.315,-3.315,-3.315,-2.6995,-2.8431,-2.9512,-2.9152,-2.9525,-2.9913,-2.9477,-2.9765,-3.0157,-3.0354,-3.0199,-3.0092,0.0,0.0,-2.9855,-3.0884,-3.1373,-3.1938,-3.2777,-3.2884,-3.3119,0.0,0.0,0.0,0.0,0.0,0.0,-3.7907,0.0,-3.8382,-3.8382,-3.8578,-3.8676,-3.8658,-3.8792,-3.8646,-3.8259,-3.8436,-3.831,-3.7859,-3.6611,-3.6091,-3.6167,-3.5223,-3.4411,-3.3784,-3.3576,-3.3019,-3.2268,-3.2034,-3.1683,-3.1308,-3.135,-3.1133,-3.0874,-3.0874,-3.0864,-3.0831,-3.084,-3.084,-3.0871,-3.0912,-3.0871,-3.0733,-3.0225,-3.0038,-2.9951,-2.9451,-2.9316,-2.9316,-2.9316,-2.9012,-2.8638,-2.8638,-2.8301,-2.802,-2.802,-2.7955,-2.7955,-2.8005,-2.8531,-2.9016,-2.9091,-3.0098,-3.1142,-3.1777,-3.1868,-3.1981,-3.2287,-3.2231,-3.2191,-3.2327,-3.2342,-3.2342,-3.2398,-3.2398,-3.2398,-3.2398,-3.2398,-3.2398,-3.2398,-3.2523,-3.2578,-3.2594,-3.2773,-3.2897,-3.2897,-3.2897,-3.2897,-3.2897,-3.2897,-3.2897,-2.6606,-2.7611,-2.8416,-2.8386,-2.8562,-2.8866,-2.929,-2.8525,-2.7908,-2.8703,-2.8206,-2.7707,0.0,0.0,0.0,-3.0226,-3.0556,0.0,-3.2364,-3.2525,0.0,-3.2755,0.0,-3.4006,-3.4991,-3.5243,0.0,0.0,-3.7538,-3.8086,-3.8086,-3.8318,-3.8401,-3.8204,-3.8219,-3.8083,-3.779,-3.7614,-3.7487,-3.7395,-3.6816,-3.5972,-3.4871,-3.462,-3.3717,-3.2318,-3.2056,-3.163,-3.1032,-3.0836,-3.0533,-3.0234,-3.0428,-3.0455,-3.0415,-3.0576,-3.0401,-3.007,-3.0087,-3.0156,-3.0351,-3.0773,-3.041,-2.9777,-2.9629,-2.9316,-2.8966,-2.8494,-2.8365,-2.8365,-2.8365,-2.8268,-2.8186,-2.8186,-2.8103,-2.802,-2.802,-2.7625,-2.7458,-2.7905,-2.845,-2.9197,-3.0327,-3.028,-3.0187,-3.048,-3.0435,-3.0615,-3.1392,-3.1465,-3.1465,-3.1522,-3.1522,-3.1694,-3.2191,-3.2247,-3.2287,-3.2398,-3.2398,-3.2398,-3.2398,-3.2453,-3.2523,-3.2594,-3.2648,-3.2773,-3.2897,-3.2897,-3.2897,-3.2897,-3.2897,-3.2897,-2.6541,-2.74,-2.8075,-2.7893,-2.7776,-2.79,-2.8546,-2.7791,-2.7173,-2.7812,-2.7543,0.0,-2.737,0.0,0.0,0.0,0.0,0.0,-3.1687,-3.2109,-3.2407,0.0,-3.3403,0.0,-3.4996,-3.5495,-3.5837,0.0,-3.6792,-3.7289,-3.7289,-3.7716,-3.7879,-3.7756,-3.7667,-3.7505,-3.7193,-3.6939,-3.6589,-3.609,-3.5578,-3.4616,-3.3242,-3.29,-3.2202,-3.1251,0.0,-3.0745,-3.0459,-3.0174,-2.996,-2.9786,-2.9962,-2.9918,-2.9754,-2.9897,-2.9645,-2.9332,-2.9332,-2.9225,-2.9255,-2.9924,-2.975,-2.9196,-2.8904,-2.8638,-2.8319,-2.7775,-2.764,-2.764,-2.7705,-2.7755,-2.7755,-2.779,-2.784,-2.774,-2.7473,-2.7373,-2.7428,-2.7788,-2.8088,-2.8598,-2.9723,-2.9537,-2.9379,-2.9723,-2.969,-2.9752,-3.0133,-3.0375,-3.0615,-3.0689,-3.0674,-3.0807,-3.1218,-3.1218,-3.1276,-3.1319,-3.142,-3.1549,-3.1849,-3.1977,-3.2176,-3.2523,-3.2523,-3.2578,-3.2648,-3.2648,-3.2648,-3.2648,-3.2648,-3.2648,-2.6657,-2.742,-2.8081,-2.7612,-2.7233,-2.707,-2.7554,-2.7274,-2.6943,-2.7157,0.0,-2.7437,-2.7566,-2.7643,-2.7976,-2.8959,0.0,-3.0182,-3.0973,-3.1603,-3.2283,-3.2904,-3.381,-3.4648,-3.5331,-3.6177,-3.6396,-3.5685,-3.5951,-3.6168,-3.631,-3.6915,-3.718,-3.7,-3.6814,-3.6658,-3.6446,-3.6074,-3.5469,-3.4624,-3.3836,-3.2842,-3.1707,-3.1026,-3.0628,-3.0531,0.0,0.0,-3.019,-2.982,-2.9704,-2.9627,-2.9665,-2.9422,-2.9088,-2.9134,-2.8904,-2.8591,-2.8591,-2.8255,-2.7963,-2.8795,-2.8935,-2.8748,-2.8207,-2.8027,-2.7879,-2.7372,-2.7181,-2.7233,-2.735,-2.735,-2.7386,-2.7524,-2.7473,-2.7306,-2.6774,-2.7054,-2.744,-2.7516,-2.7537,-2.7732,-2.8377,-2.8413,-2.858,-2.9122,-2.9254,-2.9079,-2.8661,-2.9219,-2.9704,-2.9827,-2.9827,-2.9889,-2.995,-2.995,-2.995,-3.0011,-3.0119,-3.0451,-3.0999,-3.1218,-3.158,-3.2089,-3.2145,-3.2145,-3.2089,-3.2145,-3.2145,-3.2089,-3.2216,-3.2287,-2.6615,-2.7175,-2.7547,-2.7431,-2.708,-2.6758,-2.6873,-2.6117,0.0,0.0,-2.5727,-2.5856,-2.5965,-2.6799,-2.7695,-2.8488,0.0,0.0,0.0,0.0,-3.1411,0.0,0.0,0.0,0.0,0.0,0.0,0.0,0.0,-3.4958,-3.5852,-3.6327,-3.5988,-3.4795,-3.4518,-3.4627,-3.5204,-3.4175,-3.3879,-3.4253,-3.3168,-3.223,-3.1457,-3.1302,-3.0888,-3.0251,-2.9982,0.0,-2.9609,-2.934,-2.9045,-2.8732,-2.8951,-2.8795,-2.848,-2.867,-2.848,-2.8046,-2.8046,-2.773,-2.7458,-2.8448,-2.8222,-2.761,-2.7864,-2.768,-2.7321,-2.7233,-2.7181,-2.7233,-2.7233,-2.7233,-2.7233,-2.7269,-2.6893,-2.651,-2.6404,-2.6384,-2.6569,-2.7072,-2.7301,-2.7566,-2.8211,-2.7944,-2.7723,-2.7815,-2.7842,-2.7842,-2.7723,-2.8481,-2.898,-2.898,-2.9044,-2.9219,-2.9766,-2.9827,-2.9889,-3.0011,-3.0011,-3.0072,-3.0179,-3.036,-3.0451,-3.0585,-3.0733,-3.0733,-3.0571,-3.0733,-3.0733,-3.0585,-3.1334,-3.1595,-2.6124,-2.6411,-2.6442,-2.6765,-2.6541,-2.6191,-2.6191,0.0,0.0,0.0,-2.5711,-2.5832,-2.573,-2.6354,0.0,0.0,0.0,0.0,0.0,0.0,0.0,0.0,0.0,0.0,0.0,0.0,0.0,0.0,0.0,0.0,-3.4394,-3.4725,-3.4567,-3.3778,-3.3389,-3.3388,-3.3768,-3.3014,-3.2486,-3.2192,-3.1708,-3.0985,-3.005,-3.0062,-2.9842,-2.9499,-2.9374,0.0,-2.8983,-2.8826,-2.8559,-2.8207,-2.8304,-2.8174,-2.786,-2.8008,-2.7745,-2.7342,-2.7342,-2.7167,-2.7078,-2.7545,-2.7458,-2.7233,-2.7357,-2.7269,-2.7093,-2.7041,-2.6974,-2.6922,-2.6683,-2.6616,-2.6563,-2.6336,-2.5783,-2.5521,-2.6142,-2.5986,-2.6003,-2.687,-2.7105,-2.7262,-2.7736,-2.759,-2.7403,-2.7456,-2.7523,-2.7523,-2.7523,-2.7842,-2.8105,-2.8105,-2.8105,-2.8274,-2.8583,-2.8583,-2.8648,-2.8712,-2.8776,-2.903,-2.9345,-2.949,-2.9737,-3.0119,-3.0194,-3.0194,-3.0119,-3.0194,-3.0194,-3.0119,-3.0495,-3.0689,-2.5358,-2.5494,-2.5433,-2.6086,-2.5899,-2.5572,-2.561,-2.5717,0.0,0.0,-2.5885,-2.5977,-2.5779,0.0,-2.6298,0.0,-2.6731,0.0,0.0,0.0,0.0,0.0,0.0,0.0,0.0,0.0,0.0,0.0,0.0,0.0,-3.3014,-3.3157,-3.3085,-3.2672,-3.233,-3.2249,-3.2309,-3.1773,-3.1164,-3.0384,-3.019,-2.9642,-2.8773,-2.8762,-2.8732,-2.8686,-2.8669,0.0,0.0,-2.8174,-2.7947,-2.7615,-2.765,-2.7479,-2.7181,-2.7233,-2.7041,-2.6712,-2.6712,-2.6674,-2.6621,-2.65,-2.6765,-2.7078,-2.6832,-2.6779,-2.6727,-2.65,-2.6433,-2.6326,-2.596,-2.5837,-2.5728,-2.5231,-2.4832,-2.4813,-2.5735,-2.5625,-2.5651,-2.6671,-2.6943,-2.7011,-2.7134,-2.7201,-2.7268,-2.7403,-2.7403,-2.7403,-2.7403,-2.7403,-2.7469,-2.7469,-2.7469,-2.7523,-2.7523,-2.7523,-2.7523,-2.7523,-2.7656,-2.7973,-2.8481,-2.8648,-2.9016,-2.9518,-2.958,-2.958,-2.9518,-2.958,-2.958,-2.9518,-2.9704,-2.9766,-2.4236,-2.4656,-2.5063,-2.5539,-2.5368,-2.5121,-2.5368,0.0,-2.4728,-2.524,-2.523,-2.5182,-2.5465,-2.5872,-2.6123,-2.6087,-2.6189,-2.6488,0.0,0.0,0.0,0.0,0.0,0.0,0.0,0.0,0.0,0.0,0.0,0.0,0.0,-3.2341,-3.1658,-3.0608,-3.0549,-3.0674,-3.1063,-2.996,-2.9656,-3.0194,-2.9123,-2.8585,-2.8632,-2.8604,-2.8367,-2.7997,-2.7997,0.0,0.0,-2.7232,-2.699,-2.6654,-2.6901,-2.6745,-2.6457,-2.6712,-2.6645,-2.6351,-2.6351,-2.6204,-2.5893,-2.5467,-2.6028,-2.6727,-2.6179,-2.6002,-2.5879,-2.53,-2.5189,-2.5189,-2.5119,-2.5119,-2.4951,-2.435,-2.4524,-2.4905,-2.4925,-2.525,-2.5778,-2.6408,-2.6658,-2.6726,-2.6726,-2.6943,-2.7024,-2.7011,-2.7011,-2.7011,-2.7011,-2.7214,-2.7335,-2.7335,-2.7403,-2.7523,-2.7523,-2.7523,-2.7523,-2.7523,-2.7523,-2.759,-2.759,-2.7776,-2.7973,-2.8026,-2.8183,-2.8183,-2.8026,-2.8197,-2.8183,-2.8026,-2.8762,-2.9016,-2.3406,-2.3803,-2.397,-2.4552,-2.4637,-2.4599,-2.4623,0.0,-2.4608,-2.467,-2.4614,-2.4639,-2.4855,-2.5052,-2.5192,-2.54,-2.5422,-2.5778,-2.6744,0.0,0.0,0.0,0.0,0.0,0.0,0.0,0.0,0.0,0.0,0.0,0.0,-3.0839,-3.058,-3.014,-2.9585,-2.9428,-2.9667,-2.8575,-2.8182,-2.8591,-2.776,-2.7416,-2.7476,-2.7437,-2.7399,-2.7297,-2.7297,0.0,0.0,-2.6745,-2.6496,-2.615,-2.5946,-2.5783,-2.5618,-2.5439,-2.5329,-2.5204,-2.5204,-2.5161,-2.5063,-2.4824,-2.505,-2.5384,-2.5119,-2.5063,-2.4993,-2.4867,-2.4811,-2.4768,-2.4509,-2.4163,-2.3916,-2.3978,-2.4185,-2.4531,-2.5161,-2.5448,-2.5774,-2.6352,-2.6521,-2.644,-2.607,-2.607,-2.6057,-2.5697,-2.5615,-2.5615,-2.5615,-2.5685,-2.5742,-2.5742,-2.6812,-2.7523,-2.7523,-2.7523,-2.7523,-2.7523,-2.7523,-2.7523,-2.7523,-2.759,-2.759,-2.759,-2.7669,-2.7669,-2.759,-2.7669,-2.7669,-2.7656,-2.796,-2.8091,-2.2189,-2.2619,-2.2718,-2.3302,-2.3525,-2.358,0.0,0.0,-2.4002,-2.3964,-2.4146,-2.4399,-2.4568,-2.4779,-2.4967,-2.5096,-2.5145,-2.5385,-2.6108,0.0,0.0,0.0,0.0,0.0,0.0,0.0,0.0,0.0,0.0,0.0,0.0,-2.9512,-2.9512,-2.9556,-2.8966,-2.856,-2.8389,-2.762,-2.7215,-2.7088,-2.678,-2.6648,-2.6637,-2.6674,-2.6573,-2.6347,0.0,0.0,0.0,-2.5659,-2.5453,-2.5189,-2.4951,-2.4838,-2.4838,-2.4584,-2.4469,-2.4355,-2.4355,-2.4297,-2.4182,-2.4079,-2.4021,-2.4021,-2.3846,-2.4008,-2.4239,-2.4137,-2.4137,-2.4021,-2.3767,-2.3432,-2.3367,-2.3767,-2.3977,-2.4233,-2.4892,-2.5117,-2.5276,-2.5522,-2.5693,-2.5652,-2.5205,-2.5134,-2.504,-2.4601,-2.4529,-2.4529,-2.4529,-2.4601,-2.4601,-2.4601,-2.5881,-2.6812,-2.704,-2.7108,-2.7175,-2.7456,-2.7523,-2.7523,-2.7523,-2.7523,-2.7523,-2.7523,-2.7523,-2.7523,-2.7523,-2.7523,-2.7469,-2.7469,-2.7469,-2.7403,-2.0421,-2.0948,-2.1506,-2.186,-2.1941,-2.1974,0.0,-2.2239,-2.2483,-2.3084,-2.3822,-2.4507,-2.4821,-2.5455,-2.5758,-2.5423,-2.54,-2.531,-2.5076,0.0,0.0,0.0,0.0,0.0,0.0,0.0,0.0,0.0,0.0,0.0,0.0,-2.8591,-2.84,-2.8511,-2.8511,-2.8038,-2.7139,-2.7082,-2.6787,-2.6201,-2.6427,-2.6469,-2.6529,-2.6621,-2.6119,0.0,0.0,0.0,0.0,-2.3636,-2.3636,-2.3636,-2.3904,-2.4021,-2.4079,-2.4355,-2.4297,-2.4021,-2.4021,-2.3859,-2.3518,-2.3078,-2.2909,-2.2848,-2.2371,-2.2884,-2.3458,-2.2909,-2.2739,-2.2739,-2.2751,-2.3083,-2.354,-2.3666,-2.3947,-2.4145,-2.3845,-2.3979,-2.3971,-2.3629,-2.3847,-2.4108,-2.412,-2.412,-2.4108,-2.4108,-2.4108,-2.4108,-2.4108,-2.4264,-2.4409,-2.4409,-2.4612,-2.5098,-2.6045,-2.6114,-2.6539,-2.7456,-2.7523,-2.7523,-2.7523,-2.7523,-2.7523,-2.7523,-2.7523,-2.7523,-2.7523,-2.7523,-2.7403,-2.7268,-2.7268,-2.7214,-1.849,-1.9322,-1.9957,-2.0797,-2.1616,-2.2215,-2.2201,-2.2536,-2.2931,-2.3053,-2.3568,-2.4034,-2.402,-2.4534,-2.4846,-2.4476,-2.4462,-2.4431,0.0,0.0,0.0,0.0,0.0,0.0,0.0,0.0,0.0,0.0,0.0,0.0,0.0,-2.6879,-2.696,-2.7784,-2.744,-2.6985,-2.6335,-2.6073,-2.5866,-2.5785,-2.5589,-2.5281,-2.4989,-2.5034,0.0,0.0,0.0,0.0,0.0,-2.3577,-2.3577,-2.3577,-2.3352,-2.3245,-2.3245,-2.2992,-2.2884,-2.2763,-2.2763,-2.2372,-2.1865,-2.169,-2.1376,-2.0933,-2.0816,-2.1639,-2.2531,-2.1963,-2.1577,-2.1239,-2.1239,-2.1608,-2.2004,-2.2417,-2.2868,-2.3176,-2.3167,-2.3303,-2.3404,-2.3338,-2.3511,-2.3587,-2.3368,-2.335,-2.3128,-2.2606,-2.2531,-2.2531,-2.2531,-2.2596,-2.2606,-2.2606,-2.267,-2.3379,-2.5028,-2.5169,-2.524,-2.5591,-2.5591,-2.566,-2.5812,-2.6252,-2.662,-2.6769,-2.7121,-2.7335,-2.7335,-2.7214,-2.7146,-2.7079,-2.7079,-2.7079,-1.657,-1.7937,-1.8667,-1.9239,-1.9934,0.0,-2.0734,-2.1237,-2.1677,-2.1838,-2.2724,-2.3418,-2.3258,-2.3992,-2.4498,-2.4232,-2.4028,-2.3858,0.0,0.0,0.0,0.0,0.0,0.0,0.0,0.0,0.0,0.0,0.0,0.0,0.0,0.0,-2.5915,-2.6179,-2.6329,-2.6098,-2.5614,-2.5378,-2.5066,-2.4654,-2.4469,-2.4131,-2.3754,-2.3813,0.0,0.0,0.0,0.0,0.0,-2.3053,-2.2919,-2.2665,-2.2322,-2.2087,-2.1827,-2.1526,-2.1411,-2.1411,-2.1411,-2.1135,-2.0741,-2.0741,-2.042,-2.0096,-2.0096,-2.0688,-2.1336,-2.1008,-2.0677,-2.0442,-2.0631,-2.0964,-2.1439,-2.1996,-2.2281,-2.2455,-2.2485,-2.244,-2.2371,-2.2208,-2.2462,-2.2692,-2.2499,-2.2478,-2.2402,-2.1883,-2.1807,-2.1807,-2.1807,-2.1807,-2.1807,-2.1807,-2.1807,-2.2306,-2.3526,-2.394,-2.4302,-2.466,-2.4732,-2.4732,-2.4886,-2.5322,-2.5615,-2.5755,-2.6114,-2.6321,-2.6321,-2.6427,-2.6577,-2.6875,-2.6807,-2.6807,0.0,-1.6404,-1.7369,-1.7287,0.0,0.0,-1.8179,-1.8731,0.0,-1.9831,-2.1305,-2.2515,-2.2477,-2.3537,-2.4372,-2.4203,-2.3774,0.0,0.0,0.0,0.0,0.0,0.0,0.0,0.0,0.0,0.0,0.0,0.0,0.0,0.0,0.0,-2.5039,-2.3907,-2.4956,-2.5286,-2.4772,-2.4777,-2.4226,-2.3032,-2.3138,-2.3015,-2.2737,-2.2845,0.0,0.0,0.0,0.0,0.0,-2.2061,-2.1663,-2.0996,-2.0996,-2.0677,-2.0096,-2.0096,-2.0096,-2.0096,-2.0096,-2.0096,-2.0031,-1.9977,-1.9966,-1.9966,-1.9966,-1.9966,-2.0031,-2.0031,-1.9966,-2.0009,-2.0474,-2.095,-2.1485,-2.2106,-2.2093,-2.1889,-2.1607,-2.136,-2.1034,-2.0537,-2.1024,-2.1471,-2.1502,-2.1686,-2.1838,-2.1807,-2.1838,-2.1849,-2.1807,-2.1807,-2.1807,-2.1807,-2.1807,-2.1807,-2.1807,-2.2585,-2.3514,-2.4446,-2.4517,-2.4517,-2.4517,-2.4589,-2.4589,-2.4589,-2.4672,-2.466,-2.466,-2.5193,-2.5849,-2.6508,-2.6371,-2.6314,-1.0857,0.0,-1.4681,-1.5437,-1.6382,-1.7111,0.0,-1.8157,-1.8998,-1.9137,-1.9879,-2.0387,-2.0175,-2.0892,-2.1392,-2.0926,-2.1264,0.0,0.0,0.0,0.0,0.0,0.0,0.0,0.0,0.0,0.0,0.0,0.0,0.0,0.0,0.0,-2.283,-2.2583,-2.2845,-2.2882,-2.279,-2.2902,-2.2809,-2.2482,-2.197,-2.1452,-2.1042,-2.1091,0.0,0.0,0.0,0.0,-2.0386,-2.0549,-2.0495,-2.0366,-2.0366,-2.0226,-2.0096,-2.0096,-2.0096,-2.0096,-2.0096,-1.9704,-1.9177,-1.8664,-1.8462,-1.8462,-1.8462,-1.8854,-1.9243,-1.9243,-1.8921,-1.8562,-1.8993,-1.9444,-1.9958,-2.039,-2.0691,-2.0824,-2.0452,-2.0377,-2.0361,-2.0307,-2.0537,-2.0878,-2.1221,-2.172,-2.1988,-2.163,-2.203,-2.2211,-2.1849,-2.1807,-2.1807,-2.1807,-2.1807,-2.1807,-2.1807,-2.2014,-2.2231,-2.2446,-2.2446,-2.2521,-2.267,-2.3231,-2.3649,-2.3806,-2.4253,-2.4397,-2.4253,-2.4397,-2.4552,-2.4696,-2.4696,-2.4624,-0.7956,-1.0029,-1.224,-1.2818,-1.3467,-1.408,-1.4426,-1.5035,-1.5791,-1.667,0.0,-1.7969,-1.8459,-1.8859,-1.9111,-1.9115,-1.8939,0.0,0.0,0.0,0.0,0.0,0.0,0.0,0.0,0.0,0.0,0.0,0.0,0.0,0.0,0.0,-2.1206,-2.093,-2.0894,-2.1255,-2.2089,-2.1898,-2.171,-2.1381,-2.0527,-1.9907,-1.9559,-1.9348,-1.9004,0.0,0.0,0.0,-1.9156,-1.9404,-1.9437,-1.9275,-1.9412,-1.9375,-1.9121,-1.9121,-1.9121,-1.9121,-1.9121,-1.8643,-1.7891,-1.7079,-1.6872,-1.6872,-1.6872,-1.7139,-1.7531,-1.8317,-1.8269,-1.8154,-1.8779,-1.9111,-1.9443,-2.0068,-2.0391,-2.0498,-2.0264,-2.0301,-2.0377,-2.0358,-2.0529,-2.0831,-2.1271,-2.1537,-2.1713,-2.1663,-2.1839,-2.1932,-2.1686,-2.1731,-2.1645,-2.1252,-2.1175,-2.1175,-2.1175,-2.1175,-2.1405,-2.1797,-2.1807,-2.1883,-2.1949,-2.2381,-2.2585,-2.2734,-2.3032,-2.3338,-2.3632,-2.3632,-2.3768,-2.4108,-2.4108,-2.4108,-0.5263,-0.7299,-0.9414,-0.9921,-1.0082,-1.0375,-1.1003,-1.1298,-1.1806,0.0,0.0,-1.5175,-1.6278,-1.6541,0.0,0.0,0.0,0.0,0.0,0.0,0.0,0.0,0.0,0.0,0.0,0.0,0.0,0.0,0.0,0.0,0.0,-2.032,-1.9918,-1.9375,-1.9361,-1.9976,-2.136,-2.102,-2.0584,-1.9889,-1.9009,-1.8365,-1.7996,-1.7678,-1.7615,0.0,0.0,0.0,-1.808,-1.8438,-1.8328,-1.7911,-1.8282,-1.8094,-1.7579,-1.7579,-1.7579,-1.7579,-1.7579,-1.7148,-1.6515,-1.5745,-1.5463,-1.5463,-1.5463,-1.5463,-1.5745,-1.7157,-1.7627,-1.8004,-1.901,-1.918,-1.9274,-2.014,-2.0323,-2.0167,-2.0167,-2.0167,-2.0167,-2.0167,-2.0333,-2.0556,-2.0973,-2.0957,-2.1017,-2.1312,-2.1263,-2.1201,-2.1131,-2.1215,-2.1061,-2.0478,-2.0303,-2.0323,-2.04,-2.0342,-2.0615,-2.1405,-2.1645,-2.1807,-2.1807,-2.1807,-2.1807,-2.1807,-2.1807,-2.2111,-2.2852,-2.2852,-2.3128,-2.3756,-2.3756,-2.3756,-0.194,-0.2828,-0.446,-0.7487,-0.8685,-0.9216,-0.912,-0.989,-1.0404,0.0,0.0,0.0,0.0,-1.227,0.0,0.0,0.0,0.0,0.0,0.0,0.0,0.0,0.0,0.0,0.0,0.0,0.0,0.0,0.0,0.0,0.0,0.0,-1.8742,-1.869,-1.8674,-1.8454,-1.8105,-1.864,-1.8675,-1.8271,-1.7302,-1.6645,-1.6302,-1.6243,-1.5969,0.0,0.0,-1.6968,-1.6854,-1.7137,-1.6958,-1.6633,-1.6688,-1.6228,-1.5658,-1.5658,-1.5658,-1.5658,-1.5658,-1.5587,-1.5446,-1.5305,-1.5234,-1.5234,-1.5234,-1.5234,-1.5305,-1.5587,-1.6039,-1.6909,-1.8787,-1.8489,-1.802,-1.9182,-1.8966,-1.8399,-1.8399,-1.8399,-1.8399,-1.8399,-1.8399,-1.8521,-1.8915,-1.9445,-1.9609,-1.9333,-1.9686,-1.9897,-1.9553,-1.9208,-1.9343,-1.996,-1.9507,-1.9323,-1.9832,-1.9617,-1.958,-1.9659,-2.1011,-2.1807,-2.1807,-2.1807,-2.1807,-2.1807,-2.1807,-2.1883,-2.1959,-2.1959,-2.2025,-2.2166,-2.2166,-2.209,0.178,0.1458,0.0458,-0.239,-0.4838,-0.6432,-0.581,-0.605,-0.6266,0.0,0.0,0.0,0.0,0.0,0.0,0.0,0.0,0.0,0.0,0.0,0.0,0.0,0.0,0.0,0.0,0.0,0.0,0.0,0.0,0.0,0.0,0.0,-1.6374,-1.6401,-1.6376,-1.6228,-1.5882,-1.6228,-1.6387,-1.6354,-1.5379,-1.474,-1.4372,-1.4363,-1.4176,-1.4021,0.0,-1.4906,-1.4889,-1.5179,-1.5292,-1.5238,-1.5449,-1.5384,-1.5234,-1.5234,-1.5234,-1.5163,-1.4673,-1.453,-1.4458,-1.3954,-1.381,-1.381,-1.381,-1.381,-1.3882,-1.4394,-1.521,-1.6159,-1.7344,-1.7438,-1.7369,-1.8223,-1.8238,-1.7997,-1.7997,-1.7997,-1.7997,-1.7997,-1.7997,-1.8186,-1.8768,-1.8748,-1.8754,-1.8903,-1.8981,-1.8997,-1.895,-1.8865,-1.8897,-1.905,-1.8614,-1.8439,-1.8694,-1.8438,-1.8541,-1.9256,-2.0051,-2.0605,-2.1098,-2.1098,-2.1328,-2.1807,-2.1807,-2.1731,-2.1655,-2.1902,-2.1937,-2.1791,-2.2036,-2.2147,0.4881,0.4783,0.4306,0.2868,-0.0306,-0.2897,-0.202,-0.1794,-0.1868,0.0,0.0,0.0,0.0,0.0,0.0,0.0,0.0,0.0,0.0,0.0,0.0,0.0,0.0,0.0,0.0,0.0,0.0,0.0,0.0,0.0,0.0,0.0,-1.4601,-1.4593,-1.4593,-1.4521,-1.4359,-1.4353,-1.4449,-1.4681,-1.3963,-1.3394,-1.3052,-1.3044,-1.3012,-1.3107,-1.3302,-1.3467,-1.3561,-1.3844,-1.4063,-1.415,-1.4435,-1.4537,-1.4522,-1.4522,-1.4522,-1.445,-1.3818,-1.3608,-1.3462,-1.2739,-1.2378,-1.2231,-1.2231,-1.2231,-1.2372,-1.3091,-1.4116,-1.5181,-1.6062,-1.6419,-1.6677,-1.7349,-1.7423,-1.735,-1.735,-1.735,-1.735,-1.735,-1.735,-1.7557,-1.8201,-1.7854,-1.7672,-1.8225,-1.8062,-1.7937,-1.8221,-1.833,-1.8397,-1.8096,-1.7656,-1.7443,-1.7363,-1.7187,-1.7423,-1.847,-1.8939,-1.9413,-2.0051,-2.006,-2.0372,-2.1001,-2.1078,-2.1088,-2.1108,-2.1429,-2.1659,-2.1779,-2.2211,-2.2341,0.6605,0.6112,0.5816,0.7065,0.4115,0.1087,0.1874,0.2111,0.0,0.0078,0.0,0.0,0.0,0.0,0.0,0.0,0.0,0.0,0.0,0.0,0.0,0.0,0.0,0.0,0.0,0.0,0.0,0.0,0.0,0.0,0.0,0.0,0.0,-1.4601,-1.4617,-1.4271,-1.3615,-1.3608,-1.3643,-1.3683,-1.3659,-1.3394,-1.3036,-1.2972,-1.3146,-1.338,-1.3404,-1.3608,-1.3992,-1.4016,-1.3862,-1.3571,-1.3593,-1.3171,-1.2519,-1.2519,-1.2519,-1.2519,-1.2445,-1.2445,-1.2445,-1.2372,-1.1855,-1.1186,-1.1186,-1.1186,-1.1186,-1.126,-1.213,-1.3563,-1.5926,-1.592,-1.5462,-1.6535,-1.6147,-1.559,-1.559,-1.559,-1.559,-1.559,-1.559,-1.5701,-1.6056,-1.6078,-1.6063,-1.6107,-1.6322,-1.6565,-1.6587,-1.6587,-1.681,-1.7244,-1.6703,-1.6277,-1.6231,-1.6177,-1.6252,-1.6327,-1.7819,-1.8683,-1.8762,-1.8762,-1.8762,-1.8841,-1.8833,-1.9246,-1.9982,-2.001,-2.0634,-2.1769,-2.18,-2.196,0.9622,0.9173,0.8802,0.85,0.7198,0.0,0.0,0.5622,0.5151,0.3433,0.257,0.0,0.0,0.0,0.0,0.0,0.0,0.0,0.0,0.0,0.0,0.0,0.0,0.0,0.0,0.0,0.0,0.0,0.0,0.0,0.0,0.0,0.0,-1.1662,-1.1694,-1.1545,-1.123,-1.123,-1.1186,-1.1026,-1.2026,-1.2362,-1.1988,-1.1703,-1.1639,-1.1683,-1.1352,-1.1335,-1.1436,-1.1436,-1.1353,-1.123,-1.123,-1.1087,-1.0795,-1.0795,-1.0795,-1.0795,-1.0795,-1.0795,-1.0795,-1.0795,-1.0571,-1.0351,-1.0351,-1.0351,-1.0351,-1.0351,-1.1141,-1.2415,-1.403,-1.4445,-1.4585,-1.526,-1.5325,-1.5257,-1.5347,-1.5431,-1.5431,-1.5431,-1.5431,-1.5533,-1.5862,-1.5752,-1.5679,-1.5884,-1.6016,-1.6155,-1.6345,-1.6543,-1.6808,-1.7024,-1.6374,-1.5945,-1.5702,-1.568,-1.568,-1.568,-1.6558,-1.7269,-1.773,-1.7811,-1.8155,-1.8876,-1.8718,-1.8807,-1.9228,-1.9219,-1.9589,-2.0172,-2.0418,-2.0671,1.1398,1.1193,1.0867,0.9918,0.0,0.0,0.8632,0.8025,0.7273,0.639,0.4964,0.0,0.0,0.0,0.0,0.0,0.0,0.0,0.0,0.0,0.0,0.0,0.0,0.0,0.0,0.0,0.0,0.0,0.0,0.0,0.0,0.0,0.0,0.0,-0.9745,-0.9707,-0.9787,-0.9787,-0.9707,-0.955,-1.0719,-1.1125,-1.0791,-1.0486,-1.0394,-1.0408,-1.0049,-0.9895,-0.9895,-0.9895,-0.9895,-0.9895,-0.9895,-0.9895,-0.9895,-0.9895,-0.9895,-0.9895,-0.9895,-0.9895,-0.9895,-0.9895,-0.9744,-0.9523,-0.9523,-0.9523,-0.9523,-0.9523,-1.0242,-1.1207,-1.2029,-1.2862,-1.3635,-1.4434,-1.4511,-1.4629,-1.5068,-1.5257,-1.5347,-1.5347,-1.5347,-1.5496,-1.5723,-1.5577,-1.542,-1.5376,-1.5405,-1.5453,-1.5381,-1.568,-1.5833,-1.5736,-1.5451,-1.5234,-1.502,-1.5257,-1.5431,-1.5431,-1.5673,-1.6162,-1.6706,-1.6706,-1.7105,-1.8037,-1.7878,-1.8011,-1.8473,-1.8473,-1.8744,-1.9299,-1.9564,-1.9881,1.1706,1.17,1.1706,1.17,0.0,0.0,1.0812,0.9135,0.776,0.8629,0.0,0.4118,0.1052,0.0,0.0,0.0,0.0,0.0,0.0,0.0,0.0,0.0,0.0,0.0,0.0,0.0,0.0,0.0,0.0,0.0,0.0,0.0,0.0,0.0,-0.9364,-0.9394,-0.955,-0.9556,-0.9556,-0.9556,-0.9782,-0.9771,-0.9478,-0.9472,-0.9601,-0.9895,-0.9895,-0.9895,-0.9895,-0.9895,-0.9895,-0.9895,-0.9895,-0.9895,-0.9895,-0.9895,-0.9895,-0.9895,-0.9895,-0.9895,-0.9895,-0.9895,-0.9372,-0.8699,-0.8699,-0.8699,-0.8699,-0.8699,-0.9296,-0.9949,-1.0258,-1.1292,-1.2603,-1.3952,-1.3621,-1.3372,-1.4413,-1.4908,-1.509,-1.509,-1.5257,-1.5347,-1.5347,-1.5347,-1.5082,-1.4223,-1.4302,-1.4222,-1.3342,-1.3493,-1.3554,-1.3279,-1.3709,-1.4055,-1.4055,-1.4915,-1.5347,-1.5347,-1.5347,-1.5347,-1.5431,-1.5431,-1.5584,-1.5913,-1.5913,-1.6492,-1.7676,-1.7668,-1.836,-1.9596,-1.9587,-1.9792,1.3588,1.3265,0.0,1.2002,0.0,0.0,0.0,1.0159,0.0,0.0,0.7744,0.608,0.0,0.0,0.0,0.0,0.0,0.0,0.0,0.0,0.0,0.0,0.0,0.0,0.0,0.0,0.0,0.0,0.0,0.0,0.0,0.0,0.0,0.0,-0.7183,-0.7171,-0.72,-0.778,-0.7476,-0.6303,-0.6995,-0.8192,-0.9793,-0.92,-0.9015,-0.8998,-0.8466,-0.8237,-0.8237,-0.8237,-0.8237,-0.8237,-0.8237,-0.8237,-0.8237,-0.8237,-0.8237,-0.8237,-0.8237,-0.8237,-0.8237,-0.8237,-0.8012,-0.7863,-0.7863,-0.7863,-0.7863,-0.7863,-0.847,-0.9089,-0.9153,-0.9448,-1.0135,-1.1656,-1.1986,-1.2058,-1.245,-1.2788,-1.293,-1.3099,-1.3184,-1.3275,-1.3444,-1.3529,-1.3444,-1.319,-1.3343,-1.3586,-1.3511,-1.3519,-1.3464,-1.3191,-1.3182,-1.3105,-1.3105,-1.336,-1.3529,-1.3529,-1.3529,-1.4048,-1.5347,-1.5431,-1.5679,-1.6221,-1.6023,-1.6351,-1.7154,-1.6695,-1.6843,-1.774,-1.7494,-1.7596,1.4144,1.3739,0.0,1.265,1.226,1.189,1.1284,0.0,0.0,0.0,0.0,0.0,0.0,0.0,0.0,0.0,0.0,0.0,0.0,0.0,0.0,0.0,0.0,0.0,0.0,0.0,0.0,0.0,0.0,0.0,0.0,0.0,0.0,0.0,-0.5385,-0.542,-0.5485,-0.6074,-0.5878,-0.4822,-0.5405,-0.6538,-0.791,-0.746,-0.7238,-0.7238,-0.6703,-0.6475,-0.6475,-0.6475,-0.6475,-0.6475,-0.6475,-0.6475,-0.6475,-0.6475,-0.6475,-0.6475,-0.6475,-0.6475,-0.6475,-0.6475,-0.6475,-0.6475,-0.6475,-0.6475,-0.6553,-0.6861,-0.7318,-0.7778,-0.8165,-0.8246,-0.8625,-1.0369,-1.0719,-1.076,-1.1338,-1.1635,-1.1901,-1.2072,-1.2157,-1.2242,-1.2419,-1.2504,-1.2419,-1.2083,-1.1956,-1.202,-1.2165,-1.2193,-1.2043,-1.1981,-1.2089,-1.2169,-1.2169,-1.251,-1.2674,-1.2674,-1.2674,-1.319,-1.4307,-1.4307,-1.4586,-1.5274,-1.5476,-1.5871,-1.6472,-1.6349,-1.655,-1.7033,-1.6711,-1.6835,1.3912,1.3637,1.3564,1.3492,1.3119,0.0,1.1335,1.1223,1.1074,1.0279,0.0,0.0,0.0,0.0,0.0,0.0,0.0,0.0,0.0,0.0,0.0,0.0,0.0,0.0,0.0,0.0,0.0,0.0,0.0,0.0,0.0,0.0,0.0,0.0,-0.4007,-0.4073,-0.4275,-0.4535,-0.4592,0.0,-0.4714,-0.4768,-0.4768,-0.4927,-0.5004,-0.5004,-0.5004,-0.5004,-0.5004,-0.5004,-0.5004,-0.5004,-0.5004,-0.5004,-0.5004,-0.5004,-0.5004,-0.5004,-0.5004,-0.5004,-0.5004,-0.5004,-0.5004,-0.5004,-0.5004,-0.5004,-0.5157,-0.5854,-0.6096,-0.6257,-0.7099,-0.735,-0.7867,-0.9574,-0.9627,-0.9524,-1.0549,-1.1128,-1.1391,-1.1477,-1.1558,-1.1729,-1.1729,-1.1901,-1.1735,-1.0982,-1.04,-0.9975,-1.0043,-1.0057,-1.0062,-1.0043,-1.0722,-1.1154,-1.1154,-1.1997,-1.2419,-1.2419,-1.2419,-1.2419,-1.2419,-1.2613,-1.2958,-1.3477,-1.4411,-1.5139,-1.5664,-1.6338,-1.6813,-1.7088,-1.6897,-1.6934,1.5463,1.4824,0.0,1.363,1.3419,1.3273,1.2973,1.2573,1.1878,0.0,0.0,0.0,0.0,0.0,0.0,0.0,0.0,0.0,0.0,0.0,0.0,0.0,0.0,0.0,0.0,0.0,0.0,0.0,0.0,0.0,0.0,0.0,0.0,-0.3293,-0.3293,-0.3335,-0.3266,-0.4015,-0.3693,0.0,-0.3174,-0.3288,-0.282,-0.4302,-0.5004,-0.5004,-0.5004,-0.5004,-0.5004,-0.5004,-0.5004,-0.5004,-0.5004,-0.5004,-0.5004,-0.5004,-0.5004,-0.5004,-0.5004,-0.5004,-0.5004,-0.5004,-0.5004,-0.5004,-0.5004,-0.5004,-0.5002,-0.5237,-0.5308,-0.536,-0.5494,-0.6175,-0.6891,-0.7202,-0.7793,-0.8349,-0.8634,-0.9002,-0.934,-0.9515,-0.951,-0.9598,-0.9859,-0.9946,-0.9946,-0.9946,-0.9916,-0.9967,-0.997,-1.0102,-1.014,-1.0057,-1.0212,-1.0294,-1.0294,-1.0463,-1.0549,-1.0549,-1.0549,-1.0549,-1.0549,-1.2105,-1.3151,-1.3477,-1.3866,-1.4217,-1.4434,-1.4458,-1.4929,-1.5841,-1.5759,-1.6267,1.5956,1.5303,0.0,1.394,0.0,1.3419,1.3119,1.282,1.2277,0.0,0.0,0.0,0.0,0.0,0.0,0.0,0.0,0.0,0.0,0.0,0.0,0.0,0.0,0.0,0.0,0.0,0.0,0.0,0.0,0.0,0.0,-0.0148,-0.0445,-0.0963,-0.1111,-0.1184,-0.1109,-0.172,-0.1744,-0.1232,-0.1791,-0.2116,-0.2353,-0.3366,-0.3834,-0.3834,-0.3834,-0.3834,-0.3834,-0.3834,-0.3834,-0.3834,-0.3834,-0.3834,-0.3834,-0.3834,-0.3834,-0.3834,-0.3834,-0.3834,-0.3834,-0.3834,-0.3834,-0.3834,-0.3834,-0.3789,-0.3893,-0.4314,-0.4453,-0.4593,-0.4878,-0.5456,-0.5909,-0.5845,-0.6909,-0.8036,-0.8126,-0.83,-0.8545,-0.8723,-0.874,-0.8828,-0.8915,-0.9087,-0.9174,-0.9432,-0.9522,-0.9641,-0.962,-0.9786,-0.9814,-0.9703,-0.9694,-0.9694,-0.9694,-0.9694,-0.9694,-0.9694,-0.9694,-0.9735,-0.9748,-1.0831,-1.1631,-1.2118,-1.2699,-1.3159,-1.3406,-1.3555,-1.4029,-1.4722,-1.439,-1.4659,1.6114,1.5588,1.52,1.4492,1.4067,0.0,1.3124,1.2896,0.0,0.0,0.0,0.0,0.0,0.0,0.0,0.0,0.0,0.0,0.0,0.0,0.0,0.0,0.0,0.0,0.0,0.0,0.0,0.0,0.0,0.0,0.1326,0.1331,0.1332,0.1326,0.1109,0.1049,0.1071,0.0841,0.0387,-0.0238,-0.0474,-0.1023,-0.1882,-0.196,-0.2195,-0.2511,-0.2511,-0.2511,-0.2511,-0.2511,-0.2511,-0.2511,-0.2511,-0.2511,-0.2511,-0.2511,-0.2511,-0.2511,-0.2511,-0.2511,-0.2511,-0.2511,-0.2511,-0.2512,-0.2523,-0.2561,-0.2752,-0.3405,-0.3603,-0.3728,-0.4411,-0.4711,-0.489,-0.489,-0.627,-0.7564,-0.7735,-0.7967,-0.8119,-0.8269,-0.83,-0.83,-0.83,-0.8384,-0.8464,-0.8727,-0.8727,-0.8727,-0.8811,-0.8811,-0.8811,-0.8811,-0.8811,-0.8903,-0.899,-0.9078,-0.9095,-0.931,-0.931,-0.9398,-0.9505,-0.9754,-1.0036,-1.0534,-1.1389,-1.1942,-1.2287,-1.2696,-1.3076,-1.3521,-1.3064,-1.3093,1.6894,0.0,1.6088,0.0,1.5463,1.5276,0.0,0.0,0.0,0.0,0.0,0.0,0.0,0.0,0.0,0.0,0.0,0.0,0.0,0.0,0.0,0.0,0.0,0.0,0.0,0.0,0.0,0.0,0.0,0.0,0.1319,0.1346,0.1348,0.1398,0.1426,0.1524,0.1528,0.1448,0.1384,0.1249,0.0979,0.0719,0.047,0.0235,-0.0784,-0.2511,-0.2511,-0.2511,-0.2511,-0.2511,-0.2511,-0.2511,-0.2511,-0.2511,-0.2511,-0.2511,-0.2511,-0.2511,-0.2511,-0.2511,-0.2511,-0.2511,-0.2511,-0.252,-0.2574,-0.2595,-0.26,-0.2753,-0.2796,-0.2818,-0.2855,-0.3561,-0.4257,-0.4257,-0.5012,-0.5722,-0.5766,-0.6579,-0.7291,-0.7312,-0.7319,-0.7319,-0.7319,-0.6605,-0.6248,-0.6511,-0.6511,-0.6596,-0.677,-0.677,-0.677,-0.677,-0.677,-0.7122,-0.7921,-0.8009,-0.8432,-0.9413,-0.9516,-0.96,-0.9789,-0.982,-0.9916,-1.0187,-1.0444,-1.0568,-1.0455,-1.0687,-1.1158,-1.1957,-1.2021,-1.2587,1.8062,1.7217,1.6572,0.0,1.601,1.6005,1.5574,0.0,0.0,0.0,0.0,0.0,0.0,0.0,0.0,0.0,0.0,0.0,0.0,0.0,0.0,0.0,0.0,0.0,0.0,0.0,0.0,0.0,0.0,0.3119,0.2798,0.2779,0.2884,0.2855,0.2846,0.2942,0.2981,0.2942,0.2628,0.2099,0.1829,0.139,0.0878,0.1118,0.0476,-0.0783,-0.0783,-0.0783,-0.0784,-0.1019,-0.1097,-0.1097,-0.1333,-0.1413,-0.1491,-0.1882,-0.196,-0.2038,-0.2353,-0.2511,-0.2511,-0.2511,-0.2533,-0.256,-0.2552,-0.2598,-0.2638,-0.257,-0.2594,-0.2621,-0.2533,-0.2895,-0.3307,-0.3266,-0.3644,-0.3957,-0.3955,-0.5102,-0.6162,-0.6328,-0.634,-0.634,-0.634,-0.5985,-0.5719,-0.5894,-0.5894,-0.5894,-0.598,-0.598,-0.598,-0.598,-0.598,-0.6157,-0.6599,-0.6668,-0.6915,-0.7437,-0.7431,-0.7546,-0.7791,-0.7798,-0.7866,-0.8017,-0.9478,-1.0268,-1.029,-1.0177,-1.0364,-1.0665,-1.0654,-1.0886,0.0,0.0,1.7361,1.6919,1.6896,1.6793,0.0,0.0,0.0,0.0,0.0,0.0,0.0,0.0,0.0,0.0,0.0,0.0,0.0,0.0,0.0,0.0,0.0,0.0,0.0,0.0,0.0,0.0,0.0,0.3934,0.3934,0.4022,0.4071,0.4071,0.4026,0.4034,0.4102,0.4034,0.3602,0.2963,0.2797,0.2344,0.1634,0.2046,0.1947,0.1435,0.0866,0.0627,0.0548,0.0313,0.0157,0.0157,-0.0157,-0.0314,-0.0314,-0.0789,-0.1106,-0.1266,-0.1673,-0.1916,-0.1996,-0.2236,-0.2173,-0.2108,-0.2244,-0.2282,-0.2153,-0.2078,-0.2164,-0.2344,-0.2289,-0.2396,-0.2617,-0.2677,-0.2738,-0.2887,-0.3217,-0.4244,-0.5259,-0.5614,-0.5542,-0.5364,-0.5364,-0.5186,-0.501,-0.501,-0.501,-0.501,-0.501,-0.501,-0.501,-0.501,-0.501,-0.5099,-0.5364,-0.537,-0.5535,-0.5839,-0.5954,-0.6072,-0.629,-0.6295,-0.6336,-0.642,-0.8206,-0.9385,-0.9813,-0.9616,-0.962,-0.9924,-0.9727,-0.9628,0.0,1.8844,0.0,1.8589,1.8507,0.0,0.0,0.0,0.0,0.0,0.0,0.0,0.0,0.0,0.0,0.0,0.0,0.0,0.0,0.0,0.0,0.0,0.0,0.0,0.0,0.0,0.0,0.0,0.0,0.4028,0.4028,0.4116,0.4165,0.4165,0.4238,0.4279,0.4285,0.4279,0.424,0.4078,0.4078,0.403,0.3859,0.3861,0.3857,0.3677,0.1518,0.0627,0.0627,0.0548,0.0548,0.0548,0.0548,0.0549,0.055,0.0642,0.0324,-0.0081,0.0,-0.0251,-0.0753,-0.1423,-0.1238,-0.0815,-0.1498,-0.1322,-0.0813,-0.0811,-0.1217,-0.1696,-0.1657,-0.2156,-0.2617,-0.2677,-0.2738,-0.306,-0.4014,-0.4295,-0.4648,-0.5542,-0.5008,-0.4389,-0.4389,-0.3676,-0.3053,-0.3053,-0.3053,-0.3053,-0.3053,-0.3053,-0.3053,-0.3053,-0.3053,-0.3409,-0.43,-0.4468,-0.4924,-0.6056,-0.6176,-0.6293,-0.6407,-0.6415,-0.6418,-0.6423,-0.6517,-0.7114,-0.812,-0.812,-0.8623,-0.9628,-0.9628,-0.9628,0.0,0.0,0.0,1.8601,1.8572,1.8464,0.0,0.0,0.0,0.0,0.0,0.0,0.0,0.0,0.0,0.0,0.0,0.0,0.0,0.0,0.0,0.0,0.0,0.0,0.0,0.0,0.0,0.0,0.0,0.0,0.5477,0.5594,0.5398,0.496,0.4996,0.4746,0.43,0.43,0.4283,0.4255,0.4255,0.4208,0.4124,0.4124,0.4091,0.3948,0.3138,0.2763,0.2726,0.2404,0.2304,0.22,0.1994,0.1845,0.185,0.1561,0.1325,0.1078,0.0753,0.0503,0.0335,-0.0252,-0.0334,-0.0332,-0.0824,-0.0817,-0.0728,-0.0638,-0.0795,-0.0955,-0.0961,-0.113,-0.1475,-0.1958,-0.2096,-0.2401,-0.3224,-0.3409,-0.3497,-0.3855,-0.3587,-0.3409,-0.3409,-0.3142,-0.2875,-0.2875,-0.2875,-0.2875,-0.2875,-0.2875,-0.2875,-0.2875,-0.2875,-0.3069,-0.3469,-0.3539,-0.3703,-0.4162,-0.4245,-0.4301,-0.4329,-0.4331,-0.4331,-0.4331,-0.4331,-0.5229,-0.7021,-0.7021,-0.712,-0.7521,-0.7521,-0.7521,2.0803,0.0,0.0,0.0,0.0,1.8776,0.0,0.0,0.0,0.0,0.0,0.0,0.0,0.0,0.0,0.0,0.0,0.0,0.0,0.0,0.0,0.0,0.0,0.0,0.0,0.0,0.0,0.0,0.0,0.0,0.6294,0.6383,0.6166,0.5725,0.5725,0.5455,0.501,0.501,0.501,0.501,0.4743,0.4625,0.4566,0.4303,0.4181,0.4124,0.4124,0.4057,0.3944,0.3615,0.3502,0.3381,0.3188,0.3043,0.3049,0.2695,0.2546,0.2293,0.1967,0.1715,0.1458,0.0773,0.0595,0.0586,-0.0082,-0.0163,-0.0,0.0,-0.0079,-0.0239,-0.0243,-0.0411,-0.0755,-0.1219,-0.1421,-0.1525,-0.2064,-0.2513,-0.2875,-0.2875,-0.2875,-0.2875,-0.2875,-0.2875,-0.2875,-0.2875,-0.2875,-0.2875,-0.2875,-0.2875,-0.2875,-0.2875,-0.2891,-0.2917,-0.2955,-0.3033,-0.3097,-0.3136,-0.3196,-0.323,-0.323,-0.323,-0.323,-0.323,-0.323,-0.393,-0.5327,-0.5727,-0.6027,-0.6423,-0.6423,-0.6423,0.0,0.0,0.0,0.0,0.0,0.0,0.0,0.0,0.0,0.0,0.0,0.0,0.0,0.0,0.0,0.0,0.0,0.0,0.0,0.0,0.0,0.0,0.0,0.0,0.0,0.0,0.0,0.0,0.0,0.6428,0.6428,0.6428,0.6428,0.6428,0.6428,0.6428,0.6428,0.6428,0.6428,0.6343,0.5725,0.5371,0.5371,0.4656,0.43,0.43,0.43,0.4202,0.4042,0.404,0.4038,0.4036,0.4038,0.404,0.405,0.4142,0.3915,0.3575,0.3561,0.3315,0.2776,0.1524,0.1567,0.1932,0.0673,0.0815,0.1337,0.1338,0.0881,0.0407,0.0408,-0.0084,-0.0524,-0.0625,-0.0628,-0.0718,-0.0718,-0.1794,-0.2873,-0.2873,-0.2873,-0.2873,-0.2875,-0.2875,-0.2875,-0.2875,-0.2875,-0.2875,-0.2875,-0.2876,-0.2877,-0.2877,-0.2928,-0.2962,-0.2963,-0.3072,-0.314,-0.3142,-0.3198,-0.323,-0.323,-0.323,-0.323,-0.323,-0.323,-0.323,-0.323,-0.4234,-0.5331,-0.6323,-0.6323,-0.6323,2.1166,0.0,0.0,0.0,0.0,0.0,0.0,0.0,0.0,0.0,0.0,0.0,0.0,0.0,0.0,0.0,0.0,0.0,0.0,0.0,0.0,0.0,0.0,0.0,0.0,0.0,0.0,0.0,0.812,0.8032,0.8032,0.7492,0.7224,0.7224,0.6694,0.6428,0.6428,0.6428,0.6166,0.5638,0.546,0.5104,0.4567,0.4389,0.43,0.43,0.43,0.4271,0.422,0.4161,0.4095,0.4042,0.4108,0.4134,0.4146,0.4232,0.4174,0.4088,0.4113,0.3993,0.369,0.2676,0.2413,0.2311,0.1364,0.1169,0.1294,0.1316,0.1162,0.1088,0.1106,0.0958,0.0712,0.0179,0.009,-0.009,-0.0628,-0.0987,-0.1436,-0.1974,-0.2064,-0.2244,-0.2784,-0.2875,-0.2875,-0.2875,-0.2875,-0.2875,-0.2875,-0.291,-0.2935,-0.2935,-0.2988,-0.3042,-0.3086,-0.312,-0.3158,-0.3203,-0.3221,-0.323,-0.323,-0.323,-0.323,-0.323,-0.323,-0.323,-0.323,-0.3531,-0.3831,-0.4131,-0.4131,-0.4531,0.0,0.0,0.0,0.0,0.0,0.0,1.9853,1.961,0.0,0.0,0.0,0.0,0.0,0.0,0.0,0.0,0.0,0.0,0.0,0.0,0.0,0.0,0.0,0.0,0.0,0.0,0.0,0.8568,0.8568,0.8568,0.8568,0.8208,0.7937,0.7937,0.7584,0.7319,0.7319,0.7319,0.7143,0.6704,0.6435,0.6074,0.5628,0.5275,0.5186,0.5186,0.5186,0.5186,0.5184,0.5124,0.4715,0.4151,0.4204,0.4226,0.4232,0.4281,0.43,0.43,0.43,0.4242,0.4098,0.3204,0.2763,0.2487,0.1616,0.1339,0.1307,0.1324,0.1346,0.1372,0.1401,0.1422,0.1345,0.0897,0.0807,0.0718,0.0269,0.0179,-0.009,-0.1166,-0.1345,-0.1436,-0.1885,-0.1974,-0.2064,-0.2424,-0.2424,-0.2522,-0.2906,-0.2937,-0.2967,-0.2993,-0.305,-0.3101,-0.3136,-0.3162,-0.3192,-0.3229,-0.323,-0.323,-0.323,-0.323,-0.323,-0.323,-0.323,-0.323,-0.323,-0.323,-0.323,-0.323,-0.323,-0.3531,0.0,0.0,0.0,0.0,0.0,0.0,1.999,1.9373,1.8588,0.0,0.0,0.0,0.0,0.0,0.0,0.0,0.0,0.0,0.0,0.0,0.0,0.0,0.0,0.0,0.0,0.8652,0.8568,0.8568,0.8568,0.8568,0.8568,0.8568,0.8568,0.8568,0.8568,0.8568,0.8568,0.8568,0.8564,0.8476,0.7845,0.7489,0.7312,0.6694,0.6428,0.6428,0.6428,0.6428,0.6428,0.6428,0.563,0.4565,0.4565,0.4478,0.4389,0.4389,0.4387,0.4297,0.4287,0.423,0.4082,0.3184,0.2855,0.2591,0.1682,0.1409,0.1385,0.131,0.1352,0.1401,0.1428,0.1436,0.1436,0.1436,0.1436,0.1436,0.1436,0.1436,0.0987,-0.0179,-0.0538,-0.0628,-0.0718,-0.0718,-0.0897,-0.1615,-0.1708,-0.1903,-0.2675,-0.2783,-0.2812,-0.2861,-0.282,-0.2854,-0.2854,-0.2998,-0.3029,-0.3029,-0.313,-0.323,-0.323,-0.323,-0.323,-0.323,-0.323,-0.323,-0.323,-0.323,-0.323,-0.323,-0.323,-0.323,0.0,0.0,0.0,0.0,0.0,0.0,2.0439,2.0362,2.0024,0.0,0.0,0.0,0.0,0.0,0.0,0.0,0.0,0.0,0.0,0.0,0.0,0.0,0.0,0.0,0.0,0.8999,0.8568,0.8568,0.8568,0.8568,0.8568,0.8568,0.8568,0.8568,0.8568,0.8568,0.8568,0.8568,0.8296,0.7757,0.7577,0.7224,0.6605,0.6428,0.6428,0.6428,0.6428,0.6428,0.6428,0.6428,0.6251,0.5985,0.5985,0.5633,0.5193,0.5193,0.4835,0.4289,0.4222,0.4138,0.398,0.3399,0.3138,0.2886,0.2079,0.1821,0.172,0.1444,0.1399,0.1428,0.1433,0.1436,0.1436,0.1436,0.1436,0.1436,0.1436,0.1436,0.1345,0.1076,0.0538,-0.0,-0.0628,-0.0718,-0.0718,-0.0897,-0.091,-0.1013,-0.1109,-0.1141,-0.1164,-0.1169,-0.119,-0.1204,-0.1204,-0.1811,-0.2219,-0.2219,-0.2826,-0.323,-0.323,-0.323,-0.323,-0.323,-0.323,-0.323,-0.323,-0.323,-0.323,-0.323,-0.323,-0.323,0.0,0.0,0.0,2.0566,0.0,0.0,0.0,2.0566,2.0343,0.0,0.0,0.0,0.0,0.0,0.0,0.0,0.0,0.0,0.0,0.0,0.0,0.0,0.0,0.0,0.0,0.9082,0.8568,0.8568,0.8568,0.8568,0.8568,0.8568,0.8568,0.8568,0.8568,0.8568,0.8568,0.8568,0.8388,0.8028,0.8028,0.7852,0.7496,0.7496,0.7496,0.7496,0.7496,0.7496,0.7496,0.7496,0.7496,0.7408,0.6697,0.6166,0.5902,0.5902,0.5596,0.5185,0.479,0.4619,0.4373,0.3659,0.3367,0.3154,0.2545,0.2205,0.1943,0.1813,0.1589,0.1436,0.1436,0.1436,0.1436,0.1436,0.1436,0.1436,0.1436,0.1436,0.144,0.1455,0.1184,0.082,0.0455,0.0364,0.0274,-0.0092,-0.0187,-0.0283,-0.0666,-0.0678,-0.0688,-0.0794,-0.0802,-0.0806,-0.0806,-0.121,-0.1412,-0.1412,-0.1815,-0.2017,-0.2017,-0.2017,-0.2017,-0.2017,-0.2017,-0.2017,-0.2017,-0.2017,-0.2422,-0.323,-0.323,-0.323,0.0,0.0,0.0,0.0,0.0,2.0674,0.0,0.0,0.0,1.934,0.0,0.0,0.0,0.0,0.0,0.0,0.0,0.0,0.0,0.0,0.0,0.0,0.0,0.0,0.0,0.9257,0.8568,0.8568,0.8568,0.8568,0.8568,0.8568,0.8568,0.8568,0.8568,0.8568,0.8568,0.8568,0.8568,0.8568,0.8568,0.8568,0.8568,0.8568,0.8568,0.8568,0.8568,0.8568,0.8568,0.8568,0.8568,0.848,0.7319,0.6697,0.6605,0.6605,0.6446,0.6174,0.5637,0.5307,0.5073,0.4289,0.3795,0.345,0.3019,0.2509,0.1998,0.1998,0.1677,0.1436,0.1436,0.1436,0.1436,0.1436,0.1436,0.1436,0.1436,0.1436,0.1444,0.1475,0.148,0.1483,0.1488,0.1489,0.131,0.0666,0.067,0.0386,-0.0196,-0.0295,-0.0297,-0.0302,-0.0303,-0.0303,-0.0303,-0.0504,-0.0605,-0.0605,-0.0706,-0.0806,-0.0806,-0.0806,-0.0806,-0.0806,-0.0806,-0.0806,-0.0806,-0.0806,-0.1513,-0.2725,-0.2725,-0.2725,0.0,0.0,0.0,0.0,2.0869,0.0,0.0,0.0,2.0459,1.9916,0.0,0.0,0.0,0.0,0.0,0.0,0.0,0.0,0.0,0.0,0.0,0.0,0.0,0.0,0.0,0.0,0.8568,0.8568,0.8568,0.8568,0.8568,0.8568,0.8568,0.8568,0.8568,0.8568,0.8568,0.8568,0.8568,0.8568,0.8568,0.8568,0.8568,0.8568,0.8568,0.8568,0.8568,0.8568,0.8568,0.8568,0.8568,0.8568,0.8388,0.794,0.7401,0.7401,0.6949,0.6389,0.6183,0.6132,0.6102,0.5913,0.4959,0.3705,0.3455,0.2478,0.1477,0.1477,0.1412,0.1436,0.1436,0.1436,0.1436,0.1436,0.1436,0.1436,0.1436,0.1436,0.1444,0.1475,0.148,0.1489,0.1516,0.1521,0.1427,0.143,0.1452,0.147,0.1374,0.1295,0.131,0.1313,0.1313,0.1313,0.1313,0.0707,0.0303,0.0303,-0.0403,-0.0806,-0.0806,-0.0806,-0.0806,-0.0806,-0.0806,-0.0806,-0.0806,-0.0806,-0.0907,-0.1109,-0.1109,-0.1109,0.0,0.0,0.0,0.0,0.0,0.0,0.0,0.0,2.044,0.0,0.0,0.0,0.0,0.0,0.0,0.0,0.0,0.0,0.0,0.0,0.0,0.0,0.0,0.0,0.0,0.0,0.0,0.0,0.0,0.8568,0.8568,0.8568,0.8568,0.8568,0.8568,0.8568,0.8568,0.8568,0.8568,0.8568,0.8568,0.8568,0.8568,0.8568,0.8568,0.8568,0.8568,0.8568,0.8568,0.8568,0.8568,0.8568,0.8568,0.8388,0.8116,0.8116,0.7876,0.7433,0.7104,0.6912,0.6748,0.6423,0.574,0.5137,0.4966,0.3858,0.2651,0.2651,0.2047,0.1436,0.1436,0.1436,0.1436,0.1436,0.1436,0.1436,0.1436,0.1449,0.147,0.1501,0.1521,0.1543,0.1573,0.1564,0.1558,0.1576,0.159,0.1598,0.1598,0.1609,0.1617,0.1617,0.1617,0.1617,0.1617,0.1313,0.1111,0.1111,0.0808,0.0606,0.0606,0.0606,0.0606,0.0606,0.0606,0.0606,0.0606,0.0606,0.0606,0.0606,-0.0403,-0.0806,2.0566,0.0,0.0,0.0,0.0,0.0,0.0,0.0,0.0,0.0,0.0,0.0,0.0,0.0,0.0,0.0,0.0,0.0,0.0,0.0,0.0,0.0,0.0,0.0,0.0,0.0,0.0,0.8999,0.8999,0.8828,0.8656,0.8568,0.8568,0.8568,0.8568,0.8568,0.8568,0.8568,0.8568,0.8568,0.8568,0.8568,0.8568,0.8568,0.8568,0.8568,0.8568,0.8568,0.8568,0.8568,0.8568,0.8568,0.8568,0.8568,0.8568,0.8568,0.8483,0.8279,0.7842,0.767,0.7519,0.7017,0.6609,0.6257,0.6166,0.5184,0.3933,0.3935,0.2953,0.1882,0.1793,0.1614,0.1436,0.1436,0.1442,0.1448,0.1448,0.1472,0.1502,0.1533,0.1556,0.1581,0.1611,0.1598,0.1592,0.1613,0.1617,0.1617,0.1617,0.1617,0.1617,0.1617,0.1617,0.1617,0.1617,0.1617,0.1617,0.1617,0.1617,0.1617,0.1617,0.1617,0.1617,0.1617,0.1617,0.1617,0.1617,0.1617,0.1617,0.1617,0.0404,-0.0101,0.0,0.0,0.0,2.0674,0.0,0.0,0.0,0.0,2.1014,0.0,0.0,0.0,0.0,0.0,0.0,0.0,0.0,0.0,0.0,0.0,0.0,0.0,0.0,0.0,0.0,0.0,0.0,0.9946,0.9859,0.9515,0.8656,0.8568,0.8568,0.8568,0.8568,0.8568,0.8568,0.8568,0.8568,0.8568,0.8568,0.8568,0.8568,0.8568,0.8568,0.8568,0.8568,0.8568,0.8568,0.8568,0.8568,0.8568,0.8568,0.8568,0.8568,0.8568,0.8564,0.856,0.8556,0.8556,0.8468,0.8201,0.7489,0.6691,0.6505,0.5706,0.491,0.4645,0.3844,0.313,0.2867,0.2152,0.1436,0.1436,0.1457,0.1479,0.1479,0.1503,0.1534,0.1564,0.157,0.1581,0.1611,0.1616,0.1615,0.1617,0.1617,0.1617,0.1617,0.1617,0.1617,0.1617,0.1617,0.1617,0.1617,0.1617,0.1617,0.1617,0.1617,0.1617,0.1617,0.1617,0.1617,0.1617,0.1617,0.1617,0.1617,0.1617,0.1617,0.1617,0.1516,0.1516,0.0,0.0,2.0752,2.0605,0.0,0.0,0.0,0.0,0.0,0.0,0.0,0.0,0.0,0.0,0.0,0.0,0.0,0.0,0.0,0.0,0.0,0.0,0.0,0.0,0.0,0.0,0.0,0.9946,0.934,0.8911,0.0,0.8568,0.8568,0.8568,0.8568,0.8568,0.8568,0.8568,0.8568,0.8568,0.8568,0.8568,0.8568,0.8568,0.8568,0.8568,0.8568,0.8568,0.8568,0.8568,0.8568,0.8568,0.8568,0.8568,0.8568,0.8568,0.8568,0.8568,0.8568,0.8568,0.8568,0.8476,0.8113,0.7665,0.7661,0.6773,0.5883,0.5797,0.5228,0.4559,0.447,0.4328,0.3907,0.2984,0.2813,0.2545,0.1699,0.1535,0.1559,0.1569,0.1588,0.1605,0.1615,0.1617,0.1617,0.1617,0.1617,0.1617,0.1617,0.1617,0.1617,0.1617,0.1617,0.1617,0.1617,0.1617,0.1617,0.1617,0.1617,0.1617,0.1617,0.1617,0.1617,0.1617,0.1617,0.1617,0.1617,0.1617,0.1617,0.1617,0.1617,0.1617,2.0566,2.0566,0.0,2.0566,2.0566,0.0,2.0342,0.0,0.0,0.0,0.0,0.0,0.0,0.0,0.0,0.0,0.0,0.0,0.0,1.4088,0.0,0.0,0.0,0.0,0.0,0.0,1.1662,1.0458,0.9864,0.9257,0.0,0.0,0.8568,0.8568,0.8568,0.8568,0.8568,0.8568,0.8568,0.8568,0.8568,0.8568,0.8568,0.8568,0.8568,0.8568,0.8568,0.8568,0.8568,0.8568,0.8568,0.8568,0.8568,0.8568,0.8568,0.8568,0.8568,0.8568,0.8568,0.8568,0.8568,0.8568,0.8476,0.838,0.838,0.7757,0.7139,0.7193,0.6554,0.5899,0.5945,0.5727,0.5308,0.4462,0.4201,0.4032,0.3171,0.3025,0.287,0.2377,0.23,0.222,0.1919,0.1918,0.1818,0.1617,0.1617,0.1617,0.1617,0.1617,0.1617,0.1617,0.1617,0.1617,0.1617,0.1617,0.1617,0.1617,0.1617,0.1617,0.1617,0.1617,0.1622,0.1633,0.1622,0.1622,0.1633,0.1622,0.1617,0.1617,0.1617,0.1617]}]]